Darstellungsparameter: Aktuell verwendete Einstellungen:
Skalierung der Graphiken ... ?
xyx+y,   Skalierungsfaktor:      Skalierung: Modus: x, Faktor: 1
Darstellungszeitraum ... ?
Vom - - bis: - -   Zeitraum: 10.08.2014 - 09.08.2015
Min/Max/Avg-Anzeige ... ?
Zeige MMA aktuell
Zeige MMA Monat
Zeige MMA alles
Zeige --A aktuell
Zeige --A Monat
Zeige --A alles
Keine MMA-Anzeige
MMA:
Average (ber die Originaldaten)
MMA-Basis: 23.02.2003 - 03.08.2020
Quicknavigation für Darstellung... ?
Tage:      1T, 2T, 3T, 5T -1T -2T -3T -5T +1T +2T +3T +5T
Wochen: 1W, 2W, 3W -1W -2W -3W +1W +2W +3W
Monate: 1M, 3M, 6M -1M -3M -6M +1M +3M +6M
Jahre:    1J, 3J, 5J, 10J -1J -3J -5J -10J +1J +3J +5J +10J
Nutze für die Darstellung ... ?
Originaldaten oder ...
Mittelwerte Minima Maxima auf...
Stundenbasis Tagesbasis Wochenbasis
Monatsbasis Jahresbasis      Datenbasis: Mittelwerte auf Stundenbasis
Darstellen als:
Statistik (Auto) Statistik J:M      Darstellung:
Zur Graphik,    zurück zur Übersicht aller Sensoren.
 
Tabellarische Datenbersicht: ?
 
Sensor: Nr:Datum:Temp:Abs-Feuchte:Windchill:Wind:
Aussen-T/F 1 10-08-2014 00:00:00 16.25 C 12.46 g/m*3 16.25 C 0 km/h
2 10-08-2014 01:00:00 16.20833 C 12.59 g/m*3 16.21 C 0 km/h
3 10-08-2014 02:00:00 16.3 C 12.73 g/m*3 16.3 C 0 km/h
4 10-08-2014 03:00:00 16.34167 C 12.8 g/m*3 16.34 C 0 km/h
5 10-08-2014 04:00:00 16.175 C 12.75 g/m*3 16.18 C 0 km/h
6 10-08-2014 05:00:00 15.825 C 12.37 g/m*3 15.83 C 0 km/h
7 10-08-2014 06:00:00 15.26667 C 12.03 g/m*3 15.27 C 0.26667 km/h
8 10-08-2014 07:00:00 15.58333 C 12.41 g/m*3 15.58 C 1.61667 km/h
9 10-08-2014 08:00:00 17.63333 C 13.51 g/m*3 17.63 C 1.73333 km/h
10 10-08-2014 09:00:00 19.61667 C 14.24 g/m*3 19.62 C 2.93333 km/h
11 10-08-2014 10:00:00 21.25833 C 14.91 g/m*3 21.26 C 3.86667 km/h
12 10-08-2014 11:00:00 22.8 C 15.78 g/m*3 22.8 C 4.94167 km/h
13 10-08-2014 12:00:00 24.26667 C 15.94 g/m*3 24.27 C 6.96667 km/h
14 10-08-2014 13:00:00 23.85833 C 16.26 g/m*3 23.86 C 4.825 km/h
15 10-08-2014 14:00:00 21.55833 C 17.22 g/m*3 21.56 C 0.8 km/h
16 10-08-2014 15:00:00 20.85833 C 16.81 g/m*3 20.86 C 2.93333 km/h
17 10-08-2014 16:00:00 21.05833 C 17.29 g/m*3 21.06 C 2.26667 km/h
18 10-08-2014 17:00:00 21.00833 C 17.3 g/m*3 21.01 C 0 km/h
19 10-08-2014 18:00:00 20.25833 C 16.84 g/m*3 20.26 C 0.13333 km/h
20 10-08-2014 19:00:00 19.85 C 16.46 g/m*3 19.85 C 0 km/h
21 10-08-2014 20:00:00 19.225 C 16.02 g/m*3 19.23 C 2.68333 km/h
22 10-08-2014 21:00:00 18.975 C 15.34 g/m*3 18.98 C 3.33333 km/h
23 10-08-2014 22:00:00 18.34167 C 14.81 g/m*3 18.34 C 2 km/h
24 10-08-2014 23:00:00 17.78333 C 14.56 g/m*3 17.78 C 1.33333 km/h
25 11-08-2014 00:00:00 17.50833 C 14.06 g/m*3 17.51 C 3.20833 km/h
Sensor: Nr:Datum:Temp:Abs-Feuchte:Windchill:Wind:
Aussen-T/F 26 11-08-2014 01:00:00 16.31667 C 13.02 g/m*3 16.32 C 2.8 km/h
27 11-08-2014 02:00:00 15.40833 C 11.96 g/m*3 15.41 C 2.93333 km/h
28 11-08-2014 03:00:00 14.05833 C 11.45 g/m*3 14.06 C 0.53333 km/h
29 11-08-2014 04:00:00 13.36667 C 11.03 g/m*3 13.37 C 0.4 km/h
30 11-08-2014 05:00:00 13.14167 C 10.8 g/m*3 13.14 C 1.06667 km/h
31 11-08-2014 06:00:00 12.86667 C 10.64 g/m*3 12.87 C 0.4 km/h
32 11-08-2014 07:00:00 13.10833 C 10.83 g/m*3 13.11 C 0.66667 km/h
33 11-08-2014 08:00:00 13.86667 C 11.12 g/m*3 13.87 C 3.49167 km/h
34 11-08-2014 09:00:00 15.43333 C 11.14 g/m*3 15.43 C 12.76667 km/h
35 11-08-2014 10:00:00 16.50833 C 11.25 g/m*3 16.51 C 12.5 km/h
36 11-08-2014 11:00:00 18.25833 C 11.35 g/m*3 18.26 C 10.89167 km/h
37 11-08-2014 12:00:00 19.55 C 11.21 g/m*3 19.55 C 11.025 km/h
38 11-08-2014 13:00:00 20.375 C 11.14 g/m*3 20.38 C 13.16667 km/h
39 11-08-2014 14:00:00 20.85 C 11.38 g/m*3 20.85 C 11.96667 km/h
40 11-08-2014 15:00:00 18.66667 C 13.41 g/m*3 18.67 C 3.06667 km/h
41 11-08-2014 16:00:00 20.51667 C 13.4 g/m*3 20.52 C 6.3 km/h
42 11-08-2014 17:00:00 21.975 C 11.47 g/m*3 21.98 C 12.49167 km/h
43 11-08-2014 18:00:00 21.24167 C 11.58 g/m*3 21.24 C 6.975 km/h
44 11-08-2014 19:00:00 20.60833 C 11.83 g/m*3 20.61 C 5.625 km/h
45 11-08-2014 20:00:00 18.75833 C 11.33 g/m*3 18.76 C 3.46667 km/h
46 11-08-2014 21:00:00 16.34167 C 11.18 g/m*3 16.34 C 2.66667 km/h
47 11-08-2014 22:00:00 15.25 C 10.96 g/m*3 15.25 C 0.53333 km/h
48 11-08-2014 23:00:00 14.18333 C 10.61 g/m*3 14.18 C 0 km/h
49 12-08-2014 00:00:00 14.28333 C 10.69 g/m*3 14.28 C 0.53333 km/h
50 12-08-2014 01:00:00 16.15833 C 10.36 g/m*3 16.16 C 6.725 km/h
Sensor: Nr:Datum:Temp:Abs-Feuchte:Windchill:Wind:
Aussen-T/F 51 12-08-2014 02:00:00 15.51667 C 10.73 g/m*3 15.52 C 8.85833 km/h
52 12-08-2014 03:00:00 14.46667 C 10.91 g/m*3 14.47 C 2 km/h
53 12-08-2014 04:00:00 13.975 C 10.93 g/m*3 13.98 C 2.94167 km/h
54 12-08-2014 05:00:00 14.225 C 10.76 g/m*3 14.23 C 4.81667 km/h
55 12-08-2014 06:00:00 14.1 C 10.64 g/m*3 14.1 C 1.86667 km/h
56 12-08-2014 07:00:00 13.80833 C 10.76 g/m*3 13.81 C 0.53333 km/h
57 12-08-2014 08:00:00 14.375 C 11.11 g/m*3 14.38 C 2.54167 km/h
58 12-08-2014 09:00:00 15.88333 C 11 g/m*3 15.88 C 10.61667 km/h
59 12-08-2014 10:00:00 17.10833 C 10.63 g/m*3 17.11 C 13.56667 km/h
60 12-08-2014 11:00:00 18.5 C 10.5 g/m*3 18.5 C 13.55833 km/h
61 12-08-2014 12:00:00 19.80833 C 9.91 g/m*3 19.81 C 14.5 km/h
62 12-08-2014 13:00:00 20.46667 C 9.72 g/m*3 20.47 C 14.23333 km/h
63 12-08-2014 14:00:00 21.59167 C 9.97 g/m*3 21.59 C 14.63333 km/h
64 12-08-2014 15:00:00 22.775 C 9.93 g/m*3 22.78 C 15.96667 km/h
65 12-08-2014 16:00:00 23.30833 C 10.01 g/m*3 23.31 C 14.89167 km/h
66 12-08-2014 17:00:00 22.31667 C 9.87 g/m*3 22.32 C 14.64167 km/h
67 12-08-2014 18:00:00 22.16667 C 10.22 g/m*3 22.17 C 9.825 km/h
68 12-08-2014 19:00:00 21.04167 C 11.29 g/m*3 21.04 C 4.15 km/h
69 12-08-2014 20:00:00 18.46667 C 11.33 g/m*3 18.47 C 2 km/h
70 12-08-2014 21:00:00 17.16667 C 11.12 g/m*3 17.17 C 0.93333 km/h
71 12-08-2014 22:00:00 16.41667 C 10.86 g/m*3 16.42 C 0 km/h
72 12-08-2014 23:00:00 15.05833 C 10.64 g/m*3 15.06 C 0 km/h
73 13-08-2014 00:00:00 14.33333 C 10.8 g/m*3 14.33 C 0 km/h
74 13-08-2014 01:00:00 14.09167 C 10.93 g/m*3 14.09 C 0 km/h
75 13-08-2014 02:00:00 13.95833 C 10.95 g/m*3 13.96 C 0 km/h
Sensor: Nr:Datum:Temp:Abs-Feuchte:Windchill:Wind:
Aussen-T/F 76 13-08-2014 03:00:00 14.075 C 11.01 g/m*3 14.08 C 0 km/h
77 13-08-2014 04:00:00 14.125 C 11 g/m*3 14.13 C 0 km/h
78 13-08-2014 05:00:00 14.11667 C 11.06 g/m*3 14.12 C 0 km/h
79 13-08-2014 06:00:00 13.61667 C 10.9 g/m*3 13.62 C 0 km/h
80 13-08-2014 07:00:00 14 C 11.25 g/m*3 14 C 0 km/h
81 13-08-2014 08:00:00 14.98333 C 11.68 g/m*3 14.98 C 0 km/h
82 13-08-2014 09:00:00 16.70833 C 12.16 g/m*3 16.71 C 0 km/h
83 13-08-2014 10:00:00 18.325 C 12.21 g/m*3 18.33 C 3.75 km/h
84 13-08-2014 11:00:00 19.50833 C 12.51 g/m*3 19.51 C 3.74167 km/h
85 13-08-2014 12:00:00 19.825 C 12.67 g/m*3 19.83 C 2.8 km/h
86 13-08-2014 13:00:00 19.48333 C 13.4 g/m*3 19.48 C 0.93333 km/h
87 13-08-2014 14:00:00 18.73333 C 14.17 g/m*3 18.73 C 0 km/h
88 13-08-2014 15:00:00 17.98333 C 14.17 g/m*3 17.98 C 0 km/h
89 13-08-2014 16:00:00 17.16667 C 13.54 g/m*3 17.17 C 0.675 km/h
90 13-08-2014 17:00:00 15.85 C 12.62 g/m*3 15.85 C 4.975 km/h
91 13-08-2014 18:00:00 15.68333 C 12.8 g/m*3 15.68 C 0 km/h
92 13-08-2014 19:00:00 15.70833 C 12.86 g/m*3 15.71 C 0 km/h
93 13-08-2014 20:00:00 15.6 C 12.89 g/m*3 15.6 C 0 km/h
94 13-08-2014 21:00:00 15.28333 C 12.59 g/m*3 15.28 C 0.13333 km/h
95 13-08-2014 22:00:00 15.13333 C 12.28 g/m*3 15.13 C 0 km/h
96 13-08-2014 23:00:00 15.15 C 12.23 g/m*3 15.15 C 4.95833 km/h
97 14-08-2014 00:00:00 14.95 C 11.89 g/m*3 14.95 C 3.74167 km/h
98 14-08-2014 01:00:00 14.58333 C 11.54 g/m*3 14.58 C 2.26667 km/h
99 14-08-2014 02:00:00 13.85833 C 11.34 g/m*3 13.86 C 0 km/h
100 14-08-2014 03:00:00 13.35 C 11.14 g/m*3 13.35 C 0 km/h
Sensor: Nr:Datum:Temp:Abs-Feuchte:Windchill:Wind:
Aussen-T/F 101 14-08-2014 04:00:00 13.20833 C 11.14 g/m*3 13.21 C 0.13333 km/h
102 14-08-2014 05:00:00 13.06667 C 11.05 g/m*3 13.07 C 0 km/h
103 14-08-2014 06:00:00 12.91667 C 10.94 g/m*3 12.92 C 0 km/h
104 14-08-2014 07:00:00 13.53333 C 11.31 g/m*3 13.53 C 1.74167 km/h
105 14-08-2014 08:00:00 14.86667 C 11.36 g/m*3 14.87 C 5.36667 km/h
106 14-08-2014 09:00:00 15.51667 C 11.62 g/m*3 15.52 C 5.10833 km/h
107 14-08-2014 10:00:00 16.51667 C 11.53 g/m*3 16.52 C 11 km/h
108 14-08-2014 11:00:00 17.20833 C 11.4 g/m*3 17.21 C 11.025 km/h
109 14-08-2014 12:00:00 18.96667 C 11.63 g/m*3 18.97 C 14.76667 km/h
110 14-08-2014 13:00:00 19.525 C 11.71 g/m*3 19.52 C 13.03333 km/h
111 14-08-2014 14:00:00 19.775 C 12.07 g/m*3 19.77 C 15.03333 km/h
112 14-08-2014 15:00:00 20.125 C 11.87 g/m*3 20.13 C 12.36667 km/h
113 14-08-2014 16:00:00 19.63333 C 11.8 g/m*3 19.63 C 7.25 km/h
114 14-08-2014 17:00:00 20.83333 C 11.78 g/m*3 20.83 C 6.56667 km/h
115 14-08-2014 18:00:00 19.16667 C 11.68 g/m*3 19.17 C 10.325 km/h
116 14-08-2014 19:00:00 16.38 C 11.29 g/m*3 16.38 C 3.04 km/h
117 14-08-2014 20:00:00 15.22727 C 11.36 g/m*3 15.23 C 0.29091 km/h
118 14-08-2014 21:00:00 14.71111 C 11.32 g/m*3 14.71 C 0 km/h
119 14-08-2014 22:00:00 14.70833 C 11.42 g/m*3 14.71 C 0 km/h
120 14-08-2014 23:00:00 14.675 C 11.25 g/m*3 14.68 C 0.93333 km/h
121 15-08-2014 00:00:00 14.26667 C 10.92 g/m*3 14.27 C 0.8 km/h
122 15-08-2014 01:00:00 13.55833 C 10.61 g/m*3 13.56 C 0 km/h
123 15-08-2014 02:00:00 13.55 C 10.56 g/m*3 13.55 C 0.26667 km/h
124 15-08-2014 03:00:00 12.99167 C 10.54 g/m*3 12.99 C 0 km/h
125 15-08-2014 04:00:00 13.20833 C 10.8 g/m*3 13.21 C 0 km/h
Sensor: Nr:Datum:Temp:Abs-Feuchte:Windchill:Wind:
Aussen-T/F 126 15-08-2014 05:00:00 13.39167 C 10.92 g/m*3 13.39 C 0 km/h
127 15-08-2014 06:00:00 13.525 C 10.98 g/m*3 13.53 C 0 km/h
128 15-08-2014 07:00:00 13.75 C 11.11 g/m*3 13.75 C 0 km/h
129 15-08-2014 08:00:00 14.15 C 11.21 g/m*3 14.15 C 0.8 km/h
130 15-08-2014 09:00:00 14.68333 C 11.52 g/m*3 14.68 C 3.225 km/h
131 15-08-2014 10:00:00 15.34167 C 11.82 g/m*3 15.34 C 6.575 km/h
132 15-08-2014 11:00:00 15.69167 C 11.76 g/m*3 15.69 C 3.6 km/h
133 15-08-2014 12:00:00 15.76667 C 12.09 g/m*3 15.77 C 2.93333 km/h
134 15-08-2014 13:00:00 16.18889 C 11.82 g/m*3 16.19 C 2.48889 km/h
135 15-08-2014 14:00:00 15.68333 C 11.85 g/m*3 15.68 C 3.74167 km/h
136 15-08-2014 15:00:00 15.36667 C 12.05 g/m*3 15.37 C 1.2 km/h
137 15-08-2014 16:00:00 15.625 C 12.01 g/m*3 15.63 C 1.2 km/h
138 15-08-2014 17:00:00 14.54167 C 11.69 g/m*3 14.54 C 1.06667 km/h
139 15-08-2014 18:00:00 16.99167 C 12.87 g/m*3 16.99 C 0.66667 km/h
140 15-08-2014 19:00:00 14.875 C 11.96 g/m*3 14.88 C 0 km/h
141 15-08-2014 20:00:00 14.41667 C 11.91 g/m*3 14.42 C 0.13333 km/h
142 15-08-2014 21:00:00 14.15833 C 11.74 g/m*3 14.16 C 0.26667 km/h
143 15-08-2014 22:00:00 13.74167 C 11.51 g/m*3 13.74 C 0 km/h
144 15-08-2014 23:00:00 13.275 C 11.19 g/m*3 13.28 C 0 km/h
145 16-08-2014 00:00:00 12.83333 C 10.89 g/m*3 12.83 C 0 km/h
146 16-08-2014 01:00:00 12.725 C 10.84 g/m*3 12.73 C 0 km/h
147 16-08-2014 02:00:00 12.95833 C 11.09 g/m*3 12.96 C 0 km/h
148 16-08-2014 03:00:00 12.9 C 11.05 g/m*3 12.9 C 0 km/h
149 16-08-2014 04:00:00 12.91667 C 11.06 g/m*3 12.92 C 0 km/h
150 16-08-2014 05:00:00 12.54167 C 10.77 g/m*3 12.54 C 0 km/h
Sensor: Nr:Datum:Temp:Abs-Feuchte:Windchill:Wind:
Aussen-T/F 151 16-08-2014 06:00:00 12.51667 C 10.78 g/m*3 12.52 C 0 km/h
152 16-08-2014 07:00:00 12.41667 C 10.68 g/m*3 12.42 C 0 km/h
153 16-08-2014 08:00:00 13.20833 C 11.04 g/m*3 13.21 C 0 km/h
154 16-08-2014 09:00:00 13.975 C 11.17 g/m*3 13.98 C 3.89167 km/h
155 16-08-2014 10:00:00 15 C 11.68 g/m*3 15 C 4.83333 km/h
156 16-08-2014 11:00:00 15.09167 C 12.25 g/m*3 15.09 C 0.66667 km/h
157 16-08-2014 12:00:00 16.29167 C 12.43 g/m*3 16.29 C 3.89167 km/h
158 16-08-2014 13:00:00 17.09167 C 12.62 g/m*3 17.09 C 4.69167 km/h
159 16-08-2014 14:00:00 18.4 C 11.6 g/m*3 18.4 C 8.06667 km/h
160 16-08-2014 15:00:00 20.40833 C 11.33 g/m*3 20.41 C 11.15833 km/h
161 16-08-2014 16:00:00 20.41667 C 11.61 g/m*3 20.42 C 6.7 km/h
162 16-08-2014 17:00:00 19.56667 C 11.65 g/m*3 19.57 C 7.11667 km/h
163 16-08-2014 18:00:00 17.49167 C 11.81 g/m*3 17.49 C 4.29167 km/h
164 16-08-2014 19:00:00 15.75833 C 11.88 g/m*3 15.76 C 4.15 km/h
165 16-08-2014 20:00:00 14.68333 C 11.72 g/m*3 14.68 C 1.73333 km/h
166 16-08-2014 21:00:00 14.9 C 11.57 g/m*3 14.9 C 1.06667 km/h
167 16-08-2014 22:00:00 14.58333 C 11.73 g/m*3 14.58 C 0 km/h
168 16-08-2014 23:00:00 14.51667 C 11.83 g/m*3 14.52 C 0 km/h
169 17-08-2014 00:00:00 14.49167 C 11.63 g/m*3 14.49 C 0 km/h
170 17-08-2014 01:00:00 13.84167 C 11.19 g/m*3 13.84 C 0 km/h
171 17-08-2014 02:00:00 13.61667 C 11.13 g/m*3 13.62 C 0 km/h
172 17-08-2014 03:00:00 13.81667 C 11.2 g/m*3 13.82 C 0 km/h
173 17-08-2014 04:00:00 13.65 C 11.16 g/m*3 13.65 C 0 km/h
174 17-08-2014 05:00:00 13.525 C 11.12 g/m*3 13.53 C 0 km/h
175 17-08-2014 06:00:00 13.21667 C 10.92 g/m*3 13.22 C 0 km/h
Sensor: Nr:Datum:Temp:Abs-Feuchte:Windchill:Wind:
Aussen-T/F 176 17-08-2014 07:00:00 12.75 C 10.67 g/m*3 12.75 C 0 km/h
177 17-08-2014 08:00:00 13.76667 C 10.88 g/m*3 13.77 C 3.35 km/h
178 17-08-2014 09:00:00 15.525 C 10.69 g/m*3 15.53 C 10.21667 km/h
179 17-08-2014 10:00:00 16.61667 C 10.84 g/m*3 16.62 C 11.94167 km/h
180 17-08-2014 11:00:00 17.575 C 10.62 g/m*3 17.58 C 15.03333 km/h
181 17-08-2014 12:00:00 18.49167 C 10.19 g/m*3 18.49 C 18.5 km/h
182 17-08-2014 13:00:00 18.375 C 9.89 g/m*3 18.38 C 13.7 km/h
183 17-08-2014 14:00:00 18.09167 C 9.74 g/m*3 18.09 C 14.1 km/h
184 17-08-2014 15:00:00 18.36667 C 9.72 g/m*3 18.37 C 11.55 km/h
185 17-08-2014 16:00:00 18.66667 C 9.81 g/m*3 18.67 C 13.69167 km/h
186 17-08-2014 17:00:00 18.31667 C 9.81 g/m*3 18.32 C 8.325 km/h
187 17-08-2014 18:00:00 18.375 C 10.04 g/m*3 18.38 C 8.73333 km/h
188 17-08-2014 19:00:00 17.89167 C 10.44 g/m*3 17.89 C 6.30833 km/h
189 17-08-2014 20:00:00 17.56667 C 10.35 g/m*3 17.57 C 7.65 km/h
190 17-08-2014 21:00:00 17.18333 C 10.11 g/m*3 17.18 C 6.30833 km/h
191 17-08-2014 22:00:00 16.775 C 9.85 g/m*3 16.77 C 7.91667 km/h
192 17-08-2014 23:00:00 16.88333 C 9.91 g/m*3 16.88 C 9.13333 km/h
193 18-08-2014 00:00:00 17.05 C 10.03 g/m*3 17.05 C 12.225 km/h
194 18-08-2014 01:00:00 16.675 C 9.96 g/m*3 16.68 C 11.29167 km/h
195 18-08-2014 02:00:00 16.21667 C 9.88 g/m*3 16.22 C 10.61667 km/h
196 18-08-2014 03:00:00 15.95 C 9.94 g/m*3 15.95 C 10.35 km/h
197 18-08-2014 04:00:00 15.70833 C 10.11 g/m*3 15.71 C 11.425 km/h
198 18-08-2014 05:00:00 15.06667 C 10.34 g/m*3 15.07 C 10.74167 km/h
199 18-08-2014 06:00:00 14.95 C 10.31 g/m*3 14.95 C 10.89167 km/h
200 18-08-2014 07:00:00 14.95 C 10.39 g/m*3 14.95 C 9.55 km/h
Sensor: Nr:Datum:Temp:Abs-Feuchte:Windchill:Wind:
Aussen-T/F 201 18-08-2014 08:00:00 14.23333 C 10.62 g/m*3 14.23 C 8.325 km/h
202 18-08-2014 09:00:00 13.65 C 10.86 g/m*3 13.65 C 4.28333 km/h
203 18-08-2014 10:00:00 14.26667 C 11.15 g/m*3 14.27 C 6.16667 km/h
204 18-08-2014 11:00:00 15.84167 C 11.52 g/m*3 15.84 C 9.825 km/h
205 18-08-2014 12:00:00 17.175 C 10.98 g/m*3 17.18 C 10.89167 km/h
206 18-08-2014 13:00:00 17.4 C 10.55 g/m*3 17.4 C 13.55833 km/h
207 18-08-2014 14:00:00 16.50833 C 10.77 g/m*3 16.51 C 6.85833 km/h
208 18-08-2014 15:00:00 17.51667 C 10.96 g/m*3 17.52 C 5.75833 km/h
209 18-08-2014 16:00:00 19.4 C 10.39 g/m*3 19.4 C 11.69167 km/h
210 18-08-2014 17:00:00 20.59167 C 8.18 g/m*3 20.59 C 17.96667 km/h
211 18-08-2014 18:00:00 19.525 C 8.92 g/m*3 19.52 C 11.025 km/h
212 18-08-2014 19:00:00 18.675 C 8.78 g/m*3 18.68 C 12.35833 km/h
213 18-08-2014 20:00:00 17.03333 C 9.74 g/m*3 17.03 C 3.9 km/h
214 18-08-2014 21:00:00 14.76667 C 10.43 g/m*3 14.77 C 0.13333 km/h
215 18-08-2014 22:00:00 14.225 C 10.34 g/m*3 14.23 C 0 km/h
216 18-08-2014 23:00:00 13.925 C 10.25 g/m*3 13.93 C 0 km/h
217 19-08-2014 00:00:00 13.5 C 10.05 g/m*3 13.5 C 0 km/h
218 19-08-2014 01:00:00 12.44167 C 9.65 g/m*3 12.44 C 0 km/h
219 19-08-2014 02:00:00 11.60833 C 9.43 g/m*3 11.61 C 0 km/h
220 19-08-2014 03:00:00 10.93333 C 9.23 g/m*3 10.93 C 0 km/h
221 19-08-2014 04:00:00 10.525 C 9.07 g/m*3 10.53 C 0 km/h
222 19-08-2014 05:00:00 10.29167 C 9.06 g/m*3 10.29 C 0 km/h
223 19-08-2014 06:00:00 10.45833 C 9.19 g/m*3 10.46 C 1.46667 km/h
224 19-08-2014 07:00:00 11.00833 C 9.46 g/m*3 11.01 C 1.6 km/h
225 19-08-2014 08:00:00 12.3 C 10.01 g/m*3 12.3 C 6.96667 km/h
Sensor: Nr:Datum:Temp:Abs-Feuchte:Windchill:Wind:
Aussen-T/F 226 19-08-2014 09:00:00 13.99167 C 10.25 g/m*3 13.99 C 9.28333 km/h
227 19-08-2014 10:00:00 15.54167 C 10.27 g/m*3 15.54 C 14.63333 km/h
228 19-08-2014 11:00:00 16.39167 C 10.23 g/m*3 16.39 C 15.96667 km/h
229 19-08-2014 12:00:00 17.94167 C 10.13 g/m*3 17.94 C 15.29167 km/h
230 19-08-2014 13:00:00 19.725 C 9.92 g/m*3 19.73 C 14.625 km/h
231 19-08-2014 14:00:00 19.59167 C 10 g/m*3 19.59 C 16.63333 km/h
232 19-08-2014 15:00:00 15.925 C 10.31 g/m*3 15.93 C 12.35 km/h
233 19-08-2014 16:00:00 14.54167 C 10.94 g/m*3 14.54 C 4.175 km/h
234 19-08-2014 17:00:00 15.13333 C 11.58 g/m*3 15.13 C 0 km/h
235 19-08-2014 18:00:00 14.63333 C 11.02 g/m*3 14.63 C 4.69167 km/h
236 19-08-2014 19:00:00 13.95833 C 9.37 g/m*3 13.96 C 7.65 km/h
237 19-08-2014 20:00:00 13.89167 C 8.93 g/m*3 13.89 C 5.08333 km/h
238 19-08-2014 21:00:00 12.86667 C 9.56 g/m*3 12.87 C 1.60833 km/h
239 19-08-2014 22:00:00 11.95 C 9.56 g/m*3 11.95 C 0 km/h
240 19-08-2014 23:00:00 11.96667 C 9.3 g/m*3 11.97 C 0 km/h
241 20-08-2014 00:00:00 12.025 C 9 g/m*3 12.03 C 0 km/h
242 20-08-2014 01:00:00 11.25 C 8.73 g/m*3 11.25 C 0 km/h
243 20-08-2014 02:00:00 10.55 C 8.5 g/m*3 10.55 C 0 km/h
244 20-08-2014 03:00:00 9.49167 C 8.26 g/m*3 9.49 C 0 km/h
245 20-08-2014 04:00:00 8.61667 C 8.03 g/m*3 8.62 C 0 km/h
246 20-08-2014 05:00:00 8.33333 C 7.95 g/m*3 8.33 C 0 km/h
247 20-08-2014 06:00:00 8.14167 C 7.88 g/m*3 8.14 C 0 km/h
248 20-08-2014 07:00:00 7.98333 C 7.85 g/m*3 7.98 C 0 km/h
249 20-08-2014 08:00:00 8.675 C 8.26 g/m*3 8.68 C 1.33333 km/h
250 20-08-2014 09:00:00 10.58333 C 8.97 g/m*3 10.58 C 1.06667 km/h
Sensor: Nr:Datum:Temp:Abs-Feuchte:Windchill:Wind:
Aussen-T/F 251 20-08-2014 10:00:00 11.96667 C 9.42 g/m*3 11.97 C 0.4 km/h
252 20-08-2014 11:00:00 13.79167 C 9.61 g/m*3 13.79 C 0.93333 km/h
253 20-08-2014 12:00:00 16.14167 C 9.29 g/m*3 16.14 C 2.95 km/h
254 20-08-2014 13:00:00 14.675 C 10.52 g/m*3 14.68 C 0.675 km/h
255 20-08-2014 14:00:00 17.70833 C 8.87 g/m*3 17.71 C 6.16667 km/h
256 20-08-2014 15:00:00 17.325 C 10.52 g/m*3 17.33 C 0.66667 km/h
257 20-08-2014 16:00:00 17.79167 C 9.58 g/m*3 17.79 C 5.21667 km/h
258 20-08-2014 17:00:00 17.55833 C 10.62 g/m*3 17.56 C 0.80833 km/h
259 20-08-2014 18:00:00 17.16667 C 11.02 g/m*3 17.17 C 1.2 km/h
260 20-08-2014 19:00:00 15.01667 C 10.28 g/m*3 15.02 C 2.94167 km/h
261 20-08-2014 20:00:00 14.13333 C 10.04 g/m*3 14.13 C 0.66667 km/h
262 20-08-2014 21:00:00 12.825 C 9.13 g/m*3 12.83 C 2.28333 km/h
263 20-08-2014 22:00:00 11.83333 C 9.15 g/m*3 11.83 C 0 km/h
264 20-08-2014 23:00:00 10.9 C 8.95 g/m*3 10.9 C 0 km/h
265 21-08-2014 00:00:00 10.35833 C 8.72 g/m*3 10.36 C 0 km/h
266 21-08-2014 01:00:00 9.63333 C 8.51 g/m*3 9.63 C 0 km/h
267 21-08-2014 02:00:00 9.725 C 8.63 g/m*3 9.73 C 0 km/h
268 21-08-2014 03:00:00 9.35 C 8.41 g/m*3 9.35 C 0 km/h
269 21-08-2014 04:00:00 8.90833 C 8.26 g/m*3 8.91 C 0 km/h
270 21-08-2014 05:00:00 8.54167 C 8.13 g/m*3 8.54 C 0 km/h
271 21-08-2014 06:00:00 8.2 C 7.96 g/m*3 8.2 C 0.13333 km/h
272 21-08-2014 07:00:00 8.20833 C 8.04 g/m*3 8.21 C 0.13333 km/h
273 21-08-2014 08:00:00 8.76667 C 8.34 g/m*3 8.77 C 0.13333 km/h
274 21-08-2014 09:00:00 9.94167 C 8.92 g/m*3 9.94 C 0.4 km/h
275 21-08-2014 10:00:00 12.58333 C 9.44 g/m*3 12.58 C 6.70833 km/h
Sensor: Nr:Datum:Temp:Abs-Feuchte:Windchill:Wind:
Aussen-T/F 276 21-08-2014 11:00:00 14.55833 C 9.54 g/m*3 14.56 C 3.61667 km/h
277 21-08-2014 12:00:00 16.725 C 9.87 g/m*3 16.73 C 5.75833 km/h
278 21-08-2014 13:00:00 15.10833 C 10.4 g/m*3 15.11 C 1.475 km/h
279 21-08-2014 14:00:00 17.36667 C 9.68 g/m*3 17.37 C 3.48333 km/h
280 21-08-2014 15:00:00 17.75833 C 9.83 g/m*3 17.76 C 4.825 km/h
281 21-08-2014 16:00:00 18.6 C 9.97 g/m*3 18.6 C 4.13333 km/h
282 21-08-2014 17:00:00 18.75833 C 9.64 g/m*3 18.76 C 7.39167 km/h
283 21-08-2014 18:00:00 17.5 C 10.27 g/m*3 17.5 C 2 km/h
284 21-08-2014 19:00:00 14.91667 C 10.13 g/m*3 14.92 C 2.66667 km/h
285 21-08-2014 20:00:00 14.125 C 9.94 g/m*3 14.13 C 1.2 km/h
286 21-08-2014 21:00:00 13.75833 C 9.86 g/m*3 13.76 C 0.13333 km/h
287 21-08-2014 22:00:00 12.98333 C 9.67 g/m*3 12.98 C 0 km/h
288 21-08-2014 23:00:00 11.94167 C 9.26 g/m*3 11.94 C 0 km/h
289 22-08-2014 00:00:00 11 C 8.87 g/m*3 11 C 0 km/h
290 22-08-2014 01:00:00 10.16667 C 8.57 g/m*3 10.17 C 0 km/h
291 22-08-2014 02:00:00 9.36667 C 8.24 g/m*3 9.37 C 0 km/h
292 22-08-2014 03:00:00 8.76667 C 8.06 g/m*3 8.77 C 0 km/h
293 22-08-2014 04:00:00 8.25833 C 7.85 g/m*3 8.26 C 0 km/h
294 22-08-2014 05:00:00 8.31667 C 7.96 g/m*3 8.32 C 0 km/h
295 22-08-2014 06:00:00 9.06667 C 8.28 g/m*3 9.07 C 0 km/h
296 22-08-2014 07:00:00 10 C 8.56 g/m*3 10 C 0 km/h
297 22-08-2014 08:00:00 11.28333 C 8.76 g/m*3 11.28 C 3.35 km/h
298 22-08-2014 09:00:00 12.725 C 9.12 g/m*3 12.73 C 6.99167 km/h
299 22-08-2014 10:00:00 14.53333 C 9.66 g/m*3 14.53 C 5.61667 km/h
300 22-08-2014 11:00:00 17.275 C 9.52 g/m*3 17.27 C 10.63333 km/h
Sensor: Nr:Datum:Temp:Abs-Feuchte:Windchill:Wind:
Aussen-T/F 301 22-08-2014 12:00:00 18.23333 C 9.15 g/m*3 18.23 C 13.16667 km/h
302 22-08-2014 13:00:00 18.63333 C 9.13 g/m*3 18.63 C 13.03333 km/h
303 22-08-2014 14:00:00 18.51667 C 9.12 g/m*3 18.52 C 10.1 km/h
304 22-08-2014 15:00:00 18.81667 C 9.89 g/m*3 18.82 C 6.04167 km/h
305 22-08-2014 16:00:00 18.76667 C 10.14 g/m*3 18.77 C 7.65 km/h
306 22-08-2014 17:00:00 17.35 C 10.95 g/m*3 17.35 C 1.2 km/h
307 22-08-2014 18:00:00 18.89167 C 10.57 g/m*3 18.89 C 4.7 km/h
308 22-08-2014 19:00:00 17.70833 C 10.91 g/m*3 17.71 C 2.26667 km/h
309 22-08-2014 20:00:00 15.975 C 10.49 g/m*3 15.98 C 2 km/h
310 22-08-2014 21:00:00 14.75833 C 10.4 g/m*3 14.76 C 0.26667 km/h
311 22-08-2014 22:00:00 14.23333 C 10.32 g/m*3 14.23 C 0 km/h
312 22-08-2014 23:00:00 14.33333 C 10.52 g/m*3 14.33 C 0 km/h
313 23-08-2014 00:00:00 14.49167 C 10.27 g/m*3 14.49 C 0 km/h
314 23-08-2014 01:00:00 13.70833 C 10.27 g/m*3 13.71 C 0 km/h
315 23-08-2014 02:00:00 13.925 C 10.3 g/m*3 13.93 C 0 km/h
316 23-08-2014 03:00:00 13.93333 C 10.33 g/m*3 13.93 C 2.275 km/h
317 23-08-2014 04:00:00 13.81667 C 10.32 g/m*3 13.82 C 4.14167 km/h
318 23-08-2014 05:00:00 13.58333 C 10.37 g/m*3 13.58 C 3.20833 km/h
319 23-08-2014 06:00:00 13.28333 C 10.45 g/m*3 13.28 C 2.4 km/h
320 23-08-2014 07:00:00 13.04167 C 10.43 g/m*3 13.04 C 0.26667 km/h
321 23-08-2014 08:00:00 13.79167 C 10.61 g/m*3 13.79 C 5.35833 km/h
322 23-08-2014 09:00:00 14.85 C 10.58 g/m*3 14.85 C 10.49167 km/h
323 23-08-2014 10:00:00 16.18333 C 10.26 g/m*3 16.18 C 11.83333 km/h
324 23-08-2014 11:00:00 17.21667 C 9.61 g/m*3 17.22 C 12.5 km/h
325 23-08-2014 12:00:00 18.2 C 9.26 g/m*3 18.2 C 13.3 km/h
Sensor: Nr:Datum:Temp:Abs-Feuchte:Windchill:Wind:
Aussen-T/F 326 23-08-2014 13:00:00 18.79167 C 9.43 g/m*3 18.79 C 13.96667 km/h
327 23-08-2014 14:00:00 19.23333 C 9.64 g/m*3 19.23 C 13.7 km/h
328 23-08-2014 15:00:00 16.38333 C 10.04 g/m*3 16.38 C 6.55833 km/h
329 23-08-2014 16:00:00 14.05833 C 10.43 g/m*3 14.06 C 2.13333 km/h
330 23-08-2014 17:00:00 12.85 C 10.21 g/m*3 12.85 C 4.825 km/h
331 23-08-2014 18:00:00 13.79167 C 10.74 g/m*3 13.79 C 1.6 km/h
332 23-08-2014 19:00:00 12.54167 C 10.36 g/m*3 12.54 C 0.93333 km/h
333 23-08-2014 20:00:00 11.85833 C 9.89 g/m*3 11.86 C 1.73333 km/h
334 23-08-2014 21:00:00 11.35833 C 9.73 g/m*3 11.36 C 1.33333 km/h
335 23-08-2014 22:00:00 11.05833 C 9.55 g/m*3 11.06 C 1.06667 km/h
336 23-08-2014 23:00:00 10.5 C 9.3 g/m*3 10.5 C 0.4 km/h
337 24-08-2014 00:00:00 10.06667 C 9.06 g/m*3 10.07 C 0.26667 km/h
338 24-08-2014 01:00:00 9.725 C 8.88 g/m*3 9.73 C 0.66667 km/h
339 24-08-2014 02:00:00 10.26667 C 9.23 g/m*3 9.8 C 5.90833 km/h
340 24-08-2014 03:00:00 10.33333 C 9.09 g/m*3 10.33 C 0.8 km/h
341 24-08-2014 04:00:00 9.80833 C 8.91 g/m*3 9.81 C 0.53333 km/h
342 24-08-2014 05:00:00 8.95 C 8.44 g/m*3 8.95 C 0.26667 km/h
343 24-08-2014 06:00:00 8.90833 C 8.42 g/m*3 8.91 C 1.33333 km/h
344 24-08-2014 07:00:00 9.53333 C 8.7 g/m*3 9.53 C 2.93333 km/h
345 24-08-2014 08:00:00 10.06667 C 8.82 g/m*3 10.07 C 4.30833 km/h
346 24-08-2014 09:00:00 11.16667 C 9.11 g/m*3 11.17 C 8.89167 km/h
347 24-08-2014 10:00:00 11.93333 C 9.28 g/m*3 11.93 C 11.95833 km/h
348 24-08-2014 11:00:00 13.25833 C 9.55 g/m*3 13.26 C 11.3 km/h
349 24-08-2014 12:00:00 14.70833 C 9.92 g/m*3 14.71 C 8.59167 km/h
350 24-08-2014 13:00:00 15.66667 C 9.94 g/m*3 15.67 C 10.33333 km/h
Sensor: Nr:Datum:Temp:Abs-Feuchte:Windchill:Wind:
Aussen-T/F 351 24-08-2014 14:00:00 10.76667 C 9.38 g/m*3 10.77 C 1.06667 km/h
352 24-08-2014 15:00:00 12.69167 C 10.79 g/m*3 12.69 C 0.26667 km/h
353 24-08-2014 16:00:00 13.76667 C 11.42 g/m*3 13.77 C 0.13333 km/h
354 24-08-2014 17:00:00 13.275 C 11.11 g/m*3 13.28 C 1.2 km/h
355 24-08-2014 18:00:00 13.51667 C 11.3 g/m*3 13.52 C 0.4 km/h
356 24-08-2014 19:00:00 13.575 C 11.25 g/m*3 13.58 C 0.13333 km/h
357 24-08-2014 20:00:00 12.74167 C 10.76 g/m*3 12.74 C 0.66667 km/h
358 24-08-2014 21:00:00 11.675 C 10.11 g/m*3 11.68 C 0.26667 km/h
359 24-08-2014 22:00:00 11.225 C 9.85 g/m*3 11.23 C 0 km/h
360 24-08-2014 23:00:00 10.53333 C 9.43 g/m*3 10.53 C 0 km/h
361 25-08-2014 00:00:00 10.38333 C 9.34 g/m*3 10.38 C 0 km/h
362 25-08-2014 01:00:00 10.23333 C 9.34 g/m*3 10.23 C 0 km/h
363 25-08-2014 02:00:00 10.3 C 9.39 g/m*3 10.3 C 0 km/h
364 25-08-2014 03:00:00 10.3 C 9.39 g/m*3 10.3 C 0 km/h
365 25-08-2014 04:00:00 10.21667 C 9.34 g/m*3 10.22 C 0 km/h
366 25-08-2014 05:00:00 10.025 C 9.22 g/m*3 10.03 C 0 km/h
367 25-08-2014 06:00:00 9.75 C 9.06 g/m*3 9.75 C 0 km/h
368 25-08-2014 07:00:00 9.925 C 9.16 g/m*3 9.93 C 0 km/h
369 25-08-2014 08:00:00 10.45 C 9.47 g/m*3 10.45 C 0.26667 km/h
370 25-08-2014 09:00:00 11.16667 C 9.91 g/m*3 11.17 C 0 km/h
371 25-08-2014 10:00:00 12.775 C 10.96 g/m*3 12.78 C 0 km/h
372 25-08-2014 11:00:00 14.25833 C 11.95 g/m*3 14.26 C 0.26667 km/h
373 25-08-2014 12:00:00 15.80833 C 12.11 g/m*3 15.81 C 4.96667 km/h
374 25-08-2014 13:00:00 18.45833 C 11.44 g/m*3 18.46 C 10.88333 km/h
375 25-08-2014 14:00:00 18.25 C 11.64 g/m*3 18.25 C 6.58333 km/h
Sensor: Nr:Datum:Temp:Abs-Feuchte:Windchill:Wind:
Aussen-T/F 376 25-08-2014 15:00:00 16.41667 C 12.32 g/m*3 16.42 C 1.06667 km/h
377 25-08-2014 16:00:00 16.325 C 11.98 g/m*3 16.33 C 6.175 km/h
378 25-08-2014 17:00:00 16.04167 C 12.13 g/m*3 16.04 C 1.73333 km/h
379 25-08-2014 18:00:00 15.39167 C 12.27 g/m*3 15.39 C 0 km/h
380 25-08-2014 19:00:00 14.91667 C 12.17 g/m*3 14.92 C 0 km/h
381 25-08-2014 20:00:00 14.44167 C 11.9 g/m*3 14.44 C 0 km/h
382 25-08-2014 21:00:00 14.2 C 11.84 g/m*3 14.2 C 0 km/h
383 25-08-2014 22:00:00 14.00833 C 11.71 g/m*3 14.01 C 0 km/h
384 25-08-2014 23:00:00 13.68333 C 11.47 g/m*3 13.68 C 0.13333 km/h
385 26-08-2014 00:00:00 13.39167 C 11.27 g/m*3 13.39 C 0 km/h
386 26-08-2014 01:00:00 13.15 C 11.1 g/m*3 13.15 C 0.26667 km/h
387 26-08-2014 02:00:00 12.9 C 11.02 g/m*3 12.9 C 0.53333 km/h
388 26-08-2014 03:00:00 12.81667 C 10.94 g/m*3 12.82 C 0 km/h
389 26-08-2014 04:00:00 12.79167 C 10.97 g/m*3 12.79 C 0.26667 km/h
390 26-08-2014 05:00:00 12.7 C 10.91 g/m*3 12.7 C 0 km/h
391 26-08-2014 06:00:00 12.7 C 10.91 g/m*3 12.7 C 0 km/h
392 26-08-2014 07:00:00 12.78333 C 10.97 g/m*3 12.78 C 0 km/h
393 26-08-2014 08:00:00 13.1 C 11.18 g/m*3 13.1 C 0.13333 km/h
394 26-08-2014 09:00:00 14.13333 C 11.92 g/m*3 14.13 C 0.4 km/h
395 26-08-2014 10:00:00 15.70833 C 13.13 g/m*3 15.71 C 1.86667 km/h
396 26-08-2014 11:00:00 16.45 C 13.47 g/m*3 16.45 C 3.61667 km/h
397 26-08-2014 12:00:00 16.475 C 13.53 g/m*3 16.48 C 1.33333 km/h
398 26-08-2014 13:00:00 17.31667 C 14.07 g/m*3 17.32 C 2.675 km/h
399 26-08-2014 14:00:00 17.525 C 13.71 g/m*3 17.52 C 3.075 km/h
400 26-08-2014 15:00:00 17.425 C 14.1 g/m*3 17.43 C 1.46667 km/h
Sensor: Nr:Datum:Temp:Abs-Feuchte:Windchill:Wind:
Aussen-T/F 401 26-08-2014 16:00:00 16.73333 C 13.66 g/m*3 16.73 C 0.53333 km/h
402 26-08-2014 17:00:00 16.44167 C 13.51 g/m*3 16.44 C 0 km/h
403 26-08-2014 18:00:00 16.43333 C 13.57 g/m*3 16.43 C 0 km/h
404 26-08-2014 19:00:00 16.06667 C 13.27 g/m*3 16.07 C 0.13333 km/h
405 26-08-2014 20:00:00 15.34167 C 12.69 g/m*3 15.34 C 1.33333 km/h
406 26-08-2014 21:00:00 14.49167 C 12.06 g/m*3 14.49 C 2.66667 km/h
407 26-08-2014 22:00:00 14.24167 C 11.87 g/m*3 14.24 C 0.4 km/h
408 26-08-2014 23:00:00 13.95833 C 11.67 g/m*3 13.96 C 0.93333 km/h
409 27-08-2014 00:00:00 13.80833 C 11.61 g/m*3 13.81 C 0.66667 km/h
410 27-08-2014 01:00:00 13.64167 C 11.53 g/m*3 13.64 C 0 km/h
411 27-08-2014 02:00:00 13.59167 C 11.53 g/m*3 13.59 C 0 km/h
412 27-08-2014 03:00:00 13.55833 C 11.5 g/m*3 13.56 C 0 km/h
413 27-08-2014 04:00:00 13.4 C 11.39 g/m*3 13.4 C 0 km/h
414 27-08-2014 05:00:00 13.18333 C 11.24 g/m*3 13.18 C 0 km/h
415 27-08-2014 06:00:00 12.63333 C 10.86 g/m*3 12.63 C 0 km/h
416 27-08-2014 07:00:00 12.33333 C 10.66 g/m*3 12.33 C 0 km/h
417 27-08-2014 08:00:00 13.28182 C 11.39 g/m*3 13.28 C 0 km/h
418 27-08-2014 09:00:00 13.425 C 11.41 g/m*3 13.43 C 0 km/h
419 27-08-2014 10:00:00 14.325 C 11.98 g/m*3 14.33 C 0 km/h
420 27-08-2014 11:00:00 15.475 C 11.85 g/m*3 15.48 C 3.46667 km/h
421 27-08-2014 12:00:00 16.04167 C 12.26 g/m*3 16.04 C 2.00833 km/h
422 27-08-2014 13:00:00 18.08333 C 12.41 g/m*3 18.08 C 3.2 km/h
423 27-08-2014 14:00:00 18.33333 C 13.03 g/m*3 18.33 C 3.75 km/h
424 27-08-2014 15:00:00 20.79167 C 12.34 g/m*3 20.79 C 4.4 km/h
425 27-08-2014 16:00:00 20.48333 C 12.7 g/m*3 20.48 C 1.86667 km/h
Sensor: Nr:Datum:Temp:Abs-Feuchte:Windchill:Wind:
Aussen-T/F 426 27-08-2014 17:00:00 19.31667 C 13.13 g/m*3 19.32 C 1.86667 km/h
427 27-08-2014 18:00:00 17.325 C 13.27 g/m*3 17.33 C 0.13333 km/h
428 27-08-2014 19:00:00 16.75 C 12.9 g/m*3 16.75 C 0.26667 km/h
429 27-08-2014 20:00:00 15.01667 C 11.96 g/m*3 15.02 C 0.53333 km/h
430 27-08-2014 21:00:00 14.61667 C 11.88 g/m*3 14.62 C 0 km/h
431 27-08-2014 22:00:00 14.05833 C 11.47 g/m*3 14.06 C 0 km/h
432 27-08-2014 23:00:00 13.35833 C 11.04 g/m*3 13.36 C 0 km/h
433 28-08-2014 00:00:00 12.78333 C 10.74 g/m*3 12.78 C 0 km/h
434 28-08-2014 01:00:00 12.4 C 10.59 g/m*3 12.4 C 0 km/h
435 28-08-2014 02:00:00 12.13333 C 10.42 g/m*3 12.13 C 0 km/h
436 28-08-2014 03:00:00 12.09167 C 10.4 g/m*3 12.09 C 0 km/h
437 28-08-2014 04:00:00 11.75 C 10.19 g/m*3 11.75 C 0 km/h
438 28-08-2014 05:00:00 11.73333 C 10.19 g/m*3 11.73 C 0 km/h
439 28-08-2014 06:00:00 11.69167 C 10.24 g/m*3 11.69 C 0 km/h
440 28-08-2014 07:00:00 11.61667 C 10.19 g/m*3 11.62 C 0 km/h
441 28-08-2014 08:00:00 11.875 C 10.36 g/m*3 11.88 C 0 km/h
442 28-08-2014 09:00:00 12.79167 C 10.97 g/m*3 12.79 C 0 km/h
443 28-08-2014 10:00:00 14.7 C 12.34 g/m*3 14.7 C 0 km/h
444 28-08-2014 11:00:00 16.75 C 13.68 g/m*3 16.75 C 2 km/h
445 28-08-2014 12:00:00 19.64167 C 14.55 g/m*3 19.64 C 0.66667 km/h
446 28-08-2014 13:00:00 19.575 C 14.65 g/m*3 19.58 C 0.53333 km/h
447 28-08-2014 14:00:00 21.4 C 15.3 g/m*3 21.4 C 2.14167 km/h
448 28-08-2014 15:00:00 21.15 C 14.58 g/m*3 21.15 C 3.475 km/h
449 28-08-2014 16:00:00 20.59167 C 15.15 g/m*3 20.59 C 0.66667 km/h
450 28-08-2014 17:00:00 19.975 C 14.67 g/m*3 19.98 C 2.13333 km/h
Sensor: Nr:Datum:Temp:Abs-Feuchte:Windchill:Wind:
Aussen-T/F 451 28-08-2014 18:00:00 19.50833 C 14.97 g/m*3 19.51 C 0.53333 km/h
452 28-08-2014 19:00:00 18.60833 C 14.73 g/m*3 18.61 C 0 km/h
453 28-08-2014 20:00:00 17.61667 C 14.05 g/m*3 17.62 C 0 km/h
454 28-08-2014 21:00:00 16.8 C 13.65 g/m*3 16.8 C 0.13333 km/h
455 28-08-2014 22:00:00 16.74167 C 13.68 g/m*3 16.74 C 0 km/h
456 28-08-2014 23:00:00 16.25 C 13.31 g/m*3 16.25 C 0 km/h
457 29-08-2014 00:00:00 16.11667 C 13.25 g/m*3 16.12 C 0 km/h
458 29-08-2014 01:00:00 16.05833 C 13.26 g/m*3 16.06 C 0 km/h
459 29-08-2014 02:00:00 16.125 C 13.32 g/m*3 16.13 C 0.13333 km/h
460 29-08-2014 03:00:00 16.33333 C 13.48 g/m*3 16.33 C 0 km/h
461 29-08-2014 04:00:00 16.3 C 13.46 g/m*3 16.3 C 0 km/h
462 29-08-2014 05:00:00 16.00833 C 13.22 g/m*3 16.01 C 0 km/h
463 29-08-2014 06:00:00 15.875 C 13.12 g/m*3 15.88 C 0 km/h
464 29-08-2014 07:00:00 15.725 C 13 g/m*3 15.73 C 0 km/h
465 29-08-2014 08:00:00 16 C 13.17 g/m*3 16 C 0.26667 km/h
466 29-08-2014 09:00:00 17.15833 C 13.32 g/m*3 17.16 C 3.06667 km/h
467 29-08-2014 10:00:00 17.98333 C 13.41 g/m*3 17.98 C 2.675 km/h
468 29-08-2014 11:00:00 18.49167 C 13.35 g/m*3 18.49 C 3.75 km/h
469 29-08-2014 12:00:00 20.08333 C 13.79 g/m*3 20.08 C 3.48333 km/h
470 29-08-2014 13:00:00 22.30833 C 14.13 g/m*3 22.31 C 6.725 km/h
471 29-08-2014 14:00:00 23.80833 C 13.42 g/m*3 23.81 C 7.38333 km/h
472 29-08-2014 15:00:00 23.5 C 13.83 g/m*3 23.5 C 7.25 km/h
473 29-08-2014 16:00:00 22.725 C 14.16 g/m*3 22.73 C 9.8 km/h
474 29-08-2014 17:00:00 20.74167 C 14.38 g/m*3 20.74 C 6.58333 km/h
475 29-08-2014 18:00:00 19.06667 C 14.23 g/m*3 19.07 C 3.36667 km/h
Sensor: Nr:Datum:Temp:Abs-Feuchte:Windchill:Wind:
Aussen-T/F 476 29-08-2014 19:00:00 18.05 C 14.39 g/m*3 18.05 C 0.26667 km/h
477 29-08-2014 20:00:00 16.975 C 13.74 g/m*3 16.98 C 0 km/h
478 29-08-2014 21:00:00 16.33333 C 13.35 g/m*3 16.33 C 0 km/h
479 29-08-2014 22:00:00 15.96667 C 13.14 g/m*3 15.97 C 0.4 km/h
480 29-08-2014 23:00:00 15.53333 C 12.85 g/m*3 15.53 C 0 km/h
481 30-08-2014 00:00:00 15.36667 C 12.72 g/m*3 15.37 C 0 km/h
482 30-08-2014 01:00:00 14.54167 C 12.1 g/m*3 14.54 C 0 km/h
483 30-08-2014 02:00:00 14.475 C 12.08 g/m*3 14.48 C 0 km/h
484 30-08-2014 03:00:00 14.1 C 11.78 g/m*3 14.1 C 0 km/h
485 30-08-2014 04:00:00 13.475 C 11.33 g/m*3 13.48 C 0 km/h
486 30-08-2014 05:00:00 13.06667 C 11.09 g/m*3 13.07 C 0 km/h
487 30-08-2014 06:00:00 13.29167 C 11.31 g/m*3 13.29 C 0 km/h
488 30-08-2014 07:00:00 13.63333 C 11.47 g/m*3 13.63 C 0.4 km/h
489 30-08-2014 08:00:00 14.175 C 11.77 g/m*3 14.18 C 4.55 km/h
490 30-08-2014 09:00:00 15.44167 C 12.21 g/m*3 15.44 C 6.575 km/h
491 30-08-2014 10:00:00 17.075 C 12.62 g/m*3 17.08 C 5.49167 km/h
492 30-08-2014 11:00:00 17.98333 C 12.71 g/m*3 17.98 C 4.15 km/h
493 30-08-2014 12:00:00 19.425 C 12.71 g/m*3 19.43 C 8.48333 km/h
494 30-08-2014 13:00:00 19.78333 C 13 g/m*3 19.78 C 6.03333 km/h
495 30-08-2014 14:00:00 20.575 C 13.08 g/m*3 20.58 C 7.65833 km/h
496 30-08-2014 15:00:00 21.125 C 13.07 g/m*3 21.13 C 10.33333 km/h
497 30-08-2014 16:00:00 19.40833 C 13.05 g/m*3 19.41 C 4.15 km/h
498 30-08-2014 17:00:00 16.825 C 13.33 g/m*3 16.83 C 1.875 km/h
499 30-08-2014 18:00:00 16.475 C 13.4 g/m*3 16.48 C 0.4 km/h
500 30-08-2014 19:00:00 16.26667 C 13.29 g/m*3 16.27 C 0 km/h
Sensor: Nr:Datum:Temp:Abs-Feuchte:Windchill:Wind:
Aussen-T/F 501 30-08-2014 20:00:00 15.89167 C 13.08 g/m*3 15.89 C 0.13333 km/h
502 30-08-2014 21:00:00 15.73333 C 13 g/m*3 15.73 C 0 km/h
503 30-08-2014 22:00:00 15.775 C 13.04 g/m*3 15.78 C 0 km/h
504 30-08-2014 23:00:00 15.68333 C 13.02 g/m*3 15.68 C 2.425 km/h
505 31-08-2014 00:00:00 15.125 C 12.17 g/m*3 15.13 C 3.625 km/h
506 31-08-2014 01:00:00 14.65 C 12.05 g/m*3 14.65 C 0 km/h
507 31-08-2014 02:00:00 14.475 C 12.05 g/m*3 14.48 C 0 km/h
508 31-08-2014 03:00:00 14.375 C 11.97 g/m*3 14.38 C 0 km/h
509 31-08-2014 04:00:00 14.275 C 11.9 g/m*3 14.28 C 0 km/h
510 31-08-2014 05:00:00 13.90833 C 11.63 g/m*3 13.91 C 0 km/h
511 31-08-2014 06:00:00 13.76667 C 11.53 g/m*3 13.77 C 0 km/h
512 31-08-2014 07:00:00 13.85833 C 11.6 g/m*3 13.86 C 0 km/h
513 31-08-2014 08:00:00 13.9 C 11.63 g/m*3 13.9 C 0 km/h
514 31-08-2014 09:00:00 15 C 11.86 g/m*3 15 C 0.8 km/h
515 31-08-2014 10:00:00 16.275 C 11.73 g/m*3 16.27 C 4.14167 km/h
516 31-08-2014 11:00:00 17.25833 C 11.99 g/m*3 17.26 C 2.4 km/h
517 31-08-2014 12:00:00 17.51667 C 11.8 g/m*3 17.52 C 8.2 km/h
518 31-08-2014 13:00:00 18.06667 C 11.91 g/m*3 18.07 C 10.09167 km/h
519 31-08-2014 14:00:00 17.99167 C 12.14 g/m*3 17.99 C 3.35 km/h
520 31-08-2014 15:00:00 14.69167 C 11.37 g/m*3 14.69 C 2.55 km/h
521 31-08-2014 16:00:00 14.5 C 11.85 g/m*3 14.5 C 0 km/h
522 31-08-2014 17:00:00 14.09167 C 11.66 g/m*3 14.09 C 0 km/h
523 31-08-2014 18:00:00 13.81667 C 11.56 g/m*3 13.82 C 0 km/h
524 31-08-2014 19:00:00 13.74167 C 11.52 g/m*3 13.74 C 0 km/h
525 31-08-2014 20:00:00 13.38333 C 11.26 g/m*3 13.38 C 0.4 km/h
Sensor: Nr:Datum:Temp:Abs-Feuchte:Windchill:Wind:
Aussen-T/F 526 31-08-2014 21:00:00 13.175 C 11.12 g/m*3 13.18 C 0.8 km/h
527 31-08-2014 22:00:00 12.53333 C 10.69 g/m*3 12.53 C 0 km/h
528 31-08-2014 23:00:00 12.44167 C 10.69 g/m*3 12.44 C 0 km/h
529 01-09-2014 00:00:00 12.45 C 10.74 g/m*3 12.45 C 0 km/h
530 01-09-2014 01:00:00 12.4 C 10.71 g/m*3 12.4 C 0 km/h
531 01-09-2014 02:00:00 12.70833 C 10.91 g/m*3 12.71 C 0 km/h
532 01-09-2014 03:00:00 12.8 C 10.98 g/m*3 12.8 C 2.26667 km/h
533 01-09-2014 04:00:00 12.80833 C 10.98 g/m*3 12.81 C 0.4 km/h
534 01-09-2014 05:00:00 12.73333 C 10.93 g/m*3 12.73 C 0 km/h
535 01-09-2014 06:00:00 12.7 C 10.91 g/m*3 12.7 C 0 km/h
536 01-09-2014 07:00:00 12.76667 C 10.95 g/m*3 12.77 C 0 km/h
537 01-09-2014 08:00:00 13.225 C 11.25 g/m*3 13.23 C 0 km/h
538 01-09-2014 09:00:00 14.04167 C 11.39 g/m*3 14.04 C 2.66667 km/h
539 01-09-2014 10:00:00 14.825 C 11.29 g/m*3 14.83 C 2.66667 km/h
540 01-09-2014 11:00:00 16.00833 C 11.35 g/m*3 16.01 C 6.16667 km/h
541 01-09-2014 12:00:00 16.49167 C 11.38 g/m*3 16.49 C 4.26667 km/h
542 01-09-2014 13:00:00 17.33333 C 11.85 g/m*3 17.33 C 2 km/h
543 01-09-2014 14:00:00 18.03333 C 11.73 g/m*3 18.03 C 4.54167 km/h
544 01-09-2014 15:00:00 18.75833 C 11.66 g/m*3 18.76 C 3.06667 km/h
545 01-09-2014 16:00:00 17.325 C 12.38 g/m*3 17.33 C 0.53333 km/h
546 01-09-2014 17:00:00 15.90833 C 12.33 g/m*3 15.91 C 0 km/h
547 01-09-2014 18:00:00 15.84167 C 12.44 g/m*3 15.84 C 0 km/h
548 01-09-2014 19:00:00 15.3 C 12.25 g/m*3 15.3 C 0 km/h
549 01-09-2014 20:00:00 14.79167 C 11.88 g/m*3 14.79 C 0.4 km/h
550 01-09-2014 21:00:00 14.45833 C 11.65 g/m*3 14.46 C 0.13333 km/h
Sensor: Nr:Datum:Temp:Abs-Feuchte:Windchill:Wind:
Aussen-T/F 551 01-09-2014 22:00:00 13.80833 C 11.19 g/m*3 13.81 C 0 km/h
552 01-09-2014 23:00:00 13.01667 C 10.77 g/m*3 13.02 C 0 km/h
553 02-09-2014 00:00:00 12.71667 C 10.75 g/m*3 12.72 C 0 km/h
554 02-09-2014 01:00:00 12.45833 C 10.54 g/m*3 12.46 C 0 km/h
555 02-09-2014 02:00:00 11.70833 C 10.1 g/m*3 11.71 C 0 km/h
556 02-09-2014 03:00:00 11.375 C 9.94 g/m*3 11.38 C 0 km/h
557 02-09-2014 04:00:00 11.33333 C 9.91 g/m*3 11.33 C 0 km/h
558 02-09-2014 05:00:00 11.26667 C 9.9 g/m*3 11.27 C 0 km/h
559 02-09-2014 06:00:00 11.01667 C 9.74 g/m*3 11.02 C 0 km/h
560 02-09-2014 07:00:00 10.775 C 9.64 g/m*3 10.78 C 0 km/h
561 02-09-2014 08:00:00 10.85 C 9.72 g/m*3 10.85 C 0 km/h
562 02-09-2014 09:00:00 11.20833 C 9.94 g/m*3 11.21 C 0 km/h
563 02-09-2014 10:00:00 11.95 C 10.41 g/m*3 11.95 C 0 km/h
564 02-09-2014 11:00:00 13.73333 C 11.32 g/m*3 13.73 C 0 km/h
565 02-09-2014 12:00:00 15.81667 C 12.08 g/m*3 15.82 C 1.075 km/h
566 02-09-2014 13:00:00 20.025 C 12.16 g/m*3 20.02 C 8.45833 km/h
567 02-09-2014 14:00:00 20.84167 C 11.47 g/m*3 20.84 C 6.70833 km/h
568 02-09-2014 15:00:00 21.725 C 11.83 g/m*3 21.73 C 6.30833 km/h
569 02-09-2014 16:00:00 18.8 C 13.09 g/m*3 18.8 C 1.46667 km/h
570 02-09-2014 17:00:00 17.69167 C 13.22 g/m*3 17.69 C 0.93333 km/h
571 02-09-2014 18:00:00 17.09167 C 13.03 g/m*3 17.09 C 0.4 km/h
572 02-09-2014 19:00:00 16.45 C 12.88 g/m*3 16.45 C 0 km/h
573 02-09-2014 20:00:00 16.24167 C 12.85 g/m*3 16.24 C 0 km/h
574 02-09-2014 21:00:00 15.61667 C 12.44 g/m*3 15.62 C 0 km/h
575 02-09-2014 22:00:00 15.40833 C 12.48 g/m*3 15.41 C 0 km/h
Sensor: Nr:Datum:Temp:Abs-Feuchte:Windchill:Wind:
Aussen-T/F 576 02-09-2014 23:00:00 14.75833 C 11.98 g/m*3 14.76 C 0 km/h
577 03-09-2014 00:00:00 14.725 C 12.15 g/m*3 14.73 C 0 km/h
578 03-09-2014 01:00:00 14.98333 C 12.39 g/m*3 14.98 C 0 km/h
579 03-09-2014 02:00:00 15 C 12.36 g/m*3 15 C 0 km/h
580 03-09-2014 03:00:00 14.24167 C 11.75 g/m*3 14.24 C 0 km/h
581 03-09-2014 04:00:00 13.29167 C 11.05 g/m*3 13.29 C 0 km/h
582 03-09-2014 05:00:00 12.475 C 10.54 g/m*3 12.48 C 0 km/h
583 03-09-2014 06:00:00 12.00833 C 10.24 g/m*3 12.01 C 0 km/h
584 03-09-2014 07:00:00 11.725 C 10.08 g/m*3 11.73 C 0 km/h
585 03-09-2014 08:00:00 12.56667 C 10.67 g/m*3 12.57 C 0.26667 km/h
586 03-09-2014 09:00:00 13.875 C 10.75 g/m*3 13.88 C 1.86667 km/h
587 03-09-2014 10:00:00 15.06667 C 10.78 g/m*3 15.07 C 3.48333 km/h
588 03-09-2014 11:00:00 16.00833 C 10.78 g/m*3 16.01 C 6.975 km/h
589 03-09-2014 12:00:00 16.73333 C 11.06 g/m*3 16.73 C 7.25833 km/h
590 03-09-2014 13:00:00 16.85 C 11.16 g/m*3 16.85 C 7.8 km/h
591 03-09-2014 14:00:00 16.80833 C 11.35 g/m*3 16.81 C 7.24167 km/h
592 03-09-2014 15:00:00 16.85833 C 11.61 g/m*3 16.86 C 5.90833 km/h
593 03-09-2014 16:00:00 17.28333 C 11.96 g/m*3 17.28 C 2.66667 km/h
594 03-09-2014 17:00:00 16.74167 C 12.5 g/m*3 16.74 C 0 km/h
595 03-09-2014 18:00:00 16.3 C 12.75 g/m*3 16.3 C 0 km/h
596 03-09-2014 19:00:00 16.08333 C 12.64 g/m*3 16.08 C 0 km/h
597 03-09-2014 20:00:00 15.575 C 12.23 g/m*3 15.58 C 0 km/h
598 03-09-2014 21:00:00 15.25 C 12.09 g/m*3 15.25 C 0 km/h
599 03-09-2014 22:00:00 15.16667 C 12.05 g/m*3 15.17 C 0 km/h
600 03-09-2014 23:00:00 15.175 C 12.09 g/m*3 15.18 C 0 km/h
Sensor: Nr:Datum:Temp:Abs-Feuchte:Windchill:Wind:
Aussen-T/F 601 04-09-2014 00:00:00 14.98333 C 11.93 g/m*3 14.98 C 0 km/h
602 04-09-2014 01:00:00 14.56667 C 11.6 g/m*3 14.57 C 0 km/h
603 04-09-2014 02:00:00 14.25833 C 11.51 g/m*3 14.26 C 0 km/h
604 04-09-2014 03:00:00 13.45 C 11.02 g/m*3 13.45 C 0 km/h
605 04-09-2014 04:00:00 13.34167 C 11.12 g/m*3 13.34 C 0 km/h
606 04-09-2014 05:00:00 13.64167 C 11.35 g/m*3 13.64 C 0 km/h
607 04-09-2014 06:00:00 13.88333 C 11.5 g/m*3 13.88 C 0 km/h
608 04-09-2014 07:00:00 14.31667 C 11.89 g/m*3 14.32 C 0 km/h
609 04-09-2014 08:00:00 15.01667 C 12.33 g/m*3 15.02 C 0 km/h
610 04-09-2014 09:00:00 16.05833 C 12.81 g/m*3 16.06 C 0 km/h
611 04-09-2014 10:00:00 18.06667 C 13.2 g/m*3 18.07 C 0 km/h
612 04-09-2014 11:00:00 19.38333 C 13.15 g/m*3 19.38 C 6.05 km/h
613 04-09-2014 12:00:00 19.81667 C 13.26 g/m*3 19.82 C 8.46667 km/h
614 04-09-2014 13:00:00 19.65 C 13.18 g/m*3 19.65 C 6.84167 km/h
615 04-09-2014 14:00:00 20.025 C 13.49 g/m*3 20.02 C 8.20833 km/h
616 04-09-2014 15:00:00 20.14167 C 13.5 g/m*3 20.14 C 4.825 km/h
617 04-09-2014 16:00:00 19.68333 C 13.49 g/m*3 19.68 C 2.28333 km/h
618 04-09-2014 17:00:00 19.05 C 14.06 g/m*3 19.05 C 0 km/h
619 04-09-2014 18:00:00 17.90833 C 13.94 g/m*3 17.91 C 0 km/h
620 04-09-2014 19:00:00 17.30833 C 13.71 g/m*3 17.31 C 0 km/h
621 04-09-2014 20:00:00 17.04167 C 13.6 g/m*3 17.04 C 0 km/h
622 04-09-2014 21:00:00 16.85 C 13.58 g/m*3 16.85 C 0 km/h
623 04-09-2014 22:00:00 16.8 C 13.58 g/m*3 16.8 C 0 km/h
624 04-09-2014 23:00:00 16.525 C 13.36 g/m*3 16.52 C 0 km/h
625 05-09-2014 00:00:00 16.01667 C 13.08 g/m*3 16.02 C 0 km/h
Sensor: Nr:Datum:Temp:Abs-Feuchte:Windchill:Wind:
Aussen-T/F 626 05-09-2014 01:00:00 15.7 C 12.92 g/m*3 15.7 C 0 km/h
627 05-09-2014 02:00:00 15.88333 C 13.12 g/m*3 15.88 C 0 km/h
628 05-09-2014 03:00:00 16 C 13.22 g/m*3 16 C 0 km/h
629 05-09-2014 04:00:00 15.93333 C 13.16 g/m*3 15.93 C 0 km/h
630 05-09-2014 05:00:00 15.88333 C 13.12 g/m*3 15.88 C 0 km/h
631 05-09-2014 06:00:00 15.70833 C 12.98 g/m*3 15.71 C 0 km/h
632 05-09-2014 07:00:00 15.70833 C 12.98 g/m*3 15.71 C 0 km/h
633 05-09-2014 08:00:00 16.11667 C 13.38 g/m*3 16.12 C 0 km/h
634 05-09-2014 09:00:00 16.7 C 13.71 g/m*3 16.7 C 0 km/h
635 05-09-2014 10:00:00 18.025 C 14.13 g/m*3 18.02 C 0 km/h
636 05-09-2014 11:00:00 19.48333 C 14.68 g/m*3 19.48 C 0 km/h
637 05-09-2014 12:00:00 20.23333 C 15.02 g/m*3 20.23 C 0 km/h
638 05-09-2014 13:00:00 22.45833 C 16.06 g/m*3 22.46 C 0 km/h
639 05-09-2014 14:00:00 22.61667 C 16.45 g/m*3 22.62 C 0 km/h
640 05-09-2014 15:00:00 22.25833 C 15.91 g/m*3 22.26 C 0 km/h
641 05-09-2014 16:00:00 22.15 C 16.07 g/m*3 22.15 C 0 km/h
642 05-09-2014 17:00:00 21.65833 C 16.1 g/m*3 21.66 C 0 km/h
643 05-09-2014 18:00:00 20.33333 C 15.43 g/m*3 20.33 C 0 km/h
644 05-09-2014 19:00:00 18.99167 C 14.67 g/m*3 18.99 C 0 km/h
645 05-09-2014 20:00:00 18.125 C 14.13 g/m*3 18.13 C 0 km/h
646 05-09-2014 21:00:00 17.29167 C 13.61 g/m*3 17.29 C 0 km/h
647 05-09-2014 22:00:00 16.56667 C 13.19 g/m*3 16.57 C 0 km/h
648 05-09-2014 23:00:00 15.975 C 12.88 g/m*3 15.98 C 0 km/h
649 06-09-2014 00:00:00 15.68333 C 12.81 g/m*3 15.68 C 0 km/h
650 06-09-2014 01:00:00 15.59167 C 12.76 g/m*3 15.59 C 0 km/h
Sensor: Nr:Datum:Temp:Abs-Feuchte:Windchill:Wind:
Aussen-T/F 651 06-09-2014 02:00:00 15.125 C 12.45 g/m*3 15.13 C 0 km/h
652 06-09-2014 03:00:00 14.73333 C 12.24 g/m*3 14.73 C 0 km/h
653 06-09-2014 04:00:00 14.11667 C 11.78 g/m*3 14.12 C 0 km/h
654 06-09-2014 05:00:00 13.925 C 11.69 g/m*3 13.93 C 0 km/h
655 06-09-2014 06:00:00 13.85 C 11.64 g/m*3 13.85 C 0 km/h
656 06-09-2014 07:00:00 13.76667 C 11.65 g/m*3 13.77 C 0 km/h
657 06-09-2014 08:00:00 13.96667 C 11.8 g/m*3 13.97 C 0 km/h
658 06-09-2014 09:00:00 14.39167 C 12.11 g/m*3 14.39 C 0 km/h
659 06-09-2014 10:00:00 15.13333 C 12.67 g/m*3 15.13 C 0 km/h
660 06-09-2014 11:00:00 17.11667 C 14.17 g/m*3 17.12 C 0 km/h
661 06-09-2014 12:00:00 19.25833 C 15.03 g/m*3 19.26 C 0 km/h
662 06-09-2014 13:00:00 20.925 C 16.08 g/m*3 20.93 C 0 km/h
663 06-09-2014 14:00:00 21.04167 C 15.9 g/m*3 21.04 C 0 km/h
664 06-09-2014 15:00:00 21.38333 C 16.3 g/m*3 21.38 C 0 km/h
665 06-09-2014 16:00:00 22.90833 C 15.81 g/m*3 22.91 C 1.2 km/h
666 06-09-2014 17:00:00 20.76667 C 15.89 g/m*3 20.77 C 0.66667 km/h
667 06-09-2014 18:00:00 23.55 C 16.6 g/m*3 23.55 C 0.26667 km/h
668 06-09-2014 19:00:00 20.86667 C 15.8 g/m*3 20.87 C 0.26667 km/h
669 06-09-2014 20:00:00 18.6 C 14.76 g/m*3 18.6 C 0 km/h
670 06-09-2014 21:00:00 17.99167 C 14.44 g/m*3 17.99 C 0 km/h
671 06-09-2014 22:00:00 17.325 C 13.95 g/m*3 17.33 C 0 km/h
672 06-09-2014 23:00:00 16.925 C 13.78 g/m*3 16.93 C 0 km/h
673 07-09-2014 00:00:00 16.6 C 13.56 g/m*3 16.6 C 0 km/h
674 07-09-2014 01:00:00 16.1 C 13.2 g/m*3 16.1 C 0 km/h
675 07-09-2014 02:00:00 15.925 C 13.16 g/m*3 15.93 C 0 km/h
Sensor: Nr:Datum:Temp:Abs-Feuchte:Windchill:Wind:
Aussen-T/F 676 07-09-2014 03:00:00 16.26667 C 13.43 g/m*3 16.27 C 1.33333 km/h
677 07-09-2014 04:00:00 16.35833 C 13.5 g/m*3 16.36 C 0.66667 km/h
678 07-09-2014 05:00:00 16.51667 C 13.56 g/m*3 16.52 C 0.66667 km/h
679 07-09-2014 06:00:00 16.75833 C 13.7 g/m*3 16.76 C 0.26667 km/h
680 07-09-2014 07:00:00 17.03333 C 13.91 g/m*3 17.03 C 0 km/h
681 07-09-2014 08:00:00 17.21667 C 13.91 g/m*3 17.22 C 0 km/h
682 07-09-2014 09:00:00 17.56667 C 13.68 g/m*3 17.57 C 2.4 km/h
683 07-09-2014 10:00:00 18.15 C 13.56 g/m*3 18.15 C 6.16667 km/h
684 07-09-2014 11:00:00 18 C 13.21 g/m*3 18 C 6.45 km/h
685 07-09-2014 12:00:00 18.51667 C 13.26 g/m*3 18.52 C 3.46667 km/h
686 07-09-2014 14:00:00 20.77143 C 14.54 g/m*3 20.77 C 3.9 km/h
687 07-09-2014 15:00:00 22.025 C 13.69 g/m*3 22.03 C 5.09167 km/h
688 07-09-2014 16:00:00 22.80833 C 13.82 g/m*3 22.81 C 3.73333 km/h
689 07-09-2014 17:00:00 23.125 C 13.37 g/m*3 23.13 C 5.625 km/h
690 07-09-2014 18:00:00 21.94167 C 13.6 g/m*3 21.94 C 5.075 km/h
691 07-09-2014 19:00:00 18.375 C 13.61 g/m*3 18.38 C 0.13333 km/h
692 07-09-2014 20:00:00 17.075 C 13.11 g/m*3 17.08 C 0 km/h
693 07-09-2014 21:00:00 16.85 C 13.12 g/m*3 16.85 C 0 km/h
694 07-09-2014 22:00:00 16.725 C 13.09 g/m*3 16.73 C 0 km/h
695 07-09-2014 23:00:00 16.38333 C 12.89 g/m*3 16.38 C 0.13333 km/h
696 08-09-2014 00:00:00 15.71667 C 12.5 g/m*3 15.72 C 0 km/h
697 08-09-2014 01:00:00 15.41667 C 12.43 g/m*3 15.42 C 0 km/h
698 08-09-2014 02:00:00 15.05 C 12.22 g/m*3 15.05 C 0 km/h
699 08-09-2014 03:00:00 15.04167 C 12.32 g/m*3 15.04 C 0 km/h
700 08-09-2014 04:00:00 14.83333 C 12.17 g/m*3 14.83 C 0 km/h
Sensor: Nr:Datum:Temp:Abs-Feuchte:Windchill:Wind:
Aussen-T/F 701 08-09-2014 05:00:00 14.33333 C 11.88 g/m*3 14.33 C 0 km/h
702 08-09-2014 06:00:00 14.325 C 11.94 g/m*3 14.33 C 0 km/h
703 08-09-2014 07:00:00 14.33333 C 11.94 g/m*3 14.33 C 0 km/h
704 08-09-2014 08:00:00 14.94167 C 12.39 g/m*3 14.94 C 0 km/h
705 08-09-2014 09:00:00 16.11667 C 13.01 g/m*3 16.12 C 0.13333 km/h
706 08-09-2014 10:00:00 17.28333 C 13.15 g/m*3 17.28 C 0.4 km/h
707 08-09-2014 11:00:00 17.78333 C 13.49 g/m*3 17.78 C 0.13333 km/h
708 08-09-2014 12:00:00 18.53333 C 13.71 g/m*3 18.53 C 0.53333 km/h
709 08-09-2014 13:00:00 21.96667 C 14.16 g/m*3 21.97 C 5.375 km/h
710 08-09-2014 14:00:00 22.85833 C 13.2 g/m*3 22.86 C 6.16667 km/h
711 08-09-2014 15:00:00 23.36667 C 12.96 g/m*3 23.37 C 6.425 km/h
712 08-09-2014 16:00:00 24.25833 C 12.68 g/m*3 24.26 C 7.11667 km/h
713 08-09-2014 17:00:00 23.41667 C 12.8 g/m*3 23.42 C 5.35 km/h
714 08-09-2014 18:00:00 22.36667 C 12.49 g/m*3 22.37 C 7.25833 km/h
715 08-09-2014 19:00:00 21.00833 C 12.33 g/m*3 21.01 C 4.94167 km/h
716 08-09-2014 20:00:00 17.9 C 12.53 g/m*3 17.9 C 1.86667 km/h
717 08-09-2014 21:00:00 16.29167 C 12.02 g/m*3 16.29 C 0.93333 km/h
718 08-09-2014 22:00:00 15.56667 C 11.82 g/m*3 15.57 C 0.13333 km/h
719 08-09-2014 23:00:00 15.30833 C 11.8 g/m*3 15.31 C 0.4 km/h
720 09-09-2014 00:00:00 14.48333 C 11.36 g/m*3 14.48 C 0.26667 km/h
721 09-09-2014 01:00:00 13.825 C 11.13 g/m*3 13.83 C 0 km/h
722 09-09-2014 02:00:00 13.4 C 10.96 g/m*3 13.4 C 0.13333 km/h
723 09-09-2014 03:00:00 12.90833 C 10.71 g/m*3 12.91 C 0 km/h
724 09-09-2014 04:00:00 12.50833 C 10.54 g/m*3 12.51 C 0 km/h
725 09-09-2014 05:00:00 12.1 C 10.29 g/m*3 12.1 C 0 km/h
Sensor: Nr:Datum:Temp:Abs-Feuchte:Windchill:Wind:
Aussen-T/F 726 09-09-2014 06:00:00 11.675 C 10.04 g/m*3 11.68 C 0.13333 km/h
727 09-09-2014 07:00:00 11.6 C 10.06 g/m*3 11.6 C 0.26667 km/h
728 09-09-2014 08:00:00 12.21667 C 10.48 g/m*3 12.22 C 0.13333 km/h
729 09-09-2014 09:00:00 12.975 C 10.82 g/m*3 12.98 C 0.4 km/h
730 09-09-2014 10:00:00 14.40833 C 11.23 g/m*3 14.41 C 2.53333 km/h
731 09-09-2014 11:00:00 15.95833 C 11.53 g/m*3 15.96 C 2.66667 km/h
732 09-09-2014 12:00:00 17.26667 C 11.15 g/m*3 17.27 C 4.95 km/h
733 09-09-2014 13:00:00 19.30833 C 11.45 g/m*3 19.31 C 6.025 km/h
734 09-09-2014 14:00:00 20.175 C 10.88 g/m*3 20.18 C 7.51667 km/h
735 09-09-2014 15:00:00 21.025 C 10.62 g/m*3 21.03 C 7.79167 km/h
736 09-09-2014 16:00:00 21.84167 C 10.24 g/m*3 21.84 C 8.19167 km/h
737 09-09-2014 17:00:00 21.91667 C 9.82 g/m*3 21.92 C 8.05833 km/h
738 09-09-2014 18:00:00 21.45 C 10.12 g/m*3 21.45 C 6.83333 km/h
739 09-09-2014 19:00:00 19.45833 C 10.35 g/m*3 19.46 C 7.24167 km/h
740 09-09-2014 20:00:00 15.9 C 10.54 g/m*3 15.9 C 1.74167 km/h
741 09-09-2014 21:00:00 13.85 C 10.21 g/m*3 13.85 C 0.53333 km/h
742 09-09-2014 22:00:00 12.975 C 10.07 g/m*3 12.98 C 0.13333 km/h
743 09-09-2014 23:00:00 12.36667 C 9.88 g/m*3 12.37 C 0 km/h
744 10-09-2014 00:00:00 11.675 C 9.63 g/m*3 11.68 C 0 km/h
745 10-09-2014 01:00:00 11.56667 C 9.73 g/m*3 11.57 C 0 km/h
746 10-09-2014 02:00:00 11.625 C 9.79 g/m*3 11.63 C 0 km/h
747 10-09-2014 03:00:00 11.63333 C 9.8 g/m*3 11.63 C 0 km/h
748 10-09-2014 04:00:00 11.65833 C 9.91 g/m*3 11.66 C 0.26667 km/h
749 10-09-2014 05:00:00 11.83333 C 10.02 g/m*3 11.83 C 0.4 km/h
750 10-09-2014 06:00:00 11.95833 C 10.1 g/m*3 11.96 C 0 km/h
Sensor: Nr:Datum:Temp:Abs-Feuchte:Windchill:Wind:
Aussen-T/F 751 10-09-2014 07:00:00 12.24167 C 10.28 g/m*3 12.24 C 0.13333 km/h
752 10-09-2014 08:00:00 12.9 C 10.68 g/m*3 12.9 C 0.66667 km/h
753 10-09-2014 09:00:00 14.06667 C 11.14 g/m*3 14.07 C 0.8 km/h
754 10-09-2014 10:00:00 15.10833 C 11.25 g/m*3 15.11 C 6.04167 km/h
755 10-09-2014 11:00:00 15.86667 C 11.06 g/m*3 15.87 C 6.56667 km/h
756 10-09-2014 12:00:00 16.55833 C 10.7 g/m*3 16.56 C 9.275 km/h
757 10-09-2014 13:00:00 16.85833 C 10.51 g/m*3 16.86 C 8.20833 km/h
758 10-09-2014 14:00:00 17.44167 C 10.16 g/m*3 17.44 C 8.61667 km/h
759 10-09-2014 15:00:00 17.14167 C 10.01 g/m*3 17.14 C 8.88333 km/h
760 10-09-2014 16:00:00 17.31667 C 9.7 g/m*3 17.32 C 8.60833 km/h
761 10-09-2014 17:00:00 17.15833 C 9.11 g/m*3 17.16 C 9.00833 km/h
762 10-09-2014 18:00:00 16.98333 C 9.08 g/m*3 16.98 C 6.975 km/h
763 10-09-2014 19:00:00 15.84167 C 9.69 g/m*3 15.84 C 2.80833 km/h
764 10-09-2014 20:00:00 14.5 C 10.2 g/m*3 14.5 C 0.53333 km/h
765 10-09-2014 21:00:00 14.375 C 10.4 g/m*3 14.38 C 0.4 km/h
766 10-09-2014 22:00:00 13.84167 C 10.31 g/m*3 13.84 C 0.26667 km/h
767 10-09-2014 23:00:00 12.54167 C 9.98 g/m*3 12.54 C 0.26667 km/h
768 11-09-2014 00:00:00 12.3 C 10.04 g/m*3 12.3 C 0.13333 km/h
769 11-09-2014 01:00:00 12.10833 C 10.02 g/m*3 12.11 C 0.26667 km/h
770 11-09-2014 02:00:00 12.00833 C 10.07 g/m*3 12.01 C 0.26667 km/h
771 11-09-2014 03:00:00 12.14167 C 10.18 g/m*3 12.14 C 0.93333 km/h
772 11-09-2014 04:00:00 12.56667 C 10.45 g/m*3 12.57 C 0.26667 km/h
773 11-09-2014 05:00:00 12.60833 C 10.42 g/m*3 12.61 C 0.13333 km/h
774 11-09-2014 06:00:00 12.54167 C 10.51 g/m*3 12.54 C 0.4 km/h
775 11-09-2014 07:00:00 13.025 C 10.8 g/m*3 13.03 C 0.53333 km/h
Sensor: Nr:Datum:Temp:Abs-Feuchte:Windchill:Wind:
Aussen-T/F 776 11-09-2014 08:00:00 13.76667 C 11.19 g/m*3 13.77 C 0.93333 km/h
777 11-09-2014 09:00:00 14.825 C 11.52 g/m*3 14.83 C 5.75833 km/h
778 11-09-2014 10:00:00 15.85 C 11.58 g/m*3 15.85 C 6.44167 km/h
779 11-09-2014 11:00:00 16.76667 C 11.36 g/m*3 16.77 C 8.2 km/h
780 11-09-2014 12:00:00 17.75833 C 11.28 g/m*3 17.76 C 8.45833 km/h
781 11-09-2014 13:00:00 18.19167 C 11.13 g/m*3 18.19 C 10.23333 km/h
782 11-09-2014 14:00:00 18.81667 C 10.85 g/m*3 18.82 C 12.76667 km/h
783 11-09-2014 15:00:00 19.39167 C 10.58 g/m*3 19.39 C 9.275 km/h
784 11-09-2014 16:00:00 18.91667 C 10.07 g/m*3 18.92 C 10.225 km/h
785 11-09-2014 17:00:00 18.975 C 9.9 g/m*3 18.98 C 9.95 km/h
786 11-09-2014 18:00:00 18.14167 C 10.87 g/m*3 18.14 C 3.48333 km/h
787 11-09-2014 19:00:00 15.95 C 10.78 g/m*3 15.95 C 1.34167 km/h
788 11-09-2014 20:00:00 14.675 C 9.84 g/m*3 14.68 C 1.60833 km/h
789 11-09-2014 21:00:00 13.40833 C 9.77 g/m*3 13.41 C 1.06667 km/h
790 11-09-2014 22:00:00 12.56667 C 9.64 g/m*3 12.57 C 0.4 km/h
791 11-09-2014 23:00:00 11.76667 C 9.53 g/m*3 11.77 C 0 km/h
792 12-09-2014 00:00:00 11.15833 C 9.35 g/m*3 11.16 C 0 km/h
793 12-09-2014 01:00:00 10.54167 C 9.12 g/m*3 10.54 C 0 km/h
794 12-09-2014 02:00:00 10.05833 C 8.95 g/m*3 10.06 C 0.13333 km/h
795 12-09-2014 03:00:00 9.7 C 8.8 g/m*3 9.7 C 0.13333 km/h
796 12-09-2014 04:00:00 9.825 C 8.92 g/m*3 9.82 C 0 km/h
797 12-09-2014 05:00:00 9.40833 C 8.69 g/m*3 9.41 C 0.13333 km/h
798 12-09-2014 06:00:00 8.93333 C 8.43 g/m*3 8.93 C 0 km/h
799 12-09-2014 07:00:00 9.31667 C 8.73 g/m*3 9.32 C 0 km/h
800 12-09-2014 08:00:00 10 C 9.11 g/m*3 10 C 0.26667 km/h
Sensor: Nr:Datum:Temp:Abs-Feuchte:Windchill:Wind:
Aussen-T/F 801 12-09-2014 09:00:00 11.03333 C 9.71 g/m*3 11.03 C 0.26667 km/h
802 12-09-2014 10:00:00 12.45833 C 10.09 g/m*3 12.46 C 4 km/h
803 12-09-2014 11:00:00 14.175 C 10.54 g/m*3 14.18 C 7.50833 km/h
804 12-09-2014 12:00:00 16.36667 C 11.21 g/m*3 16.37 C 9.55 km/h
805 12-09-2014 13:00:00 18.21667 C 11.4 g/m*3 18.22 C 12.35833 km/h
806 12-09-2014 14:00:00 19.99167 C 10.61 g/m*3 19.99 C 14.9 km/h
807 12-09-2014 15:00:00 19.4 C 10.51 g/m*3 19.4 C 13.96667 km/h
808 12-09-2014 16:00:00 18.95 C 10.64 g/m*3 18.95 C 10.49167 km/h
809 12-09-2014 17:00:00 18.34167 C 10.88 g/m*3 18.34 C 12.5 km/h
810 12-09-2014 18:00:00 17.65 C 11.27 g/m*3 17.65 C 6.975 km/h
811 12-09-2014 19:00:00 17.20833 C 11.42 g/m*3 17.21 C 4.15 km/h
812 12-09-2014 20:00:00 16.74167 C 11.65 g/m*3 16.74 C 3.46667 km/h
813 12-09-2014 21:00:00 16.54167 C 11.73 g/m*3 16.54 C 3.34167 km/h
814 12-09-2014 22:00:00 16.5 C 11.75 g/m*3 16.5 C 2.53333 km/h
815 12-09-2014 23:00:00 16.4 C 11.84 g/m*3 16.4 C 0.8 km/h
816 13-09-2014 00:00:00 16.14167 C 11.93 g/m*3 16.14 C 0.4 km/h
817 13-09-2014 01:00:00 15.88333 C 11.91 g/m*3 15.88 C 0.53333 km/h
818 13-09-2014 02:00:00 15.325 C 11.68 g/m*3 15.33 C 0.4 km/h
819 13-09-2014 03:00:00 15.21667 C 11.8 g/m*3 15.22 C 0.13333 km/h
820 13-09-2014 04:00:00 15.16667 C 11.97 g/m*3 15.17 C 0 km/h
821 13-09-2014 05:00:00 14.86667 C 11.96 g/m*3 14.87 C 0 km/h
822 13-09-2014 06:00:00 14.95833 C 11.84 g/m*3 14.96 C 0.4 km/h
823 13-09-2014 07:00:00 15.125 C 11.76 g/m*3 15.13 C 2.80833 km/h
824 13-09-2014 08:00:00 15.2 C 11.74 g/m*3 15.2 C 2.275 km/h
825 13-09-2014 09:00:00 15.7 C 11.85 g/m*3 15.7 C 4.68333 km/h
Sensor: Nr:Datum:Temp:Abs-Feuchte:Windchill:Wind:
Aussen-T/F 826 13-09-2014 10:00:00 15.9 C 11.87 g/m*3 15.9 C 6.84167 km/h
827 13-09-2014 11:00:00 15.88333 C 11.91 g/m*3 15.88 C 5.75833 km/h
828 13-09-2014 12:00:00 16.29167 C 12.12 g/m*3 16.29 C 4.675 km/h
829 13-09-2014 13:00:00 17.15833 C 12.54 g/m*3 17.16 C 5.61667 km/h
830 13-09-2014 14:00:00 17.525 C 12.64 g/m*3 17.52 C 6.83333 km/h
831 13-09-2014 15:00:00 17.45833 C 12.73 g/m*3 17.46 C 3.875 km/h
832 13-09-2014 16:00:00 17.56667 C 12.82 g/m*3 17.57 C 5.5 km/h
833 13-09-2014 17:00:00 17.775 C 12.57 g/m*3 17.77 C 6.3 km/h
834 13-09-2014 18:00:00 17.29167 C 12.56 g/m*3 17.29 C 2.4 km/h
835 13-09-2014 19:00:00 16.41667 C 12.61 g/m*3 16.42 C 0.4 km/h
836 13-09-2014 20:00:00 16.35 C 12.48 g/m*3 16.35 C 1.33333 km/h
837 13-09-2014 21:00:00 16.175 C 12.45 g/m*3 16.18 C 0 km/h
838 13-09-2014 22:00:00 15.85 C 12.31 g/m*3 15.85 C 0 km/h
839 13-09-2014 23:00:00 15.68333 C 12.3 g/m*3 15.68 C 0 km/h
840 14-09-2014 00:00:00 15.6 C 12.23 g/m*3 15.6 C 0 km/h
841 14-09-2014 01:00:00 15.625 C 12.31 g/m*3 15.63 C 0 km/h
842 14-09-2014 02:00:00 15.64167 C 12.27 g/m*3 15.64 C 0.13333 km/h
843 14-09-2014 03:00:00 15.45 C 12.21 g/m*3 15.45 C 0 km/h
844 14-09-2014 04:00:00 15.3 C 12.1 g/m*3 15.3 C 0 km/h
845 14-09-2014 05:00:00 15.21667 C 11.92 g/m*3 15.22 C 0.26667 km/h
846 14-09-2014 06:00:00 15.13333 C 11.76 g/m*3 15.13 C 0.66667 km/h
847 14-09-2014 07:00:00 14.95833 C 11.55 g/m*3 14.96 C 0.93333 km/h
848 14-09-2014 08:00:00 15.03333 C 11.66 g/m*3 15.03 C 0.66667 km/h
849 14-09-2014 09:00:00 15.425 C 11.75 g/m*3 15.43 C 0.93333 km/h
850 14-09-2014 10:00:00 16.05833 C 11.99 g/m*3 16.06 C 2.66667 km/h
Sensor: Nr:Datum:Temp:Abs-Feuchte:Windchill:Wind:
Aussen-T/F 851 14-09-2014 11:00:00 16.80833 C 12.23 g/m*3 16.81 C 3.6 km/h
852 14-09-2014 12:00:00 17.06667 C 12.43 g/m*3 17.07 C 1.46667 km/h
853 14-09-2014 13:00:00 17.72 C 12.75 g/m*3 17.72 C 0.96 km/h
854 14-09-2014 14:00:00 18.55833 C 13.24 g/m*3 18.56 C 0.93333 km/h
855 14-09-2014 15:00:00 18.625 C 13.34 g/m*3 18.63 C 0.4 km/h
856 14-09-2014 16:00:00 20.3 C 13.66 g/m*3 20.3 C 2.4 km/h
857 14-09-2014 17:00:00 21.6 C 13.67 g/m*3 21.6 C 2.93333 km/h
858 14-09-2014 18:00:00 20.7 C 14 g/m*3 20.7 C 0.93333 km/h
859 14-09-2014 19:00:00 18.425 C 13.51 g/m*3 18.43 C 0 km/h
860 14-09-2014 20:00:00 16.18333 C 12.59 g/m*3 16.18 C 0.26667 km/h
861 14-09-2014 21:00:00 15.60833 C 12.3 g/m*3 15.61 C 0 km/h
862 14-09-2014 22:00:00 15.00833 C 12.11 g/m*3 15.01 C 0 km/h
863 14-09-2014 23:00:00 14.225 C 11.59 g/m*3 14.23 C 0 km/h
864 15-09-2014 00:00:00 13.58333 C 11.28 g/m*3 13.58 C 0 km/h
865 15-09-2014 01:00:00 13.05833 C 10.93 g/m*3 13.06 C 0 km/h
866 15-09-2014 02:00:00 12.55 C 10.65 g/m*3 12.55 C 0 km/h
867 15-09-2014 03:00:00 12.26667 C 10.51 g/m*3 12.27 C 0 km/h
868 15-09-2014 04:00:00 12.775 C 10.86 g/m*3 12.78 C 0.13333 km/h
869 15-09-2014 05:00:00 12.86667 C 10.99 g/m*3 12.87 C 0 km/h
870 15-09-2014 06:00:00 12.99167 C 11.11 g/m*3 12.99 C 0 km/h
871 15-09-2014 07:00:00 13.1 C 11.18 g/m*3 13.1 C 0.26667 km/h
872 15-09-2014 08:00:00 13.28333 C 11.31 g/m*3 13.28 C 0 km/h
873 15-09-2014 09:00:00 13.76667 C 11.65 g/m*3 13.77 C 0 km/h
874 15-09-2014 10:00:00 14.22 C 11.98 g/m*3 14.22 C 0.32 km/h
875 15-09-2014 11:00:00 16.625 C 13.29 g/m*3 16.63 C 1.86667 km/h
Sensor: Nr:Datum:Temp:Abs-Feuchte:Windchill:Wind:
Aussen-T/F 876 15-09-2014 12:00:00 19.025 C 13.83 g/m*3 19.02 C 6.025 km/h
877 15-09-2014 13:00:00 20.26667 C 14.04 g/m*3 20.27 C 3.33333 km/h
878 15-09-2014 14:00:00 19.80833 C 14.44 g/m*3 19.81 C 1.06667 km/h
879 15-09-2014 15:00:00 20.93333 C 14.29 g/m*3 20.93 C 5.48333 km/h
880 15-09-2014 16:00:00 21.91667 C 14.49 g/m*3 21.92 C 6.29167 km/h
881 15-09-2014 17:00:00 20.95 C 14.64 g/m*3 20.95 C 2.53333 km/h
882 15-09-2014 18:00:00 19.51667 C 14.66 g/m*3 19.52 C 0.4 km/h
883 15-09-2014 19:00:00 17.99167 C 13.79 g/m*3 17.99 C 0.13333 km/h
884 15-09-2014 20:00:00 16.53333 C 13.04 g/m*3 16.53 C 0.4 km/h
885 15-09-2014 21:00:00 16.09167 C 12.83 g/m*3 16.09 C 0.13333 km/h
886 15-09-2014 22:00:00 15.59167 C 12.63 g/m*3 15.59 C 0 km/h
887 15-09-2014 23:00:00 15.1 C 12.34 g/m*3 15.1 C 0 km/h
888 16-09-2014 00:00:00 14.5 C 11.98 g/m*3 14.5 C 0 km/h
889 16-09-2014 01:00:00 14.13333 C 11.77 g/m*3 14.13 C 0 km/h
890 16-09-2014 02:00:00 13.66667 C 11.46 g/m*3 13.67 C 0 km/h
891 16-09-2014 03:00:00 13.25833 C 11.18 g/m*3 13.26 C 0 km/h
892 16-09-2014 04:00:00 13.45833 C 11.36 g/m*3 13.46 C 0 km/h
893 16-09-2014 05:00:00 13.70833 C 11.61 g/m*3 13.71 C 0 km/h
894 16-09-2014 06:00:00 13.775 C 11.65 g/m*3 13.78 C 0 km/h
895 16-09-2014 07:00:00 13.9 C 11.75 g/m*3 13.9 C 0.13333 km/h
896 16-09-2014 08:00:00 14.10833 C 11.9 g/m*3 14.11 C 0.93333 km/h
897 16-09-2014 09:00:00 14.6 C 12.26 g/m*3 14.6 C 1.6 km/h
898 16-09-2014 10:00:00 15.43333 C 12.9 g/m*3 15.43 C 0.8 km/h
899 16-09-2014 11:00:00 17.20833 C 13.69 g/m*3 17.21 C 5.63333 km/h
900 16-09-2014 12:00:00 19.05833 C 14.05 g/m*3 19.06 C 4.68333 km/h
Sensor: Nr:Datum:Temp:Abs-Feuchte:Windchill:Wind:
Aussen-T/F 901 16-09-2014 13:00:00 22.09167 C 14.99 g/m*3 22.09 C 7.10833 km/h
902 16-09-2014 14:00:00 23.09167 C 14.96 g/m*3 23.09 C 6.44167 km/h
903 16-09-2014 15:00:00 21.69167 C 15.16 g/m*3 21.69 C 2.94167 km/h
904 16-09-2014 16:00:00 24.63333 C 14.86 g/m*3 24.63 C 4.95 km/h
905 16-09-2014 17:00:00 22.30833 C 14.98 g/m*3 22.31 C 1.2 km/h
906 16-09-2014 18:00:00 20.45 C 14.77 g/m*3 20.45 C 0.4 km/h
907 16-09-2014 19:00:00 18.53333 C 13.81 g/m*3 18.53 C 1.06667 km/h
908 16-09-2014 20:00:00 16.85 C 12.94 g/m*3 16.85 C 0.26667 km/h
909 16-09-2014 21:00:00 16.025 C 12.61 g/m*3 16.02 C 0 km/h
910 16-09-2014 22:00:00 15.35 C 12.28 g/m*3 15.35 C 0 km/h
911 16-09-2014 23:00:00 14.55 C 11.8 g/m*3 14.55 C 0 km/h
912 17-09-2014 00:00:00 13.91667 C 11.5 g/m*3 13.92 C 0 km/h
913 17-09-2014 01:00:00 13.625 C 11.33 g/m*3 13.63 C 0 km/h
914 17-09-2014 02:00:00 13.2 C 11.09 g/m*3 13.2 C 0 km/h
915 17-09-2014 03:00:00 12.63333 C 10.75 g/m*3 12.63 C 0 km/h
916 17-09-2014 04:00:00 12.15 C 10.43 g/m*3 12.15 C 0 km/h
917 17-09-2014 05:00:00 12.24167 C 10.54 g/m*3 12.24 C 0 km/h
918 17-09-2014 06:00:00 12.35833 C 10.68 g/m*3 12.36 C 0 km/h
919 17-09-2014 07:00:00 12.175 C 10.56 g/m*3 12.18 C 0 km/h
920 17-09-2014 08:00:00 12.35 C 10.67 g/m*3 12.35 C 0 km/h
921 17-09-2014 09:00:00 12.86667 C 11.02 g/m*3 12.87 C 0 km/h
922 17-09-2014 10:00:00 13.6 C 11.53 g/m*3 13.6 C 0 km/h
923 17-09-2014 11:00:00 14.88333 C 12.51 g/m*3 14.88 C 0 km/h
924 17-09-2014 12:00:00 16.725 C 13.84 g/m*3 16.73 C 0.66667 km/h
925 17-09-2014 13:00:00 20.76667 C 15.32 g/m*3 20.77 C 2.66667 km/h
Sensor: Nr:Datum:Temp:Abs-Feuchte:Windchill:Wind:
Aussen-T/F 926 17-09-2014 14:00:00 22.73333 C 15.59 g/m*3 22.73 C 3.61667 km/h
927 17-09-2014 15:00:00 22.15 C 15.5 g/m*3 22.15 C 0.94167 km/h
928 17-09-2014 16:00:00 22.575 C 15.43 g/m*3 22.58 C 0.4 km/h
929 17-09-2014 17:00:00 21.29167 C 15.34 g/m*3 21.29 C 0 km/h
930 17-09-2014 18:00:00 20.225 C 15.15 g/m*3 20.23 C 0 km/h
931 17-09-2014 19:00:00 18.45 C 14.13 g/m*3 18.45 C 0 km/h
932 17-09-2014 20:00:00 17.20833 C 13.38 g/m*3 17.21 C 0 km/h
933 17-09-2014 21:00:00 16.35833 C 12.81 g/m*3 16.36 C 0 km/h
934 17-09-2014 22:00:00 15.64167 C 12.47 g/m*3 15.64 C 0 km/h
935 17-09-2014 23:00:00 15.10833 C 12.21 g/m*3 15.11 C 0 km/h
936 18-09-2014 00:00:00 14.73333 C 12.07 g/m*3 14.73 C 0 km/h
937 18-09-2014 01:00:00 14.43333 C 11.9 g/m*3 14.43 C 0 km/h
938 18-09-2014 02:00:00 14.28333 C 11.9 g/m*3 14.28 C 0 km/h
939 18-09-2014 03:00:00 14.29167 C 11.91 g/m*3 14.29 C 0 km/h
940 18-09-2014 04:00:00 14.825 C 12.35 g/m*3 14.83 C 0.4 km/h
941 18-09-2014 05:00:00 15.08333 C 12.56 g/m*3 15.08 C 0.53333 km/h
942 18-09-2014 06:00:00 15.2 C 12.63 g/m*3 15.2 C 0 km/h
943 18-09-2014 07:00:00 15.21667 C 12.73 g/m*3 15.22 C 0 km/h
944 18-09-2014 08:00:00 15.675 C 13.09 g/m*3 15.68 C 0 km/h
945 18-09-2014 09:00:00 16.23333 C 13.54 g/m*3 16.23 C 0 km/h
946 18-09-2014 10:00:00 17.175 C 14.33 g/m*3 17.18 C 0 km/h
947 18-09-2014 11:00:00 17.90833 C 14.95 g/m*3 17.91 C 0 km/h
948 18-09-2014 12:00:00 18.91667 C 15.47 g/m*3 18.92 C 0 km/h
949 18-09-2014 13:00:00 19.83333 C 16 g/m*3 19.83 C 0 km/h
950 18-09-2014 14:00:00 21.13333 C 16.54 g/m*3 21.13 C 0.4 km/h
Sensor: Nr:Datum:Temp:Abs-Feuchte:Windchill:Wind:
Aussen-T/F 951 18-09-2014 15:00:00 22.31667 C 16.7 g/m*3 22.32 C 0.93333 km/h
952 18-09-2014 16:00:00 21.64167 C 16.6 g/m*3 21.64 C 0.26667 km/h
953 18-09-2014 17:00:00 20.25833 C 16.49 g/m*3 20.26 C 0 km/h
954 18-09-2014 18:00:00 19.94167 C 16.43 g/m*3 19.94 C 0.4 km/h
955 18-09-2014 19:00:00 19.04167 C 15.82 g/m*3 19.04 C 0 km/h
956 18-09-2014 20:00:00 18.075 C 14.97 g/m*3 18.08 C 0 km/h
957 18-09-2014 21:00:00 17.71667 C 14.76 g/m*3 17.72 C 0 km/h
958 18-09-2014 22:00:00 17.875 C 14.94 g/m*3 17.88 C 0 km/h
959 18-09-2014 23:00:00 17.89167 C 14.96 g/m*3 17.89 C 0 km/h
960 19-09-2014 00:00:00 17.39167 C 14.52 g/m*3 17.39 C 0 km/h
961 19-09-2014 01:00:00 16.9 C 14.1 g/m*3 16.9 C 0 km/h
962 19-09-2014 02:00:00 16.475 C 13.74 g/m*3 16.48 C 0 km/h
963 19-09-2014 03:00:00 16.14167 C 13.47 g/m*3 16.14 C 0 km/h
964 19-09-2014 04:00:00 16.275 C 13.58 g/m*3 16.27 C 0 km/h
965 19-09-2014 05:00:00 15.825 C 13.21 g/m*3 15.83 C 0 km/h
966 19-09-2014 06:00:00 15.84167 C 13.3 g/m*3 15.84 C 0 km/h
967 19-09-2014 07:00:00 16.33333 C 13.73 g/m*3 16.33 C 0.4 km/h
968 19-09-2014 08:00:00 16.68333 C 14.06 g/m*3 16.68 C 0 km/h
969 19-09-2014 09:00:00 17.18333 C 14.48 g/m*3 17.18 C 0.13333 km/h
970 19-09-2014 10:00:00 17.83333 C 15.06 g/m*3 17.83 C 0.26667 km/h
971 19-09-2014 11:00:00 18.275 C 15.46 g/m*3 18.27 C 0.13333 km/h
972 19-09-2014 12:00:00 19.60833 C 16.51 g/m*3 19.61 C 3.35833 km/h
973 19-09-2014 13:00:00 22.7 C 17.12 g/m*3 22.7 C 5.36667 km/h
974 19-09-2014 14:00:00 23.00833 C 17.02 g/m*3 23.01 C 4.96667 km/h
975 19-09-2014 15:00:00 21.70833 C 17.16 g/m*3 21.71 C 0.13333 km/h
Sensor: Nr:Datum:Temp:Abs-Feuchte:Windchill:Wind:
Aussen-T/F 976 19-09-2014 16:00:00 21.45833 C 17.29 g/m*3 21.46 C 0.26667 km/h
977 19-09-2014 17:00:00 21.70833 C 17.35 g/m*3 21.71 C 0.53333 km/h
978 19-09-2014 18:00:00 20.76667 C 16.39 g/m*3 20.77 C 1.6 km/h
979 19-09-2014 19:00:00 19.25833 C 15.35 g/m*3 19.26 C 2.66667 km/h
980 19-09-2014 20:00:00 18.375 C 14.84 g/m*3 18.38 C 0.26667 km/h
981 19-09-2014 21:00:00 17.8 C 14.57 g/m*3 17.8 C 0.13333 km/h
982 19-09-2014 22:00:00 17.075 C 13.99 g/m*3 17.08 C 0 km/h
983 19-09-2014 23:00:00 16.73333 C 13.81 g/m*3 16.73 C 0 km/h
984 20-09-2014 00:00:00 16.53333 C 13.74 g/m*3 16.53 C 0 km/h
985 20-09-2014 01:00:00 16.55 C 13.8 g/m*3 16.55 C 0 km/h
986 20-09-2014 02:00:00 16.44167 C 13.71 g/m*3 16.44 C 0 km/h
987 20-09-2014 03:00:00 15.925 C 13.29 g/m*3 15.93 C 0 km/h
988 20-09-2014 04:00:00 15.7 C 13.11 g/m*3 15.7 C 0 km/h
989 20-09-2014 05:00:00 15.475 C 12.93 g/m*3 15.48 C 0 km/h
990 20-09-2014 06:00:00 15.63333 C 13.06 g/m*3 15.63 C 0.26667 km/h
991 20-09-2014 07:00:00 15.225 C 12.74 g/m*3 15.23 C 0 km/h
992 20-09-2014 08:00:00 16.04167 C 13.44 g/m*3 16.04 C 0 km/h
993 20-09-2014 09:00:00 17.05 C 14.27 g/m*3 17.05 C 1.33333 km/h
994 20-09-2014 10:00:00 18.14167 C 14.81 g/m*3 18.14 C 0.93333 km/h
995 20-09-2014 11:00:00 19.375 C 15.17 g/m*3 19.38 C 0.4 km/h
996 20-09-2014 12:00:00 20.5 C 15.93 g/m*3 20.5 C 0 km/h
997 20-09-2014 13:00:00 20.63333 C 15.97 g/m*3 20.63 C 0.26667 km/h
998 20-09-2014 14:00:00 17.66667 C 14.43 g/m*3 17.67 C 0.66667 km/h
999 20-09-2014 15:00:00 17.33333 C 14.24 g/m*3 17.33 C 1.875 km/h
1000 20-09-2014 16:00:00 18.50833 C 15.41 g/m*3 18.51 C 0.26667 km/h
Sensor: Nr:Datum:Temp:Abs-Feuchte:Windchill:Wind:
Aussen-T/F 1001 20-09-2014 17:00:00 19.06667 C 15.76 g/m*3 19.07 C 0 km/h
1002 20-09-2014 18:00:00 18.25833 C 15.06 g/m*3 18.26 C 0 km/h
1003 20-09-2014 19:00:00 17.75833 C 14.69 g/m*3 17.76 C 0 km/h
1004 20-09-2014 20:00:00 16.63333 C 13.73 g/m*3 16.63 C 0.66667 km/h
1005 20-09-2014 21:00:00 15.65833 C 12.99 g/m*3 15.66 C 0 km/h
1006 20-09-2014 22:00:00 15.56667 C 13.01 g/m*3 15.57 C 0 km/h
1007 20-09-2014 23:00:00 15.90833 C 13.2 g/m*3 15.91 C 1.73333 km/h
1008 21-09-2014 00:00:00 15.45833 C 12.9 g/m*3 15.46 C 0 km/h
1009 21-09-2014 01:00:00 15.70833 C 13.12 g/m*3 15.71 C 1.875 km/h
1010 21-09-2014 02:00:00 15.775 C 13.17 g/m*3 15.78 C 0 km/h
1011 21-09-2014 03:00:00 15.76667 C 13.17 g/m*3 15.77 C 0 km/h
1012 21-09-2014 04:00:00 15.75833 C 13.16 g/m*3 15.76 C 0 km/h
1013 21-09-2014 05:00:00 15.8 C 13.19 g/m*3 15.8 C 0 km/h
1014 21-09-2014 06:00:00 15.675 C 13.09 g/m*3 15.68 C 0 km/h
1015 21-09-2014 07:00:00 15.40833 C 12.89 g/m*3 15.41 C 0 km/h
1016 21-09-2014 08:00:00 15.69167 C 13.15 g/m*3 15.69 C 0 km/h
1017 21-09-2014 09:00:00 15.96667 C 13.46 g/m*3 15.97 C 0 km/h
1018 21-09-2014 10:00:00 16.3 C 13.73 g/m*3 16.3 C 0 km/h
1019 21-09-2014 11:00:00 16.575 C 13.96 g/m*3 16.58 C 0 km/h
1020 21-09-2014 12:00:00 16.59167 C 13.83 g/m*3 16.59 C 3.76667 km/h
1021 21-09-2014 13:00:00 16.36667 C 13.26 g/m*3 16.37 C 7.775 km/h
1022 21-09-2014 14:00:00 16.55 C 13.2 g/m*3 16.55 C 5.91667 km/h
1023 21-09-2014 15:00:00 17.01667 C 13.25 g/m*3 17.02 C 7.25 km/h
1024 21-09-2014 16:00:00 16.80833 C 12.8 g/m*3 16.81 C 6.98333 km/h
1025 21-09-2014 17:00:00 16.425 C 12.13 g/m*3 16.43 C 7.50833 km/h
Sensor: Nr:Datum:Temp:Abs-Feuchte:Windchill:Wind:
Aussen-T/F 1026 21-09-2014 18:00:00 16.33333 C 11.89 g/m*3 16.33 C 4.55 km/h
1027 21-09-2014 19:00:00 14.925 C 11.57 g/m*3 14.93 C 2.95 km/h
1028 21-09-2014 20:00:00 13.45 C 10.86 g/m*3 13.45 C 0.53333 km/h
1029 21-09-2014 21:00:00 12.63333 C 10.53 g/m*3 12.63 C 0 km/h
1030 21-09-2014 22:00:00 12.15 C 10.18 g/m*3 12.15 C 0 km/h
1031 21-09-2014 23:00:00 11.94167 C 10.04 g/m*3 11.94 C 0 km/h
1032 22-09-2014 00:00:00 12.11667 C 10.05 g/m*3 12.12 C 0 km/h
1033 22-09-2014 01:00:00 11.95833 C 10.07 g/m*3 11.96 C 0 km/h
1034 22-09-2014 02:00:00 11.925 C 9.98 g/m*3 11.93 C 0 km/h
1035 22-09-2014 03:00:00 12.29167 C 10.08 g/m*3 12.29 C 0 km/h
1036 22-09-2014 04:00:00 12.64167 C 10.2 g/m*3 12.64 C 0.80833 km/h
1037 22-09-2014 05:00:00 12.55833 C 10.07 g/m*3 12.56 C 0.66667 km/h
1038 22-09-2014 06:00:00 12.175 C 9.82 g/m*3 12.18 C 3.61667 km/h
1039 22-09-2014 07:00:00 11.26667 C 9.49 g/m*3 11.27 C 0 km/h
1040 22-09-2014 08:00:00 11.525 C 9.53 g/m*3 11.53 C 0.26667 km/h
1041 22-09-2014 09:00:00 12.98333 C 9.5 g/m*3 12.98 C 5.1 km/h
1042 22-09-2014 10:00:00 13.63333 C 9.16 g/m*3 13.63 C 8.71667 km/h
1043 22-09-2014 11:00:00 13.69167 C 9.28 g/m*3 13.69 C 10.49167 km/h
1044 22-09-2014 12:00:00 14.39167 C 9.34 g/m*3 14.39 C 11.425 km/h
1045 22-09-2014 13:00:00 15.08333 C 9.29 g/m*3 15.08 C 14.76667 km/h
1046 22-09-2014 14:00:00 14.075 C 9.39 g/m*3 14.08 C 19.86667 km/h
1047 22-09-2014 15:00:00 12.89167 C 9.44 g/m*3 12.89 C 9.41667 km/h
1048 22-09-2014 16:00:00 13.75833 C 9.48 g/m*3 13.76 C 9.95 km/h
1049 22-09-2014 17:00:00 14.4 C 9.15 g/m*3 14.4 C 9.28333 km/h
1050 22-09-2014 18:00:00 14.65 C 9.17 g/m*3 14.65 C 5.35833 km/h
Sensor: Nr:Datum:Temp:Abs-Feuchte:Windchill:Wind:
Aussen-T/F 1051 22-09-2014 19:00:00 11.9 C 9.36 g/m*3 11.9 C 0.4 km/h
1052 22-09-2014 20:00:00 10.85 C 9.11 g/m*3 10.85 C 0.66667 km/h
1053 22-09-2014 21:00:00 10.25 C 8.87 g/m*3 10.25 C 0 km/h
1054 22-09-2014 22:00:00 9.86667 C 8.75 g/m*3 9.87 C 0 km/h
1055 22-09-2014 23:00:00 9.88333 C 8.74 g/m*3 9.88 C 0 km/h
1056 23-09-2014 00:00:00 9.11667 C 8.43 g/m*3 9.12 C 0 km/h
1057 23-09-2014 01:00:00 8.56667 C 8.19 g/m*3 8.57 C 0 km/h
1058 23-09-2014 02:00:00 8.025 C 7.95 g/m*3 8.03 C 0 km/h
1059 23-09-2014 03:00:00 7.66667 C 7.81 g/m*3 7.67 C 0 km/h
1060 23-09-2014 04:00:00 7.28333 C 7.66 g/m*3 7.28 C 0 km/h
1061 23-09-2014 05:00:00 6.75 C 7.39 g/m*3 6.75 C 0 km/h
1062 23-09-2014 06:00:00 6.875 C 7.5 g/m*3 6.88 C 1.20833 km/h
1063 23-09-2014 07:00:00 6.75833 C 7.43 g/m*3 6.76 C 2.68333 km/h
1064 23-09-2014 08:00:00 6.95 C 7.57 g/m*3 6.95 C 0.93333 km/h
1065 23-09-2014 09:00:00 7.69167 C 7.94 g/m*3 7.69 C 2.13333 km/h
1066 23-09-2014 10:00:00 8.65833 C 8.38 g/m*3 8.66 C 3.73333 km/h
1067 23-09-2014 11:00:00 9.90833 C 8.73 g/m*3 9.91 C 1.2 km/h
1068 23-09-2014 12:00:00 10.99167 C 9.22 g/m*3 10.99 C 0 km/h
1069 23-09-2014 13:00:00 13.04167 C 9.93 g/m*3 13.04 C 0 km/h
1070 23-09-2014 14:00:00 13.975 C 9.8 g/m*3 13.98 C 0.4 km/h
1071 23-09-2014 15:00:00 14.10833 C 9.34 g/m*3 14.11 C 0 km/h
1072 23-09-2014 16:00:00 16.45 C 8.83 g/m*3 16.45 C 0.53333 km/h
1073 23-09-2014 17:00:00 15.00833 C 9.44 g/m*3 15.01 C 0 km/h
1074 23-09-2014 18:00:00 12.61667 C 9.51 g/m*3 12.62 C 0 km/h
1075 23-09-2014 19:00:00 10.98333 C 8.91 g/m*3 10.98 C 0 km/h
Sensor: Nr:Datum:Temp:Abs-Feuchte:Windchill:Wind:
Aussen-T/F 1076 23-09-2014 20:00:00 9.95833 C 8.57 g/m*3 9.96 C 0 km/h
1077 23-09-2014 21:00:00 9.15 C 8.32 g/m*3 9.15 C 0 km/h
1078 23-09-2014 22:00:00 9.00833 C 8.31 g/m*3 9.01 C 0 km/h
1079 23-09-2014 23:00:00 8.33333 C 8 g/m*3 8.33 C 0 km/h
1080 24-09-2014 00:00:00 8.24167 C 8.05 g/m*3 8.24 C 0 km/h
1081 24-09-2014 01:00:00 8.325 C 8.1 g/m*3 8.32 C 0 km/h
1082 24-09-2014 02:00:00 7.96667 C 7.92 g/m*3 7.97 C 0 km/h
1083 24-09-2014 03:00:00 7.69167 C 7.79 g/m*3 7.69 C 0 km/h
1084 24-09-2014 04:00:00 7.55 C 7.74 g/m*3 7.55 C 0 km/h
1085 24-09-2014 05:00:00 7.325 C 7.68 g/m*3 7.33 C 0 km/h
1086 24-09-2014 06:00:00 7.29167 C 7.66 g/m*3 7.29 C 0 km/h
1087 24-09-2014 07:00:00 7.06667 C 7.55 g/m*3 7.07 C 0 km/h
1088 24-09-2014 08:00:00 7.2 C 7.63 g/m*3 7.2 C 0 km/h
1089 24-09-2014 09:00:00 7.7 C 7.89 g/m*3 7.7 C 0 km/h
1090 24-09-2014 10:00:00 8.475 C 8.26 g/m*3 8.48 C 0 km/h
1091 24-09-2014 11:00:00 10.15833 C 8.87 g/m*3 10.16 C 0 km/h
1092 24-09-2014 12:00:00 12.9 C 9.46 g/m*3 12.9 C 0 km/h
1093 24-09-2014 13:00:00 15.08333 C 9.81 g/m*3 15.08 C 0 km/h
1094 24-09-2014 14:00:00 15.75833 C 10.18 g/m*3 15.76 C 0 km/h
1095 24-09-2014 15:00:00 15.04167 C 10.93 g/m*3 15.04 C 0 km/h
1096 24-09-2014 16:00:00 16.25833 C 10.43 g/m*3 16.26 C 0 km/h
1097 24-09-2014 17:00:00 15.80833 C 10.54 g/m*3 15.81 C 0 km/h
1098 24-09-2014 18:00:00 14.03333 C 10.57 g/m*3 14.03 C 0 km/h
1099 24-09-2014 19:00:00 13.11667 C 10.38 g/m*3 13.12 C 0 km/h
1100 24-09-2014 20:00:00 13.69167 C 9.96 g/m*3 13.69 C 0 km/h
Sensor: Nr:Datum:Temp:Abs-Feuchte:Windchill:Wind:
Aussen-T/F 1101 24-09-2014 21:00:00 13.88333 C 10.01 g/m*3 13.88 C 5.5 km/h
1102 24-09-2014 22:00:00 13.04167 C 10.16 g/m*3 13.04 C 3.86667 km/h
1103 24-09-2014 23:00:00 12.9 C 10.08 g/m*3 12.9 C 3.88333 km/h
1104 25-09-2014 00:00:00 12.425 C 9.84 g/m*3 12.43 C 0.4 km/h
1105 25-09-2014 01:00:00 11.925 C 9.62 g/m*3 11.93 C 0.8 km/h
1106 25-09-2014 02:00:00 11.4 C 9.57 g/m*3 11.4 C 1.06667 km/h
1107 25-09-2014 03:00:00 11.39167 C 9.61 g/m*3 11.39 C 1.46667 km/h
1108 25-09-2014 04:00:00 11.41667 C 9.62 g/m*3 11.42 C 0.8 km/h
1109 25-09-2014 05:00:00 11.625 C 9.77 g/m*3 11.63 C 0.53333 km/h
1110 25-09-2014 06:00:00 11.6 C 9.7 g/m*3 11.6 C 0 km/h
1111 25-09-2014 07:00:00 11.60833 C 9.7 g/m*3 11.61 C 1.86667 km/h
1112 25-09-2014 08:00:00 12.125 C 9.83 g/m*3 12.13 C 4.00833 km/h
1113 25-09-2014 09:00:00 12.675 C 10.03 g/m*3 12.68 C 5.89167 km/h
1114 25-09-2014 10:00:00 13.65833 C 10.37 g/m*3 13.66 C 2.275 km/h
1115 25-09-2014 11:00:00 14.46667 C 10.65 g/m*3 14.47 C 4.275 km/h
1116 25-09-2014 12:00:00 15.56667 C 10.7 g/m*3 15.57 C 7.38333 km/h
1117 25-09-2014 13:00:00 16.01667 C 10.74 g/m*3 16.02 C 4.81667 km/h
1118 25-09-2014 14:00:00 16.35 C 11.19 g/m*3 16.35 C 1.33333 km/h
1119 25-09-2014 15:00:00 16.94167 C 10.68 g/m*3 16.94 C 5.09167 km/h
1120 25-09-2014 16:00:00 17.83333 C 9.72 g/m*3 17.83 C 7.79167 km/h
1121 25-09-2014 17:00:00 17.41667 C 9.77 g/m*3 17.42 C 6.575 km/h
1122 25-09-2014 18:00:00 15.9 C 10.1 g/m*3 15.9 C 3.88333 km/h
1123 25-09-2014 19:00:00 13.675 C 10.16 g/m*3 13.68 C 1.33333 km/h
1124 25-09-2014 20:00:00 13.39167 C 10.16 g/m*3 13.39 C 1.06667 km/h
1125 25-09-2014 21:00:00 13.125 C 10.15 g/m*3 13.13 C 0.66667 km/h
Sensor: Nr:Datum:Temp:Abs-Feuchte:Windchill:Wind:
Aussen-T/F 1126 25-09-2014 22:00:00 12.89167 C 10.12 g/m*3 12.89 C 0 km/h
1127 25-09-2014 23:00:00 12.875 C 10.03 g/m*3 12.88 C 1.06667 km/h
1128 26-09-2014 00:00:00 12.46667 C 9.86 g/m*3 12.47 C 0.53333 km/h
1129 26-09-2014 01:00:00 12.74167 C 9.88 g/m*3 12.74 C 0.13333 km/h
1130 26-09-2014 02:00:00 12.46667 C 9.88 g/m*3 12.47 C 0 km/h
1131 26-09-2014 03:00:00 11.90833 C 9.62 g/m*3 11.91 C 0 km/h
1132 26-09-2014 04:00:00 11.10833 C 9.31 g/m*3 11.11 C 0 km/h
1133 26-09-2014 05:00:00 10.68333 C 9.17 g/m*3 10.68 C 0 km/h
1134 26-09-2014 06:00:00 10.65833 C 9.18 g/m*3 10.66 C 0 km/h
1135 26-09-2014 07:00:00 10.925 C 9.3 g/m*3 10.93 C 0 km/h
1136 26-09-2014 08:00:00 11.74167 C 9.62 g/m*3 11.74 C 0 km/h
1137 26-09-2014 09:00:00 12.85 C 9.82 g/m*3 12.85 C 8.06667 km/h
1138 26-09-2014 10:00:00 13.85833 C 10.15 g/m*3 13.86 C 9 km/h
1139 26-09-2014 11:00:00 15.15833 C 10.77 g/m*3 15.16 C 8.20833 km/h
1140 26-09-2014 12:00:00 16.48333 C 11.18 g/m*3 16.48 C 10.48333 km/h
1141 26-09-2014 13:00:00 17.275 C 11.41 g/m*3 17.27 C 8.20833 km/h
1142 26-09-2014 14:00:00 17.975 C 11.71 g/m*3 17.98 C 7.25 km/h
1143 26-09-2014 15:00:00 17.20833 C 12.26 g/m*3 17.21 C 1.34167 km/h
1144 26-09-2014 16:00:00 16.76667 C 12.79 g/m*3 16.77 C 0.13333 km/h
1145 26-09-2014 17:00:00 16.89167 C 12.88 g/m*3 16.89 C 0.26667 km/h
1146 26-09-2014 18:00:00 16.26667 C 12.6 g/m*3 16.27 C 0.26667 km/h
1147 26-09-2014 19:00:00 15.64167 C 12.29 g/m*3 15.64 C 0.8 km/h
1148 26-09-2014 20:00:00 15.80833 C 12.44 g/m*3 15.81 C 3.46667 km/h
1149 26-09-2014 21:00:00 15.53333 C 12.32 g/m*3 15.53 C 0.8 km/h
1150 26-09-2014 22:00:00 14.925 C 12.13 g/m*3 14.93 C 0 km/h
Sensor: Nr:Datum:Temp:Abs-Feuchte:Windchill:Wind:
Aussen-T/F 1151 26-09-2014 23:00:00 14.63333 C 12.02 g/m*3 14.63 C 0 km/h
1152 27-09-2014 00:00:00 14.43333 C 11.89 g/m*3 14.43 C 0 km/h
1153 27-09-2014 01:00:00 14.56667 C 11.99 g/m*3 14.57 C 0 km/h
1154 27-09-2014 02:00:00 14.56667 C 11.99 g/m*3 14.57 C 0 km/h
1155 27-09-2014 03:00:00 14.4 C 11.87 g/m*3 14.4 C 0 km/h
1156 27-09-2014 04:00:00 14.3 C 11.79 g/m*3 14.3 C 0 km/h
1157 27-09-2014 05:00:00 14.18333 C 11.73 g/m*3 14.18 C 0 km/h
1158 27-09-2014 06:00:00 14.1 C 11.77 g/m*3 14.1 C 0 km/h
1159 27-09-2014 07:00:00 14.03333 C 11.72 g/m*3 14.03 C 0 km/h
1160 27-09-2014 08:00:00 14.06667 C 11.77 g/m*3 14.07 C 0 km/h
1161 27-09-2014 09:00:00 14.89167 C 12.28 g/m*3 14.89 C 0 km/h
1162 27-09-2014 10:00:00 16.31667 C 12.74 g/m*3 16.32 C 0 km/h
1163 27-09-2014 11:00:00 17.23333 C 12.59 g/m*3 17.23 C 0 km/h
1164 27-09-2014 12:00:00 17.59167 C 12.6 g/m*3 17.59 C 0 km/h
1165 27-09-2014 13:00:00 18.675 C 13.2 g/m*3 18.68 C 0 km/h
1166 27-09-2014 14:00:00 19.04167 C 13.55 g/m*3 19.04 C 0 km/h
1167 27-09-2014 15:00:00 18.48333 C 13.09 g/m*3 18.48 C 0 km/h
1168 27-09-2014 16:00:00 19.29167 C 12.78 g/m*3 19.29 C 1.60833 km/h
1169 27-09-2014 17:00:00 18.53333 C 13.16 g/m*3 18.53 C 0.4 km/h
1170 27-09-2014 18:00:00 17.09167 C 12.8 g/m*3 17.09 C 0.4 km/h
1171 27-09-2014 19:00:00 15.675 C 12.05 g/m*3 15.68 C 0.93333 km/h
1172 27-09-2014 20:00:00 14.56667 C 11.56 g/m*3 14.57 C 0 km/h
1173 27-09-2014 21:00:00 13.49167 C 11.02 g/m*3 13.49 C 0 km/h
1174 27-09-2014 22:00:00 12.73333 C 10.68 g/m*3 12.73 C 0 km/h
1175 27-09-2014 23:00:00 12.125 C 10.31 g/m*3 12.13 C 0 km/h
Sensor: Nr:Datum:Temp:Abs-Feuchte:Windchill:Wind:
Aussen-T/F 1176 28-09-2014 00:00:00 11.70833 C 10.12 g/m*3 11.71 C 0 km/h
1177 28-09-2014 01:00:00 11.38333 C 9.95 g/m*3 11.38 C 0 km/h
1178 28-09-2014 02:00:00 10.94167 C 9.67 g/m*3 10.94 C 0 km/h
1179 28-09-2014 03:00:00 11 C 9.77 g/m*3 11 C 0 km/h
1180 28-09-2014 04:00:00 10.8 C 9.68 g/m*3 10.8 C 0 km/h
1181 28-09-2014 05:00:00 10.58333 C 9.55 g/m*3 10.58 C 0 km/h
1182 28-09-2014 06:00:00 10.39167 C 9.44 g/m*3 10.39 C 0 km/h
1183 28-09-2014 07:00:00 10.65 C 9.6 g/m*3 10.65 C 0 km/h
1184 28-09-2014 08:00:00 10.775 C 9.67 g/m*3 10.78 C 1.06667 km/h
1185 28-09-2014 09:00:00 11.01667 C 9.82 g/m*3 11.02 C 0.93333 km/h
1186 28-09-2014 10:00:00 12.09167 C 10.54 g/m*3 12.09 C 0.66667 km/h
1187 28-09-2014 11:00:00 13.33333 C 11.37 g/m*3 13.33 C 1.46667 km/h
1188 28-09-2014 12:00:00 15.33333 C 12.38 g/m*3 15.33 C 0.13333 km/h
1189 28-09-2014 13:00:00 17.55833 C 13.7 g/m*3 17.56 C 0 km/h
1190 28-09-2014 14:00:00 18.53333 C 14.41 g/m*3 18.53 C 0.4 km/h
1191 28-09-2014 15:00:00 19.65833 C 14.88 g/m*3 19.66 C 0.53333 km/h
1192 28-09-2014 16:00:00 19.96667 C 15.03 g/m*3 19.97 C 0.26667 km/h
1193 28-09-2014 17:00:00 19 C 14.69 g/m*3 19 C 1.2 km/h
1194 28-09-2014 18:00:00 18.16667 C 14.23 g/m*3 18.17 C 0.13333 km/h
1195 28-09-2014 19:00:00 16.95833 C 13.51 g/m*3 16.96 C 0.53333 km/h
1196 28-09-2014 20:00:00 16.7 C 13.29 g/m*3 16.7 C 0.8 km/h
1197 28-09-2014 21:00:00 15.78333 C 12.74 g/m*3 15.78 C 0 km/h
1198 28-09-2014 22:00:00 14.88333 C 12.22 g/m*3 14.88 C 0 km/h
1199 28-09-2014 23:00:00 14.24167 C 11.86 g/m*3 14.24 C 0 km/h
1200 29-09-2014 00:00:00 13.75 C 11.52 g/m*3 13.75 C 0 km/h
Sensor: Nr:Datum:Temp:Abs-Feuchte:Windchill:Wind:
Aussen-T/F 1201 29-09-2014 01:00:00 13.075 C 11.05 g/m*3 13.08 C 0 km/h
1202 29-09-2014 02:00:00 12.69167 C 10.81 g/m*3 12.69 C 0 km/h
1203 29-09-2014 03:00:00 12.39167 C 10.69 g/m*3 12.39 C 0 km/h
1204 29-09-2014 04:00:00 12.44167 C 10.74 g/m*3 12.44 C 0 km/h
1205 29-09-2014 05:00:00 12.29167 C 10.64 g/m*3 12.29 C 0 km/h
1206 29-09-2014 06:00:00 12.08333 C 10.5 g/m*3 12.08 C 0 km/h
1207 29-09-2014 07:00:00 11.925 C 10.4 g/m*3 11.93 C 0 km/h
1208 29-09-2014 08:00:00 12.275 C 10.64 g/m*3 12.28 C 0 km/h
1209 29-09-2014 09:00:00 12.9 C 11.1 g/m*3 12.9 C 0 km/h
1210 29-09-2014 10:00:00 14.23333 C 12.11 g/m*3 14.23 C 0 km/h
1211 29-09-2014 11:00:00 15.85833 C 13.31 g/m*3 15.86 C 0 km/h
1212 29-09-2014 12:00:00 16.94167 C 13.85 g/m*3 16.94 C 0 km/h
1213 29-09-2014 13:00:00 19.05833 C 14.38 g/m*3 19.06 C 1.2 km/h
1214 29-09-2014 14:00:00 19.6 C 14.42 g/m*3 19.6 C 2.14167 km/h
1215 29-09-2014 15:00:00 20.35 C 14.63 g/m*3 20.35 C 2 km/h
1216 29-09-2014 16:00:00 19.44167 C 14.61 g/m*3 19.44 C 0.4 km/h
1217 29-09-2014 17:00:00 18.34167 C 14.08 g/m*3 18.34 C 0.4 km/h
1218 29-09-2014 18:00:00 17.65833 C 13.85 g/m*3 17.66 C 0.13333 km/h
1219 29-09-2014 19:00:00 17.18333 C 13.78 g/m*3 17.18 C 0.53333 km/h
1220 29-09-2014 20:00:00 17.01667 C 13.66 g/m*3 17.02 C 1.33333 km/h
1221 29-09-2014 21:00:00 16.4 C 13.45 g/m*3 16.4 C 0.13333 km/h
1222 29-09-2014 22:00:00 16.09167 C 13.29 g/m*3 16.09 C 0 km/h
1223 29-09-2014 23:00:00 15.95833 C 13.28 g/m*3 15.96 C 0 km/h
1224 30-09-2014 00:00:00 15.55833 C 12.96 g/m*3 15.56 C 0 km/h
1225 30-09-2014 01:00:00 15.325 C 12.78 g/m*3 15.33 C 0 km/h
Sensor: Nr:Datum:Temp:Abs-Feuchte:Windchill:Wind:
Aussen-T/F 1226 30-09-2014 02:00:00 15.29167 C 12.79 g/m*3 15.29 C 0 km/h
1227 30-09-2014 03:00:00 15.30833 C 12.8 g/m*3 15.31 C 0 km/h
1228 30-09-2014 04:00:00 15.24167 C 12.75 g/m*3 15.24 C 0 km/h
1229 30-09-2014 05:00:00 14.60833 C 12.27 g/m*3 14.61 C 0 km/h
1230 30-09-2014 06:00:00 14.66667 C 12.31 g/m*3 14.67 C 0 km/h
1231 30-09-2014 07:00:00 14.80833 C 12.42 g/m*3 14.81 C 0.53333 km/h
1232 30-09-2014 08:00:00 14.70833 C 12.34 g/m*3 14.71 C 0 km/h
1233 30-09-2014 09:00:00 15.05833 C 12.61 g/m*3 15.06 C 0 km/h
1234 30-09-2014 10:00:00 15.85833 C 13.15 g/m*3 15.86 C 2.275 km/h
1235 30-09-2014 11:00:00 17.725 C 13.62 g/m*3 17.73 C 4.16667 km/h
1236 30-09-2014 12:00:00 19.025 C 13.93 g/m*3 19.02 C 6.45833 km/h
1237 30-09-2014 13:00:00 19.05 C 13.84 g/m*3 19.05 C 3.75833 km/h
1238 30-09-2014 14:00:00 19.8 C 14.09 g/m*3 19.8 C 3.08333 km/h
1239 30-09-2014 15:00:00 20.38333 C 14.21 g/m*3 20.38 C 5.36667 km/h
1240 30-09-2014 16:00:00 20.41667 C 14.33 g/m*3 20.42 C 1.33333 km/h
1241 30-09-2014 17:00:00 19.91667 C 14.85 g/m*3 19.92 C 0.4 km/h
1242 30-09-2014 18:00:00 18.375 C 14.44 g/m*3 18.38 C 0 km/h
1243 30-09-2014 19:00:00 17.275 C 13.86 g/m*3 17.27 C 0 km/h
1244 30-09-2014 20:00:00 16.94167 C 13.7 g/m*3 16.94 C 0 km/h
1245 30-09-2014 21:00:00 16.70833 C 13.59 g/m*3 16.71 C 0 km/h
1246 30-09-2014 22:00:00 16.2 C 13.23 g/m*3 16.2 C 0 km/h
1247 30-09-2014 23:00:00 15.775 C 13 g/m*3 15.78 C 0 km/h
1248 01-10-2014 00:00:00 15.68333 C 12.97 g/m*3 15.68 C 0 km/h
1249 01-10-2014 01:00:00 15.425 C 12.76 g/m*3 15.43 C 0 km/h
1250 01-10-2014 02:00:00 15.19167 C 12.64 g/m*3 15.19 C 0 km/h
Sensor: Nr:Datum:Temp:Abs-Feuchte:Windchill:Wind:
Aussen-T/F 1251 01-10-2014 03:00:00 15.10833 C 12.63 g/m*3 15.11 C 0 km/h
1252 01-10-2014 04:00:00 14.9 C 12.48 g/m*3 14.9 C 0 km/h
1253 01-10-2014 05:00:00 14.75833 C 12.38 g/m*3 14.76 C 0 km/h
1254 01-10-2014 06:00:00 14.6 C 12.26 g/m*3 14.6 C 0 km/h
1255 01-10-2014 07:00:00 14.475 C 12.17 g/m*3 14.48 C 0 km/h
1256 01-10-2014 08:00:00 14.35833 C 12.08 g/m*3 14.36 C 0 km/h
1257 01-10-2014 09:00:00 14.40833 C 12.12 g/m*3 14.41 C 0 km/h
1258 01-10-2014 10:00:00 14.74167 C 12.37 g/m*3 14.74 C 0 km/h
1259 01-10-2014 11:00:00 15.55 C 12.73 g/m*3 15.55 C 0 km/h
1260 01-10-2014 12:00:00 16.36667 C 13.06 g/m*3 16.37 C 0 km/h
1261 01-10-2014 13:00:00 19.2 C 14.25 g/m*3 19.2 C 0 km/h
1262 01-10-2014 14:00:00 19.25 C 14.29 g/m*3 19.25 C 0 km/h
1263 01-10-2014 15:00:00 18.775 C 14.15 g/m*3 18.77 C 0 km/h
1264 01-10-2014 16:00:00 18.89167 C 14.1 g/m*3 18.89 C 0 km/h
1265 01-10-2014 17:00:00 17.73333 C 13.71 g/m*3 17.73 C 0 km/h
1266 01-10-2014 18:00:00 16.75833 C 13.13 g/m*3 16.76 C 0 km/h
1267 01-10-2014 19:00:00 16.25833 C 12.94 g/m*3 16.26 C 0 km/h
1268 01-10-2014 20:00:00 15.80833 C 12.69 g/m*3 15.81 C 0 km/h
1269 01-10-2014 21:00:00 14.875 C 12.11 g/m*3 14.88 C 0 km/h
1270 01-10-2014 22:00:00 14.16667 C 11.68 g/m*3 14.17 C 0 km/h
1271 01-10-2014 23:00:00 13.78333 C 11.55 g/m*3 13.78 C 0 km/h
1272 02-10-2014 00:00:00 13.5 C 11.35 g/m*3 13.5 C 0 km/h
1273 02-10-2014 01:00:00 13.425 C 11.29 g/m*3 13.43 C 0 km/h
1274 02-10-2014 02:00:00 13.26667 C 11.19 g/m*3 13.27 C 0 km/h
1275 02-10-2014 03:00:00 12.79167 C 10.91 g/m*3 12.79 C 0 km/h
Sensor: Nr:Datum:Temp:Abs-Feuchte:Windchill:Wind:
Aussen-T/F 1276 02-10-2014 04:00:00 12.60833 C 10.85 g/m*3 12.61 C 0 km/h
1277 02-10-2014 05:00:00 12.40833 C 10.71 g/m*3 12.41 C 0 km/h
1278 02-10-2014 06:00:00 12.24167 C 10.6 g/m*3 12.24 C 0 km/h
1279 02-10-2014 07:00:00 12.1 C 10.51 g/m*3 12.1 C 0 km/h
1280 02-10-2014 08:00:00 12.18333 C 10.56 g/m*3 12.18 C 0 km/h
1281 02-10-2014 09:00:00 12.34167 C 10.71 g/m*3 12.34 C 0 km/h
1282 02-10-2014 10:00:00 12.71667 C 10.99 g/m*3 12.72 C 0 km/h
1283 02-10-2014 11:00:00 13.36667 C 11.47 g/m*3 13.37 C 0 km/h
1284 02-10-2014 12:00:00 14.40833 C 12.18 g/m*3 14.41 C 0 km/h
1285 02-10-2014 13:00:00 17.19167 C 13.65 g/m*3 17.19 C 0 km/h
1286 02-10-2014 14:00:00 18.13333 C 14.24 g/m*3 18.13 C 0 km/h
1287 02-10-2014 15:00:00 18.325 C 14.11 g/m*3 18.33 C 0 km/h
1288 02-10-2014 16:00:00 18.225 C 14.02 g/m*3 18.23 C 0 km/h
1289 02-10-2014 17:00:00 17.60833 C 13.77 g/m*3 17.61 C 0 km/h
1290 02-10-2014 18:00:00 16.8 C 13.17 g/m*3 16.8 C 0 km/h
1291 02-10-2014 19:00:00 15.71667 C 12.49 g/m*3 15.72 C 0 km/h
1292 02-10-2014 20:00:00 14.89167 C 12.02 g/m*3 14.89 C 0 km/h
1293 02-10-2014 21:00:00 13.98333 C 11.49 g/m*3 13.98 C 0 km/h
1294 02-10-2014 22:00:00 13.45833 C 11.2 g/m*3 13.46 C 0 km/h
1295 02-10-2014 23:00:00 12.9 C 10.89 g/m*3 12.9 C 0 km/h
1296 03-10-2014 00:00:00 12.55833 C 10.7 g/m*3 12.56 C 0 km/h
1297 03-10-2014 01:00:00 12.03333 C 10.38 g/m*3 12.03 C 0 km/h
1298 03-10-2014 02:00:00 11.63333 C 10.16 g/m*3 11.63 C 0 km/h
1299 03-10-2014 03:00:00 11.73333 C 10.27 g/m*3 11.73 C 0 km/h
1300 03-10-2014 04:00:00 11.90833 C 10.38 g/m*3 11.91 C 0 km/h
Sensor: Nr:Datum:Temp:Abs-Feuchte:Windchill:Wind:
Aussen-T/F 1301 03-10-2014 05:00:00 11.975 C 10.43 g/m*3 11.98 C 0 km/h
1302 03-10-2014 06:00:00 11.625 C 10.2 g/m*3 11.63 C 0 km/h
1303 03-10-2014 07:00:00 11.125 C 9.89 g/m*3 11.13 C 0 km/h
1304 03-10-2014 08:00:00 11 C 9.83 g/m*3 11 C 0 km/h
1305 03-10-2014 09:00:00 11.34167 C 10.05 g/m*3 11.34 C 0 km/h
1306 03-10-2014 10:00:00 11.825 C 10.42 g/m*3 11.83 C 0 km/h
1307 03-10-2014 11:00:00 12.85 C 11.12 g/m*3 12.85 C 0 km/h
1308 03-10-2014 12:00:00 13.85 C 11.83 g/m*3 13.85 C 0 km/h
1309 03-10-2014 13:00:00 16.45 C 13.5 g/m*3 16.45 C 0 km/h
1310 03-10-2014 14:00:00 17.90833 C 14.12 g/m*3 17.91 C 0 km/h
1311 03-10-2014 15:00:00 19.15833 C 14.2 g/m*3 19.16 C 1.34167 km/h
1312 03-10-2014 16:00:00 19.18333 C 14.35 g/m*3 19.18 C 0.26667 km/h
1313 03-10-2014 17:00:00 17.60833 C 13.52 g/m*3 17.61 C 0 km/h
1314 03-10-2014 18:00:00 16.5 C 12.79 g/m*3 16.5 C 0 km/h
1315 03-10-2014 19:00:00 15.00833 C 11.87 g/m*3 15.01 C 0 km/h
1316 03-10-2014 20:00:00 14.19167 C 11.41 g/m*3 14.19 C 0 km/h
1317 03-10-2014 21:00:00 13.325 C 10.89 g/m*3 13.33 C 0.13333 km/h
1318 03-10-2014 22:00:00 12.61667 C 10.54 g/m*3 12.62 C 0 km/h
1319 03-10-2014 23:00:00 12.3 C 10.42 g/m*3 12.3 C 0 km/h
1320 04-10-2014 00:00:00 11.58333 C 9.99 g/m*3 11.58 C 0 km/h
1321 04-10-2014 01:00:00 11.125 C 9.79 g/m*3 11.13 C 0 km/h
1322 04-10-2014 02:00:00 10.69167 C 9.52 g/m*3 10.69 C 0 km/h
1323 04-10-2014 03:00:00 10.48333 C 9.45 g/m*3 10.48 C 0 km/h
1324 04-10-2014 04:00:00 10.49167 C 9.5 g/m*3 10.49 C 0 km/h
1325 04-10-2014 05:00:00 10.18333 C 9.32 g/m*3 10.18 C 0 km/h
Sensor: Nr:Datum:Temp:Abs-Feuchte:Windchill:Wind:
Aussen-T/F 1326 04-10-2014 06:00:00 9.94167 C 9.17 g/m*3 9.94 C 0 km/h
1327 04-10-2014 07:00:00 9.9 C 9.15 g/m*3 9.9 C 0 km/h
1328 04-10-2014 08:00:00 9.85833 C 9.13 g/m*3 9.86 C 0 km/h
1329 04-10-2014 09:00:00 10.35833 C 9.5 g/m*3 10.36 C 0 km/h
1330 04-10-2014 10:00:00 11 C 9.89 g/m*3 11 C 0 km/h
1331 04-10-2014 11:00:00 12.03333 C 10.57 g/m*3 12.03 C 0 km/h
1332 04-10-2014 12:00:00 13.5 C 11.58 g/m*3 13.5 C 0 km/h
1333 04-10-2014 13:00:00 16.425 C 12.49 g/m*3 16.43 C 0 km/h
1334 04-10-2014 14:00:00 17.7 C 12.07 g/m*3 17.7 C 0 km/h
1335 04-10-2014 15:00:00 18.8 C 11.6 g/m*3 18.8 C 1.88333 km/h
1336 04-10-2014 16:00:00 18.25 C 12.04 g/m*3 18.25 C 2.4 km/h
1337 04-10-2014 17:00:00 16.45 C 12.14 g/m*3 16.45 C 0.4 km/h
1338 04-10-2014 18:00:00 15.1 C 11.65 g/m*3 15.1 C 0.13333 km/h
1339 04-10-2014 19:00:00 13.98333 C 10.99 g/m*3 13.98 C 0 km/h
1340 04-10-2014 20:00:00 13.53333 C 10.88 g/m*3 13.53 C 0 km/h
1341 04-10-2014 21:00:00 13.10833 C 10.66 g/m*3 13.11 C 0 km/h
1342 04-10-2014 22:00:00 12.50833 C 10.4 g/m*3 12.51 C 0 km/h
1343 04-10-2014 23:00:00 11.86667 C 10.13 g/m*3 11.87 C 0 km/h
1344 05-10-2014 00:00:00 11.53333 C 9.97 g/m*3 11.53 C 0 km/h
1345 05-10-2014 01:00:00 11.25 C 9.86 g/m*3 11.25 C 0 km/h
1346 05-10-2014 02:00:00 10.91667 C 9.66 g/m*3 10.92 C 0.53333 km/h
1347 05-10-2014 03:00:00 10.71667 C 9.54 g/m*3 10.72 C 0 km/h
1348 05-10-2014 04:00:00 10.69167 C 9.61 g/m*3 10.69 C 0 km/h
1349 05-10-2014 05:00:00 10.975 C 9.79 g/m*3 10.98 C 0 km/h
1350 05-10-2014 06:00:00 10.95833 C 9.78 g/m*3 10.96 C 0 km/h
Sensor: Nr:Datum:Temp:Abs-Feuchte:Windchill:Wind:
Aussen-T/F 1351 05-10-2014 07:00:00 10.95 C 9.78 g/m*3 10.95 C 0 km/h
1352 05-10-2014 08:00:00 11.55833 C 10.16 g/m*3 11.56 C 0 km/h
1353 05-10-2014 09:00:00 12.01667 C 10.45 g/m*3 12.02 C 0 km/h
1354 05-10-2014 10:00:00 12.51667 C 10.76 g/m*3 12.52 C 0 km/h
1355 05-10-2014 11:00:00 13.25833 C 10.95 g/m*3 13.26 C 0.53333 km/h
1356 05-10-2014 12:00:00 14.84167 C 11.32 g/m*3 14.84 C 0.66667 km/h
1357 05-10-2014 13:00:00 15.725 C 11.52 g/m*3 15.73 C 2.4 km/h
1358 05-10-2014 14:00:00 15.75 C 11.72 g/m*3 15.75 C 5.225 km/h
1359 05-10-2014 15:00:00 15.81667 C 11.78 g/m*3 15.82 C 3.6 km/h
1360 05-10-2014 16:00:00 15.85833 C 11.73 g/m*3 15.86 C 6.01667 km/h
1361 05-10-2014 17:00:00 15.325 C 11.52 g/m*3 15.33 C 4.54167 km/h
1362 05-10-2014 18:00:00 14.53333 C 11.28 g/m*3 14.53 C 0.93333 km/h
1363 05-10-2014 19:00:00 13.34167 C 10.82 g/m*3 13.34 C 0 km/h
1364 05-10-2014 20:00:00 13.1 C 10.9 g/m*3 13.1 C 0 km/h
1365 05-10-2014 21:00:00 13.14167 C 10.87 g/m*3 13.14 C 0.13333 km/h
1366 05-10-2014 22:00:00 13.05 C 10.81 g/m*3 13.05 C 0 km/h
1367 05-10-2014 23:00:00 12.75833 C 10.69 g/m*3 12.76 C 0 km/h
1368 06-10-2014 00:00:00 12.53333 C 10.58 g/m*3 12.53 C 0 km/h
1369 06-10-2014 01:00:00 12.33333 C 10.45 g/m*3 12.33 C 0 km/h
1370 06-10-2014 02:00:00 12.20833 C 10.36 g/m*3 12.21 C 0 km/h
1371 06-10-2014 03:00:00 12.2 C 10.36 g/m*3 12.2 C 0 km/h
1372 06-10-2014 04:00:00 12.25833 C 10.4 g/m*3 12.26 C 0 km/h
1373 06-10-2014 05:00:00 12.3 C 10.42 g/m*3 12.3 C 0 km/h
1374 06-10-2014 06:00:00 12.40833 C 10.49 g/m*3 12.41 C 0 km/h
1375 06-10-2014 07:00:00 12.575 C 10.6 g/m*3 12.58 C 0 km/h
Sensor: Nr:Datum:Temp:Abs-Feuchte:Windchill:Wind:
Aussen-T/F 1376 06-10-2014 08:00:00 12.84167 C 10.76 g/m*3 12.84 C 0.53333 km/h
1377 06-10-2014 09:00:00 13.35833 C 10.94 g/m*3 13.36 C 2.13333 km/h
1378 06-10-2014 10:00:00 14.04167 C 11.1 g/m*3 14.04 C 5.09167 km/h
1379 06-10-2014 11:00:00 15.025 C 11.49 g/m*3 15.03 C 3.2 km/h
1380 06-10-2014 12:00:00 16.2 C 11.68 g/m*3 16.2 C 4.00833 km/h
1381 06-10-2014 13:00:00 17.31667 C 11.93 g/m*3 17.32 C 5.48333 km/h
1382 06-10-2014 14:00:00 17.73333 C 11.85 g/m*3 17.73 C 6.025 km/h
1383 06-10-2014 15:00:00 18.025 C 11.87 g/m*3 18.02 C 6.7 km/h
1384 06-10-2014 16:00:00 18.5 C 11.97 g/m*3 18.5 C 5.20833 km/h
1385 06-10-2014 17:00:00 17.40833 C 12.05 g/m*3 17.41 C 2.8 km/h
1386 06-10-2014 18:00:00 15.45 C 11.65 g/m*3 15.45 C 1.06667 km/h
1387 06-10-2014 19:00:00 13.83333 C 10.98 g/m*3 13.83 C 0.53333 km/h
1388 06-10-2014 20:00:00 13.16667 C 10.79 g/m*3 13.17 C 0 km/h
1389 06-10-2014 21:00:00 13.51667 C 11.01 g/m*3 13.52 C 0.66667 km/h
1390 06-10-2014 22:00:00 13.74167 C 11 g/m*3 13.74 C 1.475 km/h
1391 06-10-2014 23:00:00 14.225 C 11.05 g/m*3 14.23 C 3.86667 km/h
1392 07-10-2014 00:00:00 14.15 C 11 g/m*3 14.15 C 3.06667 km/h
1393 07-10-2014 01:00:00 13.96667 C 10.95 g/m*3 13.97 C 3.46667 km/h
1394 07-10-2014 02:00:00 13.85 C 11 g/m*3 13.85 C 2.13333 km/h
1395 07-10-2014 03:00:00 13.44167 C 11.01 g/m*3 13.44 C 2.66667 km/h
1396 07-10-2014 04:00:00 13.3 C 11.07 g/m*3 13.3 C 1.86667 km/h
1397 07-10-2014 05:00:00 13.25833 C 11.14 g/m*3 13.26 C 0.4 km/h
1398 07-10-2014 06:00:00 13.26667 C 11.18 g/m*3 13.27 C 2.26667 km/h
1399 07-10-2014 07:00:00 13.35 C 11.25 g/m*3 13.35 C 1.2 km/h
1400 07-10-2014 08:00:00 13.70833 C 11.56 g/m*3 13.71 C 2.94167 km/h
Sensor: Nr:Datum:Temp:Abs-Feuchte:Windchill:Wind:
Aussen-T/F 1401 07-10-2014 09:00:00 14.425 C 12.03 g/m*3 14.43 C 2.13333 km/h
1402 07-10-2014 10:00:00 15.05 C 12.35 g/m*3 15.05 C 7.78333 km/h
1403 07-10-2014 11:00:00 14.925 C 11.82 g/m*3 14.93 C 11.26667 km/h
1404 07-10-2014 12:00:00 14.80833 C 11.61 g/m*3 14.81 C 13.7 km/h
1405 07-10-2014 13:00:00 16.05833 C 11.67 g/m*3 16.06 C 14.36667 km/h
1406 07-10-2014 14:00:00 16.78333 C 11.32 g/m*3 16.78 C 11.7 km/h
1407 07-10-2014 15:00:00 16.04167 C 11.63 g/m*3 16.04 C 3.625 km/h
1408 07-10-2014 16:00:00 14.40833 C 10.74 g/m*3 14.41 C 7.78333 km/h
1409 07-10-2014 17:00:00 13.1 C 9.8 g/m*3 13.1 C 7.78333 km/h
1410 07-10-2014 18:00:00 12.70833 C 9.99 g/m*3 12.71 C 3.06667 km/h
1411 07-10-2014 19:00:00 12.23333 C 10.04 g/m*3 12.23 C 1.46667 km/h
1412 07-10-2014 20:00:00 12.08333 C 9.93 g/m*3 12.08 C 1.46667 km/h
1413 07-10-2014 21:00:00 11.34167 C 9.74 g/m*3 11.34 C 0.13333 km/h
1414 07-10-2014 22:00:00 11.33333 C 9.87 g/m*3 11.33 C 0 km/h
1415 07-10-2014 23:00:00 11.64167 C 10.04 g/m*3 11.64 C 1.2 km/h
1416 08-10-2014 00:00:00 11.50833 C 9.96 g/m*3 11.51 C 0.53333 km/h
1417 08-10-2014 01:00:00 11.36667 C 9.94 g/m*3 11.37 C 0 km/h
1418 08-10-2014 02:00:00 11.28333 C 9.88 g/m*3 11.28 C 0 km/h
1419 08-10-2014 03:00:00 11.075 C 9.77 g/m*3 11.08 C 0 km/h
1420 08-10-2014 04:00:00 11.05833 C 9.85 g/m*3 11.06 C 0 km/h
1421 08-10-2014 05:00:00 11.13333 C 9.89 g/m*3 11.13 C 0 km/h
1422 08-10-2014 06:00:00 11.25 C 9.96 g/m*3 11.25 C 0 km/h
1423 08-10-2014 07:00:00 11.34167 C 10.02 g/m*3 11.34 C 0 km/h
1424 08-10-2014 08:00:00 11.775 C 10.3 g/m*3 11.78 C 0 km/h
1425 08-10-2014 09:00:00 12.50833 C 10.78 g/m*3 12.51 C 0 km/h
Sensor: Nr:Datum:Temp:Abs-Feuchte:Windchill:Wind:
Aussen-T/F 1426 08-10-2014 10:00:00 13.425 C 11.39 g/m*3 13.43 C 0 km/h
1427 08-10-2014 11:00:00 14.39167 C 11.78 g/m*3 14.39 C 0 km/h
1428 08-10-2014 12:00:00 14.29167 C 11.74 g/m*3 14.29 C 0 km/h
1429 08-10-2014 13:00:00 14.14167 C 11.8 g/m*3 14.14 C 0.93333 km/h
1430 08-10-2014 14:00:00 14.17 C 11.86 g/m*3 14.17 C 0.16 km/h
1431 08-10-2014 15:00:00 15.0625 C 12.61 g/m*3 15.06 C 1.6 km/h
1432 08-10-2014 16:00:00 15.21667 C 12.72 g/m*3 15.22 C 0 km/h
1433 08-10-2014 17:00:00 15.2 C 12.72 g/m*3 15.2 C 0 km/h
1434 08-10-2014 19:00:00 15.25556 C 12.76 g/m*3 15.26 C 0.17778 km/h
1435 08-10-2014 20:00:00 15.16667 C 12.69 g/m*3 15.17 C 0 km/h
1436 08-10-2014 21:00:00 15.26667 C 12.88 g/m*3 15.27 C 0.53333 km/h
1437 08-10-2014 22:00:00 15.85833 C 13.37 g/m*3 15.86 C 0.93333 km/h
1438 08-10-2014 23:00:00 16.16667 C 13.62 g/m*3 16.17 C 0.93333 km/h
1439 09-10-2014 00:00:00 16.19167 C 13.65 g/m*3 16.19 C 0 km/h
1440 09-10-2014 01:00:00 16.35833 C 13.78 g/m*3 16.36 C 4.28333 km/h
1441 09-10-2014 02:00:00 16.80833 C 13.8 g/m*3 16.81 C 6.43333 km/h
1442 09-10-2014 03:00:00 16.00833 C 13.21 g/m*3 16.01 C 1.86667 km/h
1443 09-10-2014 04:00:00 15.61667 C 12.99 g/m*3 15.62 C 1.2 km/h
1444 09-10-2014 05:00:00 15.55 C 12.99 g/m*3 15.55 C 1.2 km/h
1445 09-10-2014 06:00:00 15.6 C 13.03 g/m*3 15.6 C 0.13333 km/h
1446 09-10-2014 07:00:00 15.61111 C 13.04 g/m*3 15.61 C 0 km/h
1447 09-10-2014 11:00:00 16.9 C 14.24 g/m*3 16.9 C 0 km/h
1448 09-10-2014 12:00:00 16.96 C 14.29 g/m*3 16.96 C 0 km/h
1449 09-10-2014 14:00:00 15.54 C 12.67 g/m*3 15.54 C 7.24 km/h
1450 09-10-2014 15:00:00 15.41667 C 12.65 g/m*3 15.42 C 0.53333 km/h
Sensor: Nr:Datum:Temp:Abs-Feuchte:Windchill:Wind:
Aussen-T/F 1451 09-10-2014 16:00:00 15.15 C 12.61 g/m*3 15.15 C 0.94167 km/h
1452 09-10-2014 17:00:00 14.94167 C 12.52 g/m*3 14.94 C 0.53333 km/h
1453 09-10-2014 18:00:00 14.8 C 12.41 g/m*3 14.8 C 0 km/h
1454 09-10-2014 19:00:00 13.625 C 11.55 g/m*3 13.63 C 0 km/h
1455 09-10-2014 20:00:00 13.4 C 11.39 g/m*3 13.4 C 0 km/h
1456 09-10-2014 21:00:00 13.65 C 11.57 g/m*3 13.65 C 0 km/h
1457 09-10-2014 22:00:00 12.88333 C 11.02 g/m*3 12.88 C 1.74167 km/h
1458 09-10-2014 23:00:00 12.375 C 10.69 g/m*3 12.38 C 0 km/h
1459 10-10-2014 00:00:00 12.15833 C 10.55 g/m*3 12.16 C 0 km/h
1460 10-10-2014 01:00:00 12.19167 C 10.57 g/m*3 12.19 C 0 km/h
1461 10-10-2014 02:00:00 12.25833 C 10.61 g/m*3 12.26 C 0 km/h
1462 10-10-2014 03:00:00 12.60833 C 10.86 g/m*3 12.61 C 0 km/h
1463 10-10-2014 04:00:00 12.65833 C 10.92 g/m*3 12.66 C 0 km/h
1464 10-10-2014 05:00:00 12.725 C 10.99 g/m*3 12.73 C 0 km/h
1465 10-10-2014 06:00:00 12.69167 C 10.91 g/m*3 12.69 C 0.13333 km/h
1466 10-10-2014 07:00:00 12.83333 C 11.1 g/m*3 12.83 C 0 km/h
1467 10-10-2014 10:00:00 14.06667 C 12.01 g/m*3 14.07 C 0 km/h
1468 10-10-2014 11:00:00 14.675 C 12.28 g/m*3 14.68 C 0.93333 km/h
1469 10-10-2014 12:00:00 15.99167 C 12.7 g/m*3 15.99 C 0.53333 km/h
1470 10-10-2014 13:00:00 17.03333 C 12.72 g/m*3 17.03 C 1.46667 km/h
1471 10-10-2014 14:00:00 17.25 C 12.93 g/m*3 17.25 C 2.13333 km/h
1472 10-10-2014 15:00:00 16.40833 C 13.11 g/m*3 16.41 C 0 km/h
1473 10-10-2014 16:00:00 15.95833 C 13 g/m*3 15.96 C 0 km/h
1474 10-10-2014 17:00:00 15.75 C 12.93 g/m*3 15.75 C 0 km/h
1475 10-10-2014 18:00:00 15.10833 C 12.52 g/m*3 15.11 C 0 km/h
Sensor: Nr:Datum:Temp:Abs-Feuchte:Windchill:Wind:
Aussen-T/F 1476 10-10-2014 19:00:00 14.35833 C 11.96 g/m*3 14.36 C 0 km/h
1477 10-10-2014 20:00:00 14.13333 C 11.84 g/m*3 14.13 C 0 km/h
1478 10-10-2014 21:00:00 13.81667 C 11.66 g/m*3 13.82 C 0 km/h
1479 10-10-2014 22:00:00 13.79167 C 11.67 g/m*3 13.79 C 0 km/h
1480 10-10-2014 23:00:00 13.71667 C 11.62 g/m*3 13.72 C 0 km/h
1481 11-10-2014 00:00:00 13.83333 C 11.7 g/m*3 13.83 C 0 km/h
1482 11-10-2014 01:00:00 14.01667 C 11.83 g/m*3 14.02 C 0 km/h
1483 11-10-2014 02:00:00 13.49167 C 11.46 g/m*3 13.49 C 0 km/h
1484 11-10-2014 03:00:00 13.48333 C 11.49 g/m*3 13.48 C 0 km/h
1485 11-10-2014 04:00:00 13.56667 C 11.56 g/m*3 13.57 C 0 km/h
1486 11-10-2014 05:00:00 13.61667 C 11.61 g/m*3 13.62 C 0.13333 km/h
1487 11-10-2014 06:00:00 13.24167 C 11.36 g/m*3 13.24 C 0 km/h
1488 11-10-2014 07:00:00 13.55 C 11.62 g/m*3 13.55 C 0 km/h
1489 11-10-2014 08:00:00 13.66667 C 11.7 g/m*3 13.67 C 0 km/h
1490 11-10-2014 09:00:00 13.98333 C 11.93 g/m*3 13.98 C 0.26667 km/h
1491 11-10-2014 10:00:00 14.13333 C 12.04 g/m*3 14.13 C 0.4 km/h
1492 11-10-2014 11:00:00 14.66667 C 12.34 g/m*3 14.67 C 0 km/h
1493 11-10-2014 12:00:00 15.975 C 13.15 g/m*3 15.98 C 1.06667 km/h
1494 11-10-2014 13:00:00 16.81667 C 13.36 g/m*3 16.82 C 0.4 km/h
1495 11-10-2014 14:00:00 17.16667 C 13.71 g/m*3 17.17 C 1.6 km/h
1496 11-10-2014 15:00:00 17.625 C 13.83 g/m*3 17.63 C 1.33333 km/h
1497 11-10-2014 16:00:00 17.71667 C 13.69 g/m*3 17.72 C 0.4 km/h
1498 11-10-2014 17:00:00 17.06667 C 13.4 g/m*3 17.07 C 0.13333 km/h
1499 11-10-2014 18:00:00 15.85833 C 12.57 g/m*3 15.86 C 0.4 km/h
1500 11-10-2014 19:00:00 14.76667 C 12.09 g/m*3 14.77 C 1.33333 km/h
Sensor: Nr:Datum:Temp:Abs-Feuchte:Windchill:Wind:
Aussen-T/F 1501 11-10-2014 20:00:00 14.25833 C 11.76 g/m*3 14.26 C 1.06667 km/h
1502 11-10-2014 21:00:00 14.68333 C 11.62 g/m*3 14.68 C 0.8 km/h
1503 11-10-2014 22:00:00 14.03333 C 11.28 g/m*3 14.03 C 1.73333 km/h
1504 11-10-2014 23:00:00 13.46667 C 10.88 g/m*3 13.47 C 0.4 km/h
1505 12-10-2014 00:00:00 12.2 C 10.4 g/m*3 12.2 C 0 km/h
1506 12-10-2014 01:00:00 11.63333 C 10.1 g/m*3 11.63 C 0 km/h
1507 12-10-2014 02:00:00 11.04167 C 9.75 g/m*3 11.04 C 0 km/h
1508 12-10-2014 03:00:00 10.325 C 9.33 g/m*3 10.33 C 0 km/h
1509 12-10-2014 04:00:00 9.975 C 9.19 g/m*3 9.98 C 0.26667 km/h
1510 12-10-2014 05:00:00 10.24167 C 9.35 g/m*3 10.24 C 0.53333 km/h
1511 12-10-2014 06:00:00 9.975 C 9.19 g/m*3 9.98 C 0.4 km/h
1512 12-10-2014 07:00:00 9.725 C 9.06 g/m*3 9.73 C 0.66667 km/h
1513 12-10-2014 08:00:00 9.70833 C 9.12 g/m*3 9.71 C 1.06667 km/h
1514 12-10-2014 09:00:00 9.96667 C 9.28 g/m*3 9.97 C 0.4 km/h
1515 12-10-2014 10:00:00 10.5 C 9.6 g/m*3 10.5 C 1.34167 km/h
1516 12-10-2014 11:00:00 11.45 C 10.19 g/m*3 11.45 C 2.80833 km/h
1517 12-10-2014 12:00:00 13.02727 C 10.95 g/m*3 13.03 C 6.12727 km/h
1518 12-10-2014 13:00:00 14.65 C 11.17 g/m*3 14.65 C 4.675 km/h
1519 12-10-2014 14:00:00 15.85 C 11.54 g/m*3 15.85 C 3.2 km/h
1520 12-10-2014 15:00:00 17.04167 C 11.82 g/m*3 17.04 C 5.625 km/h
1521 12-10-2014 16:00:00 16.65 C 12.36 g/m*3 16.65 C 1.6 km/h
1522 12-10-2014 17:00:00 15.75 C 11.89 g/m*3 15.75 C 2.15 km/h
1523 12-10-2014 18:00:00 14.4 C 11.65 g/m*3 14.4 C 0 km/h
1524 12-10-2014 19:00:00 13.7 C 11.44 g/m*3 13.7 C 0.13333 km/h
1525 12-10-2014 20:00:00 13.625 C 11.51 g/m*3 13.63 C 0.93333 km/h
Sensor: Nr:Datum:Temp:Abs-Feuchte:Windchill:Wind:
Aussen-T/F 1526 12-10-2014 21:00:00 13.89167 C 11.74 g/m*3 13.89 C 3.475 km/h
1527 12-10-2014 22:00:00 14.13333 C 11.89 g/m*3 14.13 C 1.33333 km/h
1528 12-10-2014 23:00:00 14.00833 C 11.83 g/m*3 14.01 C 0 km/h
1529 13-10-2014 00:00:00 13.99167 C 11.81 g/m*3 13.99 C 0 km/h
1530 13-10-2014 01:00:00 14.03333 C 11.85 g/m*3 14.03 C 0.13333 km/h
1531 13-10-2014 02:00:00 13.70833 C 11.61 g/m*3 13.71 C 0 km/h
1532 13-10-2014 03:00:00 13.71667 C 11.66 g/m*3 13.72 C 0 km/h
1533 13-10-2014 04:00:00 13.58333 C 11.62 g/m*3 13.58 C 0 km/h
1534 13-10-2014 05:00:00 13.775 C 11.78 g/m*3 13.78 C 0 km/h
1535 13-10-2014 06:00:00 13.91667 C 11.88 g/m*3 13.92 C 0.13333 km/h
1536 13-10-2014 07:00:00 13.8 C 11.8 g/m*3 13.8 C 0 km/h
1537 13-10-2014 08:00:00 13.88333 C 11.86 g/m*3 13.88 C 1.46667 km/h
1538 13-10-2014 09:00:00 14.78333 C 12.53 g/m*3 14.78 C 0.53333 km/h
1539 13-10-2014 10:00:00 15.54167 C 13.12 g/m*3 15.54 C 0 km/h
1540 13-10-2014 11:00:00 16.075 C 13.55 g/m*3 16.08 C 0.13333 km/h
1541 13-10-2014 12:00:00 16.675 C 14.05 g/m*3 16.68 C 0.66667 km/h
1542 13-10-2014 13:00:00 16.55 C 13.85 g/m*3 16.55 C 0.66667 km/h
1543 13-10-2014 14:00:00 16.925 C 13.95 g/m*3 16.93 C 0.93333 km/h
1544 13-10-2014 15:00:00 18.06667 C 13.56 g/m*3 18.07 C 3.21667 km/h
1545 13-10-2014 16:00:00 17.81667 C 13.04 g/m*3 17.82 C 4.16667 km/h
1546 13-10-2014 17:00:00 16.63333 C 12.98 g/m*3 16.63 C 0.93333 km/h
1547 13-10-2014 18:00:00 14.94167 C 12.12 g/m*3 14.94 C 0.13333 km/h
1548 13-10-2014 19:00:00 13.9 C 11.51 g/m*3 13.9 C 0.13333 km/h
1549 13-10-2014 20:00:00 13.325 C 11.11 g/m*3 13.33 C 0.26667 km/h
1550 13-10-2014 21:00:00 13.05 C 11.03 g/m*3 13.05 C 0.66667 km/h
Sensor: Nr:Datum:Temp:Abs-Feuchte:Windchill:Wind:
Aussen-T/F 1551 13-10-2014 22:00:00 12.55833 C 10.7 g/m*3 12.56 C 0 km/h
1552 13-10-2014 23:00:00 12.03333 C 10.42 g/m*3 12.03 C 0 km/h
1553 14-10-2014 00:00:00 11.69167 C 10.24 g/m*3 11.69 C 0 km/h
1554 14-10-2014 01:00:00 11.425 C 10.07 g/m*3 11.43 C 0 km/h
1555 14-10-2014 02:00:00 10.825 C 9.7 g/m*3 10.83 C 0 km/h
1556 14-10-2014 03:00:00 10.45 C 9.47 g/m*3 10.45 C 0 km/h
1557 14-10-2014 04:00:00 10.075 C 9.25 g/m*3 10.07 C 0 km/h
1558 14-10-2014 05:00:00 10.075 C 9.28 g/m*3 10.07 C 0.13333 km/h
1559 14-10-2014 06:00:00 10.275 C 9.46 g/m*3 10.28 C 0 km/h
1560 14-10-2014 07:00:00 10.29167 C 9.48 g/m*3 10.29 C 0 km/h
1561 14-10-2014 08:00:00 10.13333 C 9.37 g/m*3 10.13 C 0.93333 km/h
1562 14-10-2014 09:00:00 10.60833 C 9.67 g/m*3 10.61 C 0 km/h
1563 14-10-2014 10:00:00 11.6 C 10.29 g/m*3 11.6 C 0.4 km/h
1564 14-10-2014 11:00:00 12.775 C 11.07 g/m*3 12.78 C 0.26667 km/h
1565 14-10-2014 12:00:00 14.19167 C 11.88 g/m*3 14.19 C 0.66667 km/h
1566 14-10-2014 13:00:00 15.51667 C 12.37 g/m*3 15.52 C 1.34167 km/h
1567 14-10-2014 14:00:00 16.8 C 12.1 g/m*3 16.8 C 3.61667 km/h
1568 14-10-2014 15:00:00 17.25833 C 12.05 g/m*3 17.26 C 4.43333 km/h
1569 14-10-2014 16:00:00 17.23333 C 11.92 g/m*3 17.23 C 3.88333 km/h
1570 14-10-2014 17:00:00 15.65833 C 11.76 g/m*3 15.66 C 0.53333 km/h
1571 14-10-2014 18:00:00 14.10833 C 11.31 g/m*3 14.11 C 0.4 km/h
1572 14-10-2014 19:00:00 13.13333 C 10.82 g/m*3 13.13 C 0 km/h
1573 14-10-2014 20:00:00 12.37273 C 10.47 g/m*3 12.37 C 0 km/h
1574 14-10-2014 21:00:00 11.78333 C 10.18 g/m*3 11.78 C 0 km/h
1575 14-10-2014 22:00:00 11.44167 C 9.98 g/m*3 11.44 C 0 km/h
Sensor: Nr:Datum:Temp:Abs-Feuchte:Windchill:Wind:
Aussen-T/F 1576 14-10-2014 23:00:00 11.34167 C 10.01 g/m*3 11.34 C 0 km/h
1577 15-10-2014 00:00:00 11.45833 C 10.1 g/m*3 11.46 C 0.4 km/h
1578 15-10-2014 01:00:00 11.33333 C 10.02 g/m*3 11.33 C 1.46667 km/h
1579 15-10-2014 02:00:00 11.2 C 9.93 g/m*3 11.2 C 2.53333 km/h
1580 15-10-2014 03:00:00 11.025 C 9.82 g/m*3 11.03 C 0.66667 km/h
1581 15-10-2014 04:00:00 10.73333 C 9.62 g/m*3 10.73 C 0.4 km/h
1582 15-10-2014 05:00:00 10.09167 C 9.19 g/m*3 10.09 C 0.4 km/h
1583 15-10-2014 06:00:00 9.36667 C 8.77 g/m*3 9.37 C 1.86667 km/h
1584 15-10-2014 07:00:00 9.225 C 8.77 g/m*3 8.81 C 5.21667 km/h
1585 15-10-2014 08:00:00 9.28333 C 8.8 g/m*3 8.92 C 5.08333 km/h
1586 15-10-2014 09:00:00 9.40833 C 8.87 g/m*3 9.41 C 3.06667 km/h
1587 15-10-2014 10:00:00 9.5 C 8.92 g/m*3 9.5 C 0.93333 km/h
1588 15-10-2014 11:00:00 10.51667 C 9.56 g/m*3 10.52 C 0.26667 km/h
1589 15-10-2014 12:00:00 12.375 C 10.46 g/m*3 12.38 C 2.14167 km/h
1590 15-10-2014 13:00:00 14.18333 C 10.87 g/m*3 14.18 C 0.66667 km/h
1591 15-10-2014 14:00:00 15.30833 C 10.79 g/m*3 15.31 C 3.75833 km/h
1592 15-10-2014 15:00:00 14.58333 C 11.16 g/m*3 14.58 C 0 km/h
1593 15-10-2014 16:00:00 14.52 C 11.32 g/m*3 14.52 C 0.16 km/h
1594 15-10-2014 17:00:00 14.3 C 11.4 g/m*3 14.3 C 0 km/h
1595 15-10-2014 19:00:00 12.88333 C 10.58 g/m*3 12.88 C 0 km/h
1596 15-10-2014 20:00:00 12.50833 C 10.41 g/m*3 12.51 C 0 km/h
1597 15-10-2014 21:00:00 12.31667 C 10.33 g/m*3 12.32 C 0 km/h
1598 15-10-2014 22:00:00 12.1 C 10.29 g/m*3 12.1 C 0 km/h
1599 15-10-2014 23:00:00 12.11667 C 10.39 g/m*3 12.12 C 0 km/h
1600 16-10-2014 00:00:00 12.425 C 10.65 g/m*3 12.43 C 0.4 km/h
Sensor: Nr:Datum:Temp:Abs-Feuchte:Windchill:Wind:
Aussen-T/F 1601 16-10-2014 01:00:00 12.65833 C 10.88 g/m*3 12.66 C 0 km/h
1602 16-10-2014 02:00:00 12.575 C 10.82 g/m*3 12.58 C 0.13333 km/h
1603 16-10-2014 03:00:00 12.475 C 10.76 g/m*3 12.48 C 0 km/h
1604 16-10-2014 04:00:00 12.4 C 10.71 g/m*3 12.4 C 0.13333 km/h
1605 16-10-2014 05:00:00 12.625 C 10.86 g/m*3 12.63 C 0 km/h
1606 16-10-2014 06:00:00 12.69167 C 10.97 g/m*3 12.69 C 0 km/h
1607 16-10-2014 07:00:00 12.81667 C 11.1 g/m*3 12.82 C 0 km/h
1608 16-10-2014 10:00:00 14.46667 C 12.08 g/m*3 14.47 C 4.26667 km/h
1609 16-10-2014 11:00:00 16.00909 C 12.37 g/m*3 16.01 C 7.90909 km/h
1610 16-10-2014 12:00:00 16.45 C 12.46 g/m*3 16.45 C 3.8 km/h
1611 16-10-2014 13:00:00 15.58182 C 12.51 g/m*3 15.58 C 3.5 km/h
1612 16-10-2014 14:00:00 16.55 C 12.98 g/m*3 16.55 C 3.46667 km/h
1613 16-10-2014 15:00:00 16.4 C 12.7 g/m*3 16.4 C 5.65 km/h
1614 16-10-2014 16:00:00 17 C 12.43 g/m*3 17 C 4.1 km/h
1615 16-10-2014 17:00:00 16.66 C 12.38 g/m*3 16.66 C 2.56 km/h
1616 16-10-2014 18:00:00 15.5125 C 11.99 g/m*3 15.51 C 1.6 km/h
1617 16-10-2014 19:00:00 14.625 C 11.94 g/m*3 14.63 C 0.2 km/h
1618 16-10-2014 20:00:00 14.55833 C 11.76 g/m*3 14.56 C 0.13333 km/h
1619 16-10-2014 21:00:00 14.33333 C 11.53 g/m*3 14.33 C 0 km/h
1620 16-10-2014 22:00:00 13.35833 C 11.13 g/m*3 13.36 C 0 km/h
1621 16-10-2014 23:00:00 12.96667 C 10.98 g/m*3 12.97 C 0 km/h
1622 17-10-2014 00:00:00 12.79167 C 10.92 g/m*3 12.79 C 0 km/h
1623 17-10-2014 01:00:00 12.83333 C 11 g/m*3 12.83 C 0 km/h
1624 17-10-2014 02:00:00 12.825 C 10.99 g/m*3 12.83 C 0 km/h
1625 17-10-2014 03:00:00 12.81667 C 10.99 g/m*3 12.82 C 0 km/h
Sensor: Nr:Datum:Temp:Abs-Feuchte:Windchill:Wind:
Aussen-T/F 1626 17-10-2014 04:00:00 12.83333 C 11 g/m*3 12.83 C 0 km/h
1627 17-10-2014 05:00:00 12.9 C 11.05 g/m*3 12.9 C 0 km/h
1628 17-10-2014 06:00:00 13.075 C 11.21 g/m*3 13.08 C 0 km/h
1629 17-10-2014 07:00:00 12.925 C 11.06 g/m*3 12.93 C 0 km/h
1630 17-10-2014 08:00:00 12.86667 C 11.06 g/m*3 12.87 C 0 km/h
1631 17-10-2014 09:00:00 13.70833 C 11.32 g/m*3 13.71 C 4.55833 km/h
1632 17-10-2014 11:00:00 15.1 C 11.83 g/m*3 15.1 C 6.43333 km/h
1633 17-10-2014 12:00:00 15.85833 C 12.1 g/m*3 15.86 C 6.575 km/h
1634 17-10-2014 13:00:00 16.85833 C 12.42 g/m*3 16.86 C 11.025 km/h
1635 17-10-2014 14:00:00 17.13333 C 12.45 g/m*3 17.13 C 10.08333 km/h
1636 17-10-2014 15:00:00 17.075 C 12.25 g/m*3 17.08 C 7.5 km/h
1637 17-10-2014 16:00:00 17.1 C 12.48 g/m*3 17.1 C 4.55833 km/h
1638 17-10-2014 17:00:00 16.49167 C 12.16 g/m*3 16.49 C 2.53333 km/h
1639 17-10-2014 18:00:00 15.46667 C 11.85 g/m*3 15.47 C 0.66667 km/h
1640 17-10-2014 19:00:00 14.44167 C 11.53 g/m*3 14.44 C 0 km/h
1641 17-10-2014 20:00:00 13.16667 C 10.96 g/m*3 13.17 C 0 km/h
1642 17-10-2014 21:00:00 12.33333 C 10.55 g/m*3 12.33 C 0 km/h
1643 17-10-2014 22:00:00 11.7 C 10.15 g/m*3 11.7 C 0 km/h
1644 17-10-2014 23:00:00 11.25833 C 9.94 g/m*3 11.26 C 0 km/h
1645 18-10-2014 00:00:00 11.1 C 9.87 g/m*3 11.1 C 0 km/h
1646 18-10-2014 01:00:00 10.55 C 9.53 g/m*3 10.55 C 0 km/h
1647 18-10-2014 02:00:00 10.15 C 9.3 g/m*3 10.15 C 0 km/h
1648 18-10-2014 03:00:00 9.775 C 9.08 g/m*3 9.78 C 0 km/h
1649 18-10-2014 04:00:00 9.83333 C 9.11 g/m*3 9.83 C 0 km/h
1650 18-10-2014 05:00:00 9.875 C 9.14 g/m*3 9.88 C 0 km/h
Sensor: Nr:Datum:Temp:Abs-Feuchte:Windchill:Wind:
Aussen-T/F 1651 18-10-2014 06:00:00 9.55 C 8.96 g/m*3 9.55 C 0 km/h
1652 18-10-2014 07:00:00 9.925 C 9.23 g/m*3 9.93 C 0 km/h
1653 18-10-2014 08:00:00 10.31667 C 9.49 g/m*3 10.32 C 0 km/h
1654 18-10-2014 09:00:00 10.44167 C 9.57 g/m*3 10.44 C 0 km/h
1655 18-10-2014 10:00:00 10.6 C 9.66 g/m*3 10.6 C 0 km/h
1656 18-10-2014 11:00:00 11.25714 C 10.07 g/m*3 11.26 C 0 km/h
1657 18-10-2014 13:00:00 15.16667 C 12.82 g/m*3 15.17 C 0 km/h
1658 18-10-2014 14:00:00 15.875 C 13.33 g/m*3 15.88 C 0 km/h
1659 18-10-2014 15:00:00 16.45833 C 13.67 g/m*3 16.46 C 0 km/h
1660 18-10-2014 16:00:00 16.75 C 13.72 g/m*3 16.75 C 0 km/h
1661 18-10-2014 17:00:00 16.36667 C 13.37 g/m*3 16.37 C 0 km/h
1662 18-10-2014 18:00:00 15.69167 C 12.79 g/m*3 15.69 C 1.06667 km/h
1663 18-10-2014 19:00:00 15.05 C 12.23 g/m*3 15.05 C 1.73333 km/h
1664 18-10-2014 20:00:00 14.21667 C 11.81 g/m*3 14.22 C 0.53333 km/h
1665 18-10-2014 21:00:00 13.55833 C 11.43 g/m*3 13.56 C 0 km/h
1666 18-10-2014 22:00:00 13.20833 C 11.26 g/m*3 13.21 C 0 km/h
1667 18-10-2014 23:00:00 12.575 C 10.82 g/m*3 12.58 C 0 km/h
1668 19-10-2014 00:00:00 12.15833 C 10.55 g/m*3 12.16 C 0 km/h
1669 19-10-2014 01:00:00 11.71667 C 10.26 g/m*3 11.72 C 0 km/h
1670 19-10-2014 02:00:00 11.41667 C 10.1 g/m*3 11.42 C 0.26667 km/h
1671 19-10-2014 03:00:00 11.19167 C 9.95 g/m*3 11.19 C 0 km/h
1672 19-10-2014 04:00:00 10.91667 C 9.81 g/m*3 10.92 C 0 km/h
1673 19-10-2014 05:00:00 10.74167 C 9.75 g/m*3 10.74 C 0 km/h
1674 19-10-2014 06:00:00 10.43333 C 9.56 g/m*3 10.43 C 0 km/h
1675 19-10-2014 07:00:00 10.31667 C 9.49 g/m*3 10.32 C 0.13333 km/h
Sensor: Nr:Datum:Temp:Abs-Feuchte:Windchill:Wind:
Aussen-T/F 1676 19-10-2014 08:00:00 10.675 C 9.71 g/m*3 10.68 C 0 km/h
1677 19-10-2014 09:00:00 11.05833 C 9.95 g/m*3 11.06 C 0 km/h
1678 19-10-2014 10:00:00 11.55833 C 10.26 g/m*3 11.56 C 0 km/h
1679 19-10-2014 11:00:00 13.34167 C 11.47 g/m*3 13.34 C 0.93333 km/h
1680 19-10-2014 12:00:00 15.36667 C 12.99 g/m*3 15.37 C 6.7 km/h
1681 19-10-2014 13:00:00 18.25 C 14.19 g/m*3 18.25 C 5.75833 km/h
1682 19-10-2014 14:00:00 19.70833 C 14.38 g/m*3 19.71 C 10.89167 km/h
1683 19-10-2014 15:00:00 20.43333 C 14.59 g/m*3 20.43 C 10.2 km/h
1684 19-10-2014 16:00:00 19.74167 C 14.57 g/m*3 19.74 C 5.09167 km/h
1685 19-10-2014 17:00:00 19.98333 C 14.53 g/m*3 19.98 C 6.03333 km/h
1686 19-10-2014 18:00:00 19.5 C 14.25 g/m*3 19.5 C 5.76667 km/h
1687 19-10-2014 19:00:00 18.36667 C 13.92 g/m*3 18.37 C 4.28333 km/h
1688 19-10-2014 20:00:00 18.30833 C 13.75 g/m*3 18.31 C 5.90833 km/h
1689 19-10-2014 21:00:00 19.21667 C 13.7 g/m*3 19.22 C 12.89167 km/h
1690 19-10-2014 22:00:00 18.925 C 13.74 g/m*3 18.93 C 13.15833 km/h
1691 19-10-2014 23:00:00 19.00833 C 13.89 g/m*3 19.01 C 11.81667 km/h
1692 20-10-2014 00:00:00 17.85833 C 13.81 g/m*3 17.86 C 2.41667 km/h
1693 20-10-2014 01:00:00 18.16667 C 11.88 g/m*3 18.17 C 11.40833 km/h
1694 20-10-2014 02:00:00 16.8 C 11.54 g/m*3 16.8 C 4.41667 km/h
1695 20-10-2014 03:00:00 16.4 C 11.29 g/m*3 16.4 C 4.13333 km/h
1696 20-10-2014 04:00:00 15.29167 C 11.19 g/m*3 15.29 C 2.26667 km/h
1697 20-10-2014 05:00:00 14.85 C 11.12 g/m*3 14.85 C 1.2 km/h
1698 20-10-2014 06:00:00 14.19167 C 11.05 g/m*3 14.19 C 1.2 km/h
1699 20-10-2014 07:00:00 14.2 C 11.22 g/m*3 14.2 C 0.13333 km/h
1700 20-10-2014 08:00:00 13.75833 C 11.13 g/m*3 13.76 C 0.53333 km/h
Sensor: Nr:Datum:Temp:Abs-Feuchte:Windchill:Wind:
Aussen-T/F 1701 20-10-2014 09:00:00 14.03333 C 11.36 g/m*3 14.03 C 0 km/h
1702 20-10-2014 10:00:00 14.6 C 11.54 g/m*3 14.6 C 1.24444 km/h
1703 20-10-2014 11:00:00 16.35833 C 11.07 g/m*3 16.36 C 9.53333 km/h
1704 20-10-2014 12:00:00 16.88333 C 10.11 g/m*3 16.88 C 10.88333 km/h
1705 20-10-2014 13:00:00 17.7 C 10.11 g/m*3 17.7 C 9.275 km/h
1706 20-10-2014 14:00:00 17.40833 C 10.06 g/m*3 17.41 C 7.11667 km/h
1707 20-10-2014 15:00:00 17.325 C 10.2 g/m*3 17.33 C 5.09167 km/h
1708 20-10-2014 16:00:00 17.03333 C 10.25 g/m*3 17.03 C 1.6 km/h
1709 20-10-2014 18:00:00 13.88889 C 10.38 g/m*3 13.89 C 1.95556 km/h
1710 20-10-2014 19:00:00 13.18333 C 9.92 g/m*3 13.18 C 2.13333 km/h
1711 20-10-2014 20:00:00 12.2 C 9.69 g/m*3 12.2 C 0.93333 km/h
1712 20-10-2014 21:00:00 11.59167 C 9.53 g/m*3 11.59 C 1.2 km/h
1713 20-10-2014 22:00:00 11.61667 C 9.52 g/m*3 11.62 C 2.00833 km/h
1714 20-10-2014 23:00:00 12.11667 C 9.58 g/m*3 12.12 C 2.66667 km/h
1715 21-10-2014 00:00:00 12.375 C 9.5 g/m*3 12.38 C 3.2 km/h
1716 21-10-2014 01:00:00 10.89167 C 9.16 g/m*3 10.89 C 1.74167 km/h
1717 21-10-2014 02:00:00 11.04167 C 9.2 g/m*3 11.04 C 2.13333 km/h
1718 21-10-2014 03:00:00 10.775 C 9.1 g/m*3 10.78 C 3.6 km/h
1719 21-10-2014 04:00:00 10.475 C 9.05 g/m*3 9.5 C 8.33333 km/h
1720 21-10-2014 05:00:00 11.01667 C 9.14 g/m*3 11.02 C 4.80833 km/h
1721 21-10-2014 06:00:00 11.5 C 9.3 g/m*3 11.5 C 6.3 km/h
1722 21-10-2014 07:00:00 11.71667 C 9.35 g/m*3 11.72 C 1.6 km/h
1723 21-10-2014 08:00:00 11.71667 C 9.54 g/m*3 11.72 C 0.66667 km/h
1724 21-10-2014 09:00:00 12.35833 C 9.73 g/m*3 12.36 C 1.6 km/h
1725 21-10-2014 10:00:00 13.2 C 9.67 g/m*3 13.2 C 10.08333 km/h
Sensor: Nr:Datum:Temp:Abs-Feuchte:Windchill:Wind:
Aussen-T/F 1726 21-10-2014 11:00:00 13.32222 C 9.71 g/m*3 13.32 C 5.71111 km/h
1727 21-10-2014 12:00:00 14.00833 C 9.53 g/m*3 14.01 C 13.81667 km/h
1728 21-10-2014 13:00:00 14.175 C 9.17 g/m*3 14.18 C 17.05 km/h
1729 21-10-2014 14:00:00 13.79167 C 9.65 g/m*3 13.79 C 19.71667 km/h
1730 21-10-2014 15:00:00 13.54167 C 10.28 g/m*3 13.54 C 12.21667 km/h
1731 21-10-2014 16:00:00 13.70833 C 10.64 g/m*3 13.71 C 7.8 km/h
1732 21-10-2014 17:00:00 13.11667 C 9.87 g/m*3 13.12 C 17.84167 km/h
1733 21-10-2014 18:00:00 11.76667 C 8.38 g/m*3 11.77 C 12.61667 km/h
1734 21-10-2014 19:00:00 11.11667 C 7.79 g/m*3 11.12 C 16.23333 km/h
1735 21-10-2014 20:00:00 10.00833 C 7.1 g/m*3 7.87 C 15.43333 km/h
1736 21-10-2014 21:00:00 9.41667 C 7.09 g/m*3 7.52 C 12.625 km/h
1737 21-10-2014 22:00:00 9.2 C 6.99 g/m*3 7.43 C 11.43333 km/h
1738 21-10-2014 23:00:00 8.98333 C 7.01 g/m*3 6.8 C 13.96667 km/h
1739 22-10-2014 00:00:00 8.68333 C 7.12 g/m*3 6.84 C 11.28333 km/h
1740 22-10-2014 01:00:00 8.61667 C 6.97 g/m*3 6.46 C 13.16667 km/h
1741 22-10-2014 02:00:00 8.66667 C 7.14 g/m*3 6.15 C 15.96667 km/h
1742 22-10-2014 03:00:00 7.60833 C 7.19 g/m*3 5.79 C 9.94167 km/h
1743 22-10-2014 04:00:00 6.84167 C 6.93 g/m*3 4.66 C 11.025 km/h
1744 22-10-2014 05:00:00 7.01667 C 6.75 g/m*3 4.73 C 11.81667 km/h
1745 22-10-2014 06:00:00 7.21667 C 6.73 g/m*3 4.93 C 12.1 km/h
1746 22-10-2014 07:00:00 7.725 C 6.84 g/m*3 5.35 C 13.3 km/h
1747 22-10-2014 08:00:00 8.2 C 6.95 g/m*3 5.84 C 13.96667 km/h
1748 22-10-2014 09:00:00 7.875 C 7.07 g/m*3 4.94 C 17.83333 km/h
1749 22-10-2014 10:00:00 7.20833 C 7.1 g/m*3 5.23 C 10.35 km/h
1750 22-10-2014 11:00:00 7.725 C 7.46 g/m*3 6.26 C 8.33333 km/h
Sensor: Nr:Datum:Temp:Abs-Feuchte:Windchill:Wind:
Aussen-T/F 1751 22-10-2014 12:00:00 8.95833 C 7.59 g/m*3 6.92 C 12.89167 km/h
1752 22-10-2014 13:00:00 9.96667 C 7.67 g/m*3 7.8 C 15.56667 km/h
1753 22-10-2014 14:00:00 10.7 C 7.73 g/m*3 8.51 C 17.43333 km/h
1754 22-10-2014 15:00:00 10.83333 C 7.82 g/m*3 8.57 C 18.50833 km/h
1755 22-10-2014 16:00:00 11.25833 C 7.69 g/m*3 11.26 C 19.575 km/h
1756 22-10-2014 17:00:00 11.03333 C 7.81 g/m*3 11.03 C 15.96667 km/h
1757 22-10-2014 18:00:00 10.425 C 7.93 g/m*3 8.84 C 11.95 km/h
1758 22-10-2014 19:00:00 9.38333 C 8.3 g/m*3 9.38 C 3.48333 km/h
1759 22-10-2014 20:00:00 9.31667 C 8.15 g/m*3 8.44 C 6.95833 km/h
1760 22-10-2014 21:00:00 9.39167 C 8.07 g/m*3 8.69 C 6.31667 km/h
1761 22-10-2014 22:00:00 9.46667 C 8.06 g/m*3 8.67 C 6.71667 km/h
1762 22-10-2014 23:00:00 9.10833 C 8.03 g/m*3 9.11 C 2.4 km/h
1763 23-10-2014 00:00:00 8.79167 C 7.97 g/m*3 8.79 C 1.33333 km/h
1764 23-10-2014 01:00:00 9.16667 C 8.12 g/m*3 9.17 C 2.00833 km/h
1765 23-10-2014 02:00:00 9.05 C 8.11 g/m*3 9.05 C 0.93333 km/h
1766 23-10-2014 03:00:00 8.95 C 8.06 g/m*3 8.95 C 0.26667 km/h
1767 23-10-2014 04:00:00 9 C 7.88 g/m*3 9 C 0.93333 km/h
1768 23-10-2014 05:00:00 8.05833 C 7.6 g/m*3 8.06 C 0.93333 km/h
1769 23-10-2014 06:00:00 8.44167 C 7.83 g/m*3 8.44 C 0.26667 km/h
1770 23-10-2014 07:00:00 8.58333 C 7.95 g/m*3 8.58 C 0.66667 km/h
1771 23-10-2014 08:00:00 8.65833 C 8.05 g/m*3 8.66 C 0.4 km/h
1772 23-10-2014 09:00:00 9.05 C 8.1 g/m*3 9.05 C 2.26667 km/h
1773 23-10-2014 10:00:00 9.425 C 8.29 g/m*3 9.43 C 4.54167 km/h
1774 23-10-2014 11:00:00 10.24167 C 8.51 g/m*3 9.3 C 7.93333 km/h
1775 23-10-2014 12:00:00 11.15833 C 8.6 g/m*3 11.16 C 11.025 km/h
Sensor: Nr:Datum:Temp:Abs-Feuchte:Windchill:Wind:
Aussen-T/F 1776 23-10-2014 13:00:00 12.1 C 8.7 g/m*3 12.1 C 8.625 km/h
1777 23-10-2014 14:00:00 12.55833 C 8.71 g/m*3 12.56 C 7.79167 km/h
1778 23-10-2014 15:00:00 12.84167 C 8.9 g/m*3 12.84 C 4.94167 km/h
1779 23-10-2014 16:00:00 12.65833 C 8.84 g/m*3 12.66 C 5.09167 km/h
1780 23-10-2014 17:00:00 12.125 C 8.91 g/m*3 12.13 C 2.8 km/h
1781 23-10-2014 18:00:00 11.7 C 8.96 g/m*3 11.7 C 2.275 km/h
1782 23-10-2014 19:00:00 11.43333 C 8.97 g/m*3 11.43 C 0.66667 km/h
1783 23-10-2014 20:00:00 11.36667 C 9.02 g/m*3 11.37 C 0.4 km/h
1784 23-10-2014 21:00:00 11.35833 C 9.01 g/m*3 11.36 C 1.73333 km/h
1785 23-10-2014 22:00:00 11.33333 C 8.99 g/m*3 11.33 C 3.48333 km/h
1786 23-10-2014 23:00:00 11.10833 C 9.04 g/m*3 11.11 C 0.13333 km/h
1787 24-10-2014 00:00:00 10.725 C 9.08 g/m*3 10.73 C 0 km/h
1788 24-10-2014 01:00:00 10.675 C 9 g/m*3 10.68 C 0.13333 km/h
1789 24-10-2014 02:00:00 10.53333 C 8.98 g/m*3 10.53 C 0 km/h
1790 24-10-2014 03:00:00 10.34167 C 8.97 g/m*3 10.34 C 0 km/h
1791 24-10-2014 04:00:00 9.98333 C 8.82 g/m*3 9.98 C 0 km/h
1792 24-10-2014 05:00:00 9.54167 C 8.65 g/m*3 9.54 C 0.13333 km/h
1793 24-10-2014 06:00:00 8.83333 C 8.26 g/m*3 8.83 C 0 km/h
1794 24-10-2014 07:00:00 7.95 C 7.87 g/m*3 7.95 C 0 km/h
1795 24-10-2014 08:00:00 7.575 C 7.72 g/m*3 7.58 C 0 km/h
1796 24-10-2014 09:00:00 7.45 C 7.66 g/m*3 7.45 C 0 km/h
1797 24-10-2014 10:00:00 7.95833 C 7.99 g/m*3 7.96 C 0 km/h
1798 24-10-2014 11:00:00 9.00833 C 8.56 g/m*3 9.01 C 0.13333 km/h
1799 24-10-2014 12:00:00 10.71667 C 9.28 g/m*3 10.72 C 0.66667 km/h
1800 24-10-2014 13:00:00 13.15 C 9.4 g/m*3 13.15 C 4.15 km/h
Sensor: Nr:Datum:Temp:Abs-Feuchte:Windchill:Wind:
Aussen-T/F 1801 24-10-2014 14:00:00 14.11667 C 9.24 g/m*3 14.12 C 4.00833 km/h
1802 24-10-2014 15:00:00 14.34167 C 8.95 g/m*3 14.34 C 3.46667 km/h
1803 24-10-2014 16:00:00 13.88333 C 9.14 g/m*3 13.88 C 2 km/h
1804 24-10-2014 17:00:00 12.90833 C 9.19 g/m*3 12.91 C 1.73333 km/h
1805 24-10-2014 18:00:00 11.36667 C 8.89 g/m*3 11.37 C 1.06667 km/h
1806 24-10-2014 19:00:00 11.01667 C 8.97 g/m*3 11.02 C 0.66667 km/h
1807 24-10-2014 20:00:00 10.975 C 9.04 g/m*3 10.98 C 0.53333 km/h
1808 24-10-2014 21:00:00 10.59167 C 9.1 g/m*3 10.59 C 0.26667 km/h
1809 24-10-2014 22:00:00 10.30833 C 9.03 g/m*3 10.31 C 0 km/h
1810 24-10-2014 23:00:00 10.23333 C 9.06 g/m*3 10.23 C 0 km/h
1811 25-10-2014 00:00:00 10.28333 C 9.1 g/m*3 10.28 C 0 km/h
1812 25-10-2014 01:00:00 10.08333 C 9.07 g/m*3 10.08 C 0 km/h
1813 25-10-2014 02:00:00 9.875 C 9 g/m*3 9.88 C 0 km/h
1814 25-10-2014 03:00:00 10.05 C 9.14 g/m*3 10.05 C 0 km/h
1815 25-10-2014 04:00:00 10.1 C 9.17 g/m*3 10.1 C 0 km/h
1816 25-10-2014 05:00:00 9.96667 C 9.1 g/m*3 9.97 C 0 km/h
1817 25-10-2014 06:00:00 9.85833 C 8.98 g/m*3 9.86 C 0.4 km/h
1818 25-10-2014 07:00:00 9.91667 C 8.99 g/m*3 9.92 C 0 km/h
1819 25-10-2014 08:00:00 9.96667 C 9.1 g/m*3 9.97 C 0.26667 km/h
1820 25-10-2014 09:00:00 10.325 C 9.3 g/m*3 10.33 C 1.2 km/h
1821 25-10-2014 10:00:00 10.975 C 9.63 g/m*3 10.98 C 4.55833 km/h
1822 25-10-2014 11:00:00 11.825 C 9.93 g/m*3 11.83 C 8.60833 km/h
1823 25-10-2014 12:00:00 12.4 C 10.05 g/m*3 12.4 C 6.15 km/h
1824 25-10-2014 13:00:00 13.1 C 10.28 g/m*3 13.1 C 4.13333 km/h
1825 25-10-2014 14:00:00 13.39167 C 10.4 g/m*3 13.39 C 6.44167 km/h
Sensor: Nr:Datum:Temp:Abs-Feuchte:Windchill:Wind:
Aussen-T/F 1826 25-10-2014 15:00:00 13.325 C 10.39 g/m*3 13.33 C 6.99167 km/h
1827 25-10-2014 16:00:00 13.28333 C 10.44 g/m*3 13.28 C 2.94167 km/h
1828 25-10-2014 17:00:00 13.14167 C 10.43 g/m*3 13.14 C 1.075 km/h
1829 25-10-2014 18:00:00 12.825 C 10.41 g/m*3 12.83 C 0.93333 km/h
1830 25-10-2014 19:00:00 12.64167 C 10.39 g/m*3 12.64 C 0.66667 km/h
1831 25-10-2014 20:00:00 12.50833 C 10.4 g/m*3 12.51 C 0 km/h
1832 25-10-2014 21:00:00 12.35 C 10.44 g/m*3 12.35 C 0 km/h
1833 25-10-2014 22:00:00 12.26667 C 10.47 g/m*3 12.27 C 0 km/h
1834 25-10-2014 23:00:00 12.275 C 10.52 g/m*3 12.28 C 0.26667 km/h
1835 26-10-2014 00:00:00 12.21667 C 10.51 g/m*3 12.22 C 0 km/h
1836 26-10-2014 01:00:00 12.2 C 10.54 g/m*3 12.2 C 0 km/h
1837 26-10-2014 02:00:00 11.98333 C 10.4 g/m*3 11.98 C 0 km/h
1838 26-10-2014 04:00:00 10.87391 C 9.72 g/m*3 10.87 C 0 km/h
1839 26-10-2014 05:00:00 11.01538 C 9.82 g/m*3 11.02 C 0 km/h
1840 26-10-2014 06:00:00 10.8 C 9.69 g/m*3 10.8 C 0.13333 km/h
1841 26-10-2014 07:00:00 10.65833 C 9.6 g/m*3 10.66 C 0.8 km/h
1842 26-10-2014 08:00:00 11 C 9.81 g/m*3 11 C 1.33333 km/h
1843 26-10-2014 09:00:00 11.61667 C 10.03 g/m*3 11.62 C 3.2 km/h
1844 26-10-2014 10:00:00 12.18333 C 10.04 g/m*3 12.18 C 4.13333 km/h
1845 26-10-2014 11:00:00 12.50833 C 10.12 g/m*3 12.51 C 0.4 km/h
1846 26-10-2014 12:00:00 13.15 C 10.52 g/m*3 13.15 C 0.13333 km/h
1847 26-10-2014 13:00:00 12.875 C 10.24 g/m*3 12.88 C 0.4 km/h
1848 26-10-2014 14:00:00 13.3 C 10.52 g/m*3 13.3 C 0.26667 km/h
1849 26-10-2014 15:00:00 13.16667 C 10.42 g/m*3 13.17 C 0 km/h
1850 26-10-2014 16:00:00 12.65833 C 10.22 g/m*3 12.66 C 0.26667 km/h
Sensor: Nr:Datum:Temp:Abs-Feuchte:Windchill:Wind:
Aussen-T/F 1851 26-10-2014 17:00:00 11.74167 C 9.8 g/m*3 11.74 C 0.4 km/h
1852 26-10-2014 18:00:00 10.95833 C 9.49 g/m*3 10.96 C 0 km/h
1853 26-10-2014 19:00:00 10.25 C 9.16 g/m*3 10.25 C 0 km/h
1854 26-10-2014 20:00:00 9.6 C 8.85 g/m*3 9.6 C 0 km/h
1855 26-10-2014 21:00:00 9.10833 C 8.61 g/m*3 9.11 C 0 km/h
1856 26-10-2014 22:00:00 8.925 C 8.57 g/m*3 8.93 C 0.26667 km/h
1857 26-10-2014 23:00:00 8.875 C 8.56 g/m*3 8.88 C 0.13333 km/h
1858 27-10-2014 00:00:00 8.525 C 8.38 g/m*3 8.53 C 0 km/h
1859 27-10-2014 01:00:00 8.39167 C 8.31 g/m*3 8.39 C 0.13333 km/h
1860 27-10-2014 02:00:00 8.08333 C 8.15 g/m*3 8.08 C 0.13333 km/h
1861 27-10-2014 03:00:00 7.99167 C 8.1 g/m*3 7.99 C 0 km/h
1862 27-10-2014 04:00:00 7.85833 C 8.03 g/m*3 7.86 C 0.53333 km/h
1863 27-10-2014 05:00:00 8.01667 C 8.11 g/m*3 8.02 C 0.8 km/h
1864 27-10-2014 06:00:00 8.19167 C 8.27 g/m*3 8.19 C 0.13333 km/h
1865 27-10-2014 07:00:00 8.45 C 8.38 g/m*3 8.45 C 0 km/h
1866 27-10-2014 08:00:00 8.71667 C 8.57 g/m*3 8.72 C 1.2 km/h
1867 27-10-2014 09:00:00 8.8 C 8.62 g/m*3 8.8 C 4.53333 km/h
1868 27-10-2014 10:00:00 9.05 C 8.76 g/m*3 9.05 C 3.06667 km/h
1869 27-10-2014 11:00:00 9.8 C 9.19 g/m*3 9.8 C 0.66667 km/h
1870 27-10-2014 12:00:00 10.80833 C 9.79 g/m*3 10.81 C 0.66667 km/h
1871 27-10-2014 13:00:00 11.85 C 9.88 g/m*3 11.85 C 4.81667 km/h
1872 27-10-2014 14:00:00 12.59167 C 9.72 g/m*3 12.59 C 3.46667 km/h
1873 27-10-2014 15:00:00 12.21667 C 9.39 g/m*3 12.22 C 2 km/h
1874 27-10-2014 16:00:00 11.14167 C 8.96 g/m*3 11.14 C 3.475 km/h
1875 27-10-2014 17:00:00 9.86667 C 8.49 g/m*3 9.87 C 1.33333 km/h
Sensor: Nr:Datum:Temp:Abs-Feuchte:Windchill:Wind:
Aussen-T/F 1876 27-10-2014 18:00:00 8.4 C 8.06 g/m*3 8.4 C 0 km/h
1877 27-10-2014 19:00:00 8.08333 C 7.99 g/m*3 8.08 C 0 km/h
1878 27-10-2014 20:00:00 8.36667 C 8.21 g/m*3 8.37 C 0 km/h
1879 27-10-2014 21:00:00 8.69167 C 8.38 g/m*3 8.69 C 0 km/h
1880 27-10-2014 22:00:00 8.76667 C 8.37 g/m*3 8.77 C 0.66667 km/h
1881 27-10-2014 23:00:00 8.81667 C 8.36 g/m*3 8.82 C 0 km/h
1882 28-10-2014 00:00:00 8.8 C 8.31 g/m*3 8.8 C 0 km/h
1883 28-10-2014 01:00:00 8.775 C 8.23 g/m*3 8.78 C 1.73333 km/h
1884 28-10-2014 02:00:00 8.75 C 7.92 g/m*3 8.75 C 1.6 km/h
1885 28-10-2014 03:00:00 8.44167 C 7.62 g/m*3 8.44 C 2.26667 km/h
1886 28-10-2014 04:00:00 8.275 C 7.53 g/m*3 8.28 C 1.06667 km/h
1887 28-10-2014 05:00:00 8.11667 C 7.36 g/m*3 8.12 C 2.54167 km/h
1888 28-10-2014 06:00:00 7.93333 C 7.35 g/m*3 7.93 C 1.33333 km/h
1889 28-10-2014 07:00:00 7.81667 C 7.31 g/m*3 7.82 C 1.46667 km/h
1890 28-10-2014 08:00:00 7.95 C 7.22 g/m*3 7.95 C 1.6 km/h
1891 28-10-2014 09:00:00 8.26667 C 7.26 g/m*3 8.27 C 3.2 km/h
1892 28-10-2014 10:00:00 8.425 C 7.24 g/m*3 8.43 C 3.46667 km/h
1893 28-10-2014 11:00:00 8.425 C 7.14 g/m*3 8.43 C 4.28333 km/h
1894 28-10-2014 12:00:00 8.66667 C 7.17 g/m*3 7.58 C 7.39167 km/h
1895 28-10-2014 13:00:00 8.525 C 7.07 g/m*3 7.73 C 6.15833 km/h
1896 28-10-2014 14:00:00 8.45 C 7.07 g/m*3 7.64 C 6.15833 km/h
1897 28-10-2014 15:00:00 8.31667 C 7.12 g/m*3 8.32 C 3.33333 km/h
1898 28-10-2014 16:00:00 8.05 C 7.06 g/m*3 8.05 C 1.46667 km/h
1899 28-10-2014 17:00:00 7.63333 C 6.98 g/m*3 7.63 C 1.33333 km/h
1900 28-10-2014 18:00:00 6.11667 C 6.69 g/m*3 6.12 C 0 km/h
Sensor: Nr:Datum:Temp:Abs-Feuchte:Windchill:Wind:
Aussen-T/F 1901 28-10-2014 19:00:00 5.04167 C 6.42 g/m*3 5.04 C 0.53333 km/h
1902 28-10-2014 20:00:00 6.425 C 6.9 g/m*3 6.43 C 1.73333 km/h
1903 28-10-2014 21:00:00 7.4 C 7.16 g/m*3 7.4 C 1.86667 km/h
1904 28-10-2014 22:00:00 7.8 C 7.22 g/m*3 7.8 C 2.14167 km/h
1905 28-10-2014 23:00:00 8.08333 C 7.37 g/m*3 8.08 C 1.46667 km/h
1906 29-10-2014 00:00:00 8.6 C 7.56 g/m*3 8.6 C 1.33333 km/h
1907 29-10-2014 01:00:00 8.79167 C 7.66 g/m*3 8.79 C 1.46667 km/h
1908 29-10-2014 02:00:00 8.85833 C 7.73 g/m*3 8.86 C 0.13333 km/h
1909 29-10-2014 03:00:00 8.70833 C 7.84 g/m*3 8.71 C 0 km/h
1910 29-10-2014 04:00:00 9.1 C 7.97 g/m*3 9.1 C 1.33333 km/h
1911 29-10-2014 05:00:00 8.6 C 7.73 g/m*3 8.6 C 0.4 km/h
1912 29-10-2014 06:00:00 7.11667 C 7.29 g/m*3 7.12 C 0.13333 km/h
1913 29-10-2014 07:00:00 6.04167 C 6.93 g/m*3 6.04 C 0 km/h
1914 29-10-2014 08:00:00 5.81667 C 6.9 g/m*3 5.82 C 0 km/h
1915 29-10-2014 09:00:00 6.89167 C 7.45 g/m*3 6.89 C 0.8 km/h
1916 29-10-2014 10:00:00 8.325 C 7.85 g/m*3 8.32 C 3.08333 km/h
1917 29-10-2014 11:00:00 9.74167 C 8.31 g/m*3 9.74 C 2.81667 km/h
1918 29-10-2014 12:00:00 10.14167 C 8.64 g/m*3 10.14 C 0.26667 km/h
1919 29-10-2014 13:00:00 11.775 C 8.95 g/m*3 11.78 C 3.74167 km/h
1920 29-10-2014 14:00:00 12.80833 C 9.09 g/m*3 12.81 C 9.00833 km/h
1921 29-10-2014 15:00:00 12.075 C 8.99 g/m*3 12.08 C 6.70833 km/h
1922 29-10-2014 16:00:00 11.71667 C 8.95 g/m*3 11.72 C 6.025 km/h
1923 29-10-2014 17:00:00 11.14167 C 9.1 g/m*3 11.14 C 0.8 km/h
1924 29-10-2014 18:00:00 10.48333 C 9.22 g/m*3 10.48 C 0 km/h
1925 29-10-2014 19:00:00 10.31667 C 9.26 g/m*3 10.32 C 0 km/h
Sensor: Nr:Datum:Temp:Abs-Feuchte:Windchill:Wind:
Aussen-T/F 1926 29-10-2014 20:00:00 10.35 C 9.32 g/m*3 10.35 C 0 km/h
1927 29-10-2014 21:00:00 10.4 C 9.35 g/m*3 10.4 C 0 km/h
1928 29-10-2014 22:00:00 10.35 C 9.32 g/m*3 10.35 C 0 km/h
1929 29-10-2014 23:00:00 9.98333 C 9.16 g/m*3 9.98 C 0 km/h
1930 30-10-2014 00:00:00 10.35 C 9.42 g/m*3 10.35 C 0 km/h
1931 30-10-2014 01:00:00 10.4 C 9.44 g/m*3 10.4 C 0 km/h
1932 30-10-2014 02:00:00 10.55 C 9.53 g/m*3 10.55 C 0.13333 km/h
1933 30-10-2014 03:00:00 10.6 C 9.57 g/m*3 10.6 C 0.13333 km/h
1934 30-10-2014 04:00:00 10.6 C 9.57 g/m*3 10.6 C 0 km/h
1935 30-10-2014 05:00:00 10.7 C 9.63 g/m*3 10.7 C 0 km/h
1936 30-10-2014 06:00:00 10.74167 C 9.65 g/m*3 10.74 C 0 km/h
1937 30-10-2014 07:00:00 10.64167 C 9.6 g/m*3 10.64 C 0 km/h
1938 30-10-2014 08:00:00 11 C 9.88 g/m*3 11 C 0 km/h
1939 30-10-2014 09:00:00 11.40833 C 10.14 g/m*3 11.41 C 0 km/h
1940 30-10-2014 10:00:00 11.85833 C 10.4 g/m*3 11.86 C 0 km/h
1941 30-10-2014 11:00:00 12.74167 C 10.91 g/m*3 12.74 C 0.66667 km/h
1942 30-10-2014 12:00:00 13.74167 C 11.2 g/m*3 13.74 C 0.26667 km/h
1943 30-10-2014 13:00:00 14.575 C 11.44 g/m*3 14.58 C 0.26667 km/h
1944 30-10-2014 14:00:00 15.125 C 11.62 g/m*3 15.13 C 0.53333 km/h
1945 30-10-2014 15:00:00 14.90833 C 11.88 g/m*3 14.91 C 0 km/h
1946 30-10-2014 16:00:00 13.96667 C 11.46 g/m*3 13.97 C 0 km/h
1947 30-10-2014 17:00:00 12.80833 C 10.76 g/m*3 12.81 C 0 km/h
1948 30-10-2014 18:00:00 12.225 C 10.51 g/m*3 12.23 C 0 km/h
1949 30-10-2014 19:00:00 12.58333 C 10.83 g/m*3 12.58 C 0 km/h
1950 30-10-2014 20:00:00 12.73333 C 10.93 g/m*3 12.73 C 0 km/h
Sensor: Nr:Datum:Temp:Abs-Feuchte:Windchill:Wind:
Aussen-T/F 1951 30-10-2014 21:00:00 12.33333 C 10.66 g/m*3 12.33 C 0 km/h
1952 30-10-2014 22:00:00 12.11667 C 10.52 g/m*3 12.12 C 0 km/h
1953 30-10-2014 23:00:00 11.84167 C 10.34 g/m*3 11.84 C 0 km/h
1954 31-10-2014 00:00:00 11.68333 C 10.24 g/m*3 11.68 C 0 km/h
1955 31-10-2014 01:00:00 11.16667 C 9.91 g/m*3 11.17 C 0 km/h
1956 31-10-2014 02:00:00 10.55833 C 9.54 g/m*3 10.56 C 0 km/h
1957 31-10-2014 03:00:00 10.35 C 9.42 g/m*3 10.35 C 0.13333 km/h
1958 31-10-2014 04:00:00 10.64167 C 9.61 g/m*3 10.64 C 0 km/h
1959 31-10-2014 05:00:00 10.8 C 9.79 g/m*3 10.8 C 0.53333 km/h
1960 31-10-2014 06:00:00 10.63333 C 9.61 g/m*3 10.63 C 0.13333 km/h
1961 31-10-2014 07:00:00 10.25833 C 9.4 g/m*3 10.26 C 0 km/h
1962 31-10-2014 08:00:00 10.275 C 9.47 g/m*3 10.28 C 0 km/h
1963 31-10-2014 09:00:00 10.69167 C 9.72 g/m*3 10.69 C 0.26667 km/h
1964 31-10-2014 10:00:00 11.79167 C 10.41 g/m*3 11.79 C 0 km/h
1965 31-10-2014 11:00:00 13.14167 C 11.33 g/m*3 13.14 C 0.26667 km/h
1966 31-10-2014 12:00:00 14.71667 C 12.09 g/m*3 14.72 C 1.06667 km/h
1967 31-10-2014 13:00:00 16.3 C 12.58 g/m*3 16.3 C 0 km/h
1968 31-10-2014 14:00:00 16.21667 C 12.76 g/m*3 16.22 C 0 km/h
1969 31-10-2014 15:00:00 15.85 C 12.69 g/m*3 15.85 C 0 km/h
1970 31-10-2014 16:00:00 14.91667 C 12.06 g/m*3 14.92 C 0 km/h
1971 31-10-2014 17:00:00 13.425 C 11.09 g/m*3 13.43 C 0.13333 km/h
1972 31-10-2014 18:00:00 12.24167 C 10.44 g/m*3 12.24 C 0 km/h
1973 31-10-2014 19:00:00 11.71667 C 10.17 g/m*3 11.72 C 0 km/h
1974 31-10-2014 20:00:00 11.46667 C 10.06 g/m*3 11.47 C 0 km/h
1975 31-10-2014 21:00:00 10.74167 C 9.63 g/m*3 10.74 C 0 km/h
Sensor: Nr:Datum:Temp:Abs-Feuchte:Windchill:Wind:
Aussen-T/F 1976 31-10-2014 22:00:00 10.20833 C 9.33 g/m*3 10.21 C 0 km/h
1977 31-10-2014 23:00:00 9.625 C 8.99 g/m*3 9.63 C 0 km/h
1978 01-11-2014 00:00:00 9.51667 C 8.93 g/m*3 9.52 C 0 km/h
1979 01-11-2014 01:00:00 9.55 C 8.95 g/m*3 9.55 C 0.26667 km/h
1980 01-11-2014 02:00:00 9.63333 C 9.03 g/m*3 9.63 C 0 km/h
1981 01-11-2014 03:00:00 9.76667 C 9.17 g/m*3 9.77 C 0 km/h
1982 01-11-2014 04:00:00 9.48333 C 8.94 g/m*3 9.48 C 0.26667 km/h
1983 01-11-2014 05:00:00 9.1 C 8.74 g/m*3 9.1 C 0 km/h
1984 01-11-2014 06:00:00 8.79167 C 8.6 g/m*3 8.79 C 0 km/h
1985 01-11-2014 07:00:00 8.60833 C 8.5 g/m*3 8.61 C 0 km/h
1986 01-11-2014 08:00:00 8.73333 C 8.58 g/m*3 8.73 C 0.26667 km/h
1987 01-11-2014 09:00:00 9.275 C 8.88 g/m*3 9.28 C 0.26667 km/h
1988 01-11-2014 10:00:00 9.95 C 9.27 g/m*3 9.95 C 0.53333 km/h
1989 01-11-2014 11:00:00 11.13333 C 9.99 g/m*3 11.13 C 0.26667 km/h
1990 01-11-2014 12:00:00 12.14167 C 10.64 g/m*3 12.14 C 0.4 km/h
1991 01-11-2014 13:00:00 13.2 C 11.37 g/m*3 13.2 C 0 km/h
1992 01-11-2014 14:00:00 14.425 C 12.26 g/m*3 14.43 C 0.13333 km/h
1993 01-11-2014 15:00:00 15.275 C 12.88 g/m*3 15.28 C 0 km/h
1994 01-11-2014 16:00:00 14.775 C 12.31 g/m*3 14.78 C 0 km/h
1995 01-11-2014 17:00:00 13.8 C 11.56 g/m*3 13.8 C 0 km/h
1996 01-11-2014 18:00:00 12.74167 C 10.83 g/m*3 12.74 C 0 km/h
1997 01-11-2014 19:00:00 11.75 C 10.18 g/m*3 11.75 C 0 km/h
1998 01-11-2014 20:00:00 11.075 C 9.76 g/m*3 11.08 C 0.13333 km/h
1999 01-11-2014 21:00:00 10.33333 C 9.35 g/m*3 10.33 C 0 km/h
2000 01-11-2014 22:00:00 9.88333 C 9.14 g/m*3 9.88 C 0 km/h
Sensor: Nr:Datum:Temp:Abs-Feuchte:Windchill:Wind:
Aussen-T/F 2001 01-11-2014 23:00:00 9.3 C 8.81 g/m*3 9.3 C 0 km/h
2002 02-11-2014 00:00:00 9.04167 C 8.66 g/m*3 9.04 C 0 km/h
2003 02-11-2014 01:00:00 8.9 C 8.58 g/m*3 8.9 C 0 km/h
2004 02-11-2014 02:00:00 8.66667 C 8.46 g/m*3 8.67 C 0 km/h
2005 02-11-2014 03:00:00 8.69167 C 8.47 g/m*3 8.69 C 0 km/h
2006 02-11-2014 04:00:00 8.74167 C 8.53 g/m*3 8.74 C 0 km/h
2007 02-11-2014 05:00:00 8.8 C 8.62 g/m*3 8.8 C 0 km/h
2008 02-11-2014 06:00:00 8.91667 C 8.68 g/m*3 8.92 C 0 km/h
2009 02-11-2014 07:00:00 8.9 C 8.67 g/m*3 8.9 C 0 km/h
2010 02-11-2014 08:00:00 9.20833 C 8.85 g/m*3 9.21 C 0.13333 km/h
2011 02-11-2014 09:00:00 10.11667 C 9.37 g/m*3 10.12 C 0.13333 km/h
2012 02-11-2014 10:00:00 10.65 C 9.69 g/m*3 10.65 C 0 km/h
2013 02-11-2014 11:00:00 11.675 C 10.34 g/m*3 11.68 C 0.53333 km/h
2014 02-11-2014 12:00:00 12.65833 C 10.81 g/m*3 12.66 C 0.26667 km/h
2015 02-11-2014 13:00:00 13.775 C 11.07 g/m*3 13.78 C 1.46667 km/h
2016 02-11-2014 14:00:00 14.81667 C 11.74 g/m*3 14.82 C 1.2 km/h
2017 02-11-2014 15:00:00 14.85833 C 11.81 g/m*3 14.86 C 0.8 km/h
2018 02-11-2014 16:00:00 13.84167 C 11.32 g/m*3 13.84 C 0 km/h
2019 02-11-2014 17:00:00 12.59167 C 10.64 g/m*3 12.59 C 0.13333 km/h
2020 02-11-2014 18:00:00 12.1 C 10.4 g/m*3 12.1 C 0 km/h
2021 02-11-2014 19:00:00 11.75 C 10.21 g/m*3 11.75 C 0 km/h
2022 02-11-2014 20:00:00 11.59167 C 10.18 g/m*3 11.59 C 0.26667 km/h
2023 02-11-2014 21:00:00 12.2 C 10.58 g/m*3 12.2 C 0.4 km/h
2024 02-11-2014 22:00:00 12.69167 C 10.9 g/m*3 12.69 C 0.93333 km/h
2025 02-11-2014 23:00:00 13.2 C 11.07 g/m*3 13.2 C 1.86667 km/h
Sensor: Nr:Datum:Temp:Abs-Feuchte:Windchill:Wind:
Aussen-T/F 2026 03-11-2014 00:00:00 13.45833 C 11.14 g/m*3 13.46 C 2.93333 km/h
2027 03-11-2014 01:00:00 13.38333 C 11.16 g/m*3 13.38 C 1.33333 km/h
2028 03-11-2014 02:00:00 13.55 C 11.27 g/m*3 13.55 C 2.66667 km/h
2029 03-11-2014 03:00:00 13.7 C 11.24 g/m*3 13.7 C 3.08333 km/h
2030 03-11-2014 04:00:00 14.09167 C 11.08 g/m*3 14.09 C 4.425 km/h
2031 03-11-2014 05:00:00 13.375 C 10.68 g/m*3 13.38 C 1.46667 km/h
2032 03-11-2014 06:00:00 13.43333 C 10.51 g/m*3 13.43 C 2.4 km/h
2033 03-11-2014 07:00:00 13.56667 C 10.59 g/m*3 13.57 C 2.26667 km/h
2034 03-11-2014 08:00:00 13.15 C 10.59 g/m*3 13.15 C 4.68333 km/h
2035 03-11-2014 09:00:00 12.68333 C 10.37 g/m*3 12.68 C 3.48333 km/h
2036 03-11-2014 10:00:00 13.05 C 10.86 g/m*3 13.05 C 0 km/h
2037 03-11-2014 11:00:00 13.98333 C 11.55 g/m*3 13.98 C 2.13333 km/h
2038 03-11-2014 12:00:00 15.35 C 11.63 g/m*3 15.35 C 3.06667 km/h
2039 03-11-2014 13:00:00 16.01667 C 11.42 g/m*3 16.02 C 7.36667 km/h
2040 03-11-2014 14:00:00 16 C 11.1 g/m*3 16 C 7.10833 km/h
2041 03-11-2014 15:00:00 15.45833 C 10.7 g/m*3 15.46 C 8.2 km/h
2042 03-11-2014 16:00:00 14.85 C 10.65 g/m*3 14.85 C 4.4 km/h
2043 03-11-2014 17:00:00 13.7 C 10.3 g/m*3 13.7 C 3.33333 km/h
2044 03-11-2014 18:00:00 13.44167 C 10.06 g/m*3 13.44 C 2.93333 km/h
2045 03-11-2014 19:00:00 13.89167 C 10.09 g/m*3 13.89 C 4.96667 km/h
2046 03-11-2014 20:00:00 14.01667 C 10.2 g/m*3 14.02 C 8.59167 km/h
2047 03-11-2014 21:00:00 13.35833 C 10.32 g/m*3 13.36 C 5.75833 km/h
2048 03-11-2014 22:00:00 12.575 C 10.41 g/m*3 12.58 C 2.94167 km/h
2049 03-11-2014 23:00:00 12.08333 C 10.35 g/m*3 12.08 C 1.46667 km/h
2050 04-11-2014 00:00:00 11.83333 C 10.23 g/m*3 11.83 C 2.4 km/h
Sensor: Nr:Datum:Temp:Abs-Feuchte:Windchill:Wind:
Aussen-T/F 2051 04-11-2014 01:00:00 12.125 C 10.39 g/m*3 12.13 C 4.29167 km/h
2052 04-11-2014 02:00:00 11.85 C 10.13 g/m*3 11.85 C 3.74167 km/h
2053 04-11-2014 03:00:00 11.33333 C 9.88 g/m*3 11.33 C 0.93333 km/h
2054 04-11-2014 04:00:00 11.24167 C 9.88 g/m*3 11.24 C 2.94167 km/h
2055 04-11-2014 05:00:00 11.34167 C 9.92 g/m*3 11.34 C 2.95 km/h
2056 04-11-2014 06:00:00 11.24167 C 9.86 g/m*3 11.24 C 2.8 km/h
2057 04-11-2014 07:00:00 11.20833 C 9.87 g/m*3 11.21 C 0.53333 km/h
2058 04-11-2014 08:00:00 11.34167 C 10.02 g/m*3 11.34 C 0 km/h
2059 04-11-2014 09:00:00 11.76667 C 10.28 g/m*3 11.77 C 2.81667 km/h
2060 04-11-2014 10:00:00 12.775 C 10.33 g/m*3 12.78 C 5.23333 km/h
2061 04-11-2014 11:00:00 12.575 C 10.23 g/m*3 12.58 C 1.34167 km/h
2062 04-11-2014 12:00:00 12.35833 C 10.37 g/m*3 12.36 C 0 km/h
2063 04-11-2014 13:00:00 12.325 C 10.21 g/m*3 12.33 C 0.26667 km/h
2064 04-11-2014 14:00:00 12.06667 C 10.21 g/m*3 12.07 C 0 km/h
2065 04-11-2014 15:00:00 11.7 C 10.13 g/m*3 11.7 C 0.13333 km/h
2066 04-11-2014 16:00:00 11.41667 C 9.97 g/m*3 11.42 C 0 km/h
2067 04-11-2014 17:00:00 10.725 C 9.54 g/m*3 10.73 C 0 km/h
2068 04-11-2014 18:00:00 10.38333 C 9.39 g/m*3 10.38 C 0 km/h
2069 04-11-2014 19:00:00 10.25833 C 9.36 g/m*3 10.26 C 0 km/h
2070 04-11-2014 20:00:00 9.525 C 8.86 g/m*3 9.53 C 0.13333 km/h
2071 04-11-2014 21:00:00 9.3 C 8.77 g/m*3 9.3 C 0 km/h
2072 04-11-2014 22:00:00 9.3 C 8.81 g/m*3 9.3 C 0 km/h
2073 04-11-2014 23:00:00 9.3 C 8.81 g/m*3 9.3 C 0 km/h
2074 05-11-2014 00:00:00 9.3 C 8.81 g/m*3 9.3 C 0 km/h
2075 05-11-2014 01:00:00 9.36667 C 8.84 g/m*3 9.37 C 0 km/h
Sensor: Nr:Datum:Temp:Abs-Feuchte:Windchill:Wind:
Aussen-T/F 2076 05-11-2014 02:00:00 9.41667 C 8.87 g/m*3 9.42 C 0.13333 km/h
2077 05-11-2014 03:00:00 9.3 C 8.81 g/m*3 9.3 C 0 km/h
2078 05-11-2014 04:00:00 9.175 C 8.74 g/m*3 9.18 C 0.13333 km/h
2079 05-11-2014 05:00:00 9.075 C 8.68 g/m*3 9.07 C 0 km/h
2080 05-11-2014 06:00:00 8.84167 C 8.55 g/m*3 8.84 C 0 km/h
2081 05-11-2014 07:00:00 8.90833 C 8.6 g/m*3 8.91 C 0 km/h
2082 05-11-2014 08:00:00 8.91667 C 8.59 g/m*3 8.92 C 0 km/h
2083 05-11-2014 09:00:00 8.84167 C 8.55 g/m*3 8.84 C 2.00833 km/h
2084 05-11-2014 10:00:00 9.3 C 8.57 g/m*3 8.85 C 5.35833 km/h
2085 05-11-2014 11:00:00 9.99167 C 8.7 g/m*3 9.28 C 6.725 km/h
2086 05-11-2014 12:00:00 10.49167 C 8.7 g/m*3 9.83 C 6.85 km/h
2087 05-11-2014 13:00:00 10.725 C 8.67 g/m*3 9.9 C 7.78333 km/h
2088 05-11-2014 14:00:00 10.8 C 8.67 g/m*3 10.8 C 2.94167 km/h
2089 05-11-2014 15:00:00 10.79167 C 8.9 g/m*3 10.79 C 0.66667 km/h
2090 05-11-2014 16:00:00 9.825 C 8.8 g/m*3 9.82 C 0 km/h
2091 05-11-2014 17:00:00 9.26667 C 8.61 g/m*3 9.27 C 0 km/h
2092 05-11-2014 18:00:00 8.9 C 8.45 g/m*3 8.9 C 0.4 km/h
2093 05-11-2014 19:00:00 8.75 C 8.39 g/m*3 8.75 C 0 km/h
2094 05-11-2014 20:00:00 8.60833 C 8.3 g/m*3 8.61 C 0.26667 km/h
2095 05-11-2014 21:00:00 8.625 C 8.21 g/m*3 8.63 C 0.8 km/h
2096 05-11-2014 22:00:00 8.45 C 7.99 g/m*3 8.45 C 2.13333 km/h
2097 05-11-2014 23:00:00 8.30833 C 7.77 g/m*3 8.31 C 2.53333 km/h
2098 06-11-2014 00:00:00 7.625 C 7.52 g/m*3 7.63 C 0.26667 km/h
2099 06-11-2014 01:00:00 7.01667 C 7.34 g/m*3 7.02 C 0.4 km/h
2100 06-11-2014 02:00:00 6.8 C 7.27 g/m*3 6.8 C 0 km/h
Sensor: Nr:Datum:Temp:Abs-Feuchte:Windchill:Wind:
Aussen-T/F 2101 06-11-2014 03:00:00 6.71667 C 7.3 g/m*3 6.72 C 0 km/h
2102 06-11-2014 04:00:00 6.6 C 7.24 g/m*3 6.6 C 0 km/h
2103 06-11-2014 05:00:00 6.11667 C 7.01 g/m*3 6.12 C 1.06667 km/h
2104 06-11-2014 06:00:00 5.93333 C 6.88 g/m*3 5.93 C 1.73333 km/h
2105 06-11-2014 07:00:00 5.225 C 6.62 g/m*3 5.23 C 0.13333 km/h
2106 06-11-2014 08:00:00 4.51667 C 6.36 g/m*3 4.52 C 0 km/h
2107 06-11-2014 09:00:00 4.73333 C 6.49 g/m*3 4.73 C 0 km/h
2108 06-11-2014 10:00:00 6.66667 C 7.22 g/m*3 6.67 C 4.025 km/h
2109 06-11-2014 11:00:00 8.61667 C 7.48 g/m*3 8.62 C 4.00833 km/h
2110 06-11-2014 12:00:00 9.2 C 7.59 g/m*3 8.73 C 5.36667 km/h
2111 06-11-2014 13:00:00 8.98333 C 7.6 g/m*3 7.86 C 7.775 km/h
2112 06-11-2014 14:00:00 9.225 C 7.59 g/m*3 7.94 C 8.73333 km/h
2113 06-11-2014 15:00:00 9.29167 C 7.51 g/m*3 9.29 C 4.81667 km/h
2114 06-11-2014 16:00:00 8.95833 C 7.36 g/m*3 8.38 C 5.625 km/h
2115 06-11-2014 17:00:00 8.11667 C 7.36 g/m*3 8.12 C 1.6 km/h
2116 06-11-2014 18:00:00 6.575 C 6.98 g/m*3 6.58 C 1.46667 km/h
2117 06-11-2014 19:00:00 5.49167 C 6.65 g/m*3 5.49 C 0.26667 km/h
2118 06-11-2014 20:00:00 4.79167 C 6.43 g/m*3 4.79 C 0 km/h
2119 06-11-2014 21:00:00 4.2 C 6.2 g/m*3 4.2 C 0 km/h
2120 06-11-2014 22:00:00 3.625 C 6.01 g/m*3 3.63 C 0 km/h
2121 06-11-2014 23:00:00 3.25833 C 5.87 g/m*3 3.26 C 0 km/h
2122 07-11-2014 00:00:00 3.19167 C 5.85 g/m*3 3.19 C 0.13333 km/h
2123 07-11-2014 01:00:00 3.2 C 5.91 g/m*3 3.2 C 1.2 km/h
2124 07-11-2014 02:00:00 2.725 C 5.72 g/m*3 2.73 C 2.4 km/h
2125 07-11-2014 03:00:00 2.55833 C 5.66 g/m*3 2.56 C 0.4 km/h
Sensor: Nr:Datum:Temp:Abs-Feuchte:Windchill:Wind:
Aussen-T/F 2126 07-11-2014 04:00:00 2.44167 C 5.61 g/m*3 2.44 C 0 km/h
2127 07-11-2014 05:00:00 2.59167 C 5.67 g/m*3 2.59 C 0.13333 km/h
2128 07-11-2014 06:00:00 2.60833 C 5.67 g/m*3 2.61 C 0 km/h
2129 07-11-2014 07:00:00 2.15833 C 5.5 g/m*3 2.16 C 0 km/h
2130 07-11-2014 08:00:00 2.675 C 5.73 g/m*3 2.68 C 0 km/h
2131 07-11-2014 09:00:00 3.775 C 6.2 g/m*3 3.78 C 0.66667 km/h
2132 07-11-2014 10:00:00 4.81667 C 6.63 g/m*3 4.82 C 4.95 km/h
2133 07-11-2014 11:00:00 6.01667 C 6.96 g/m*3 6.02 C 3.46667 km/h
2134 07-11-2014 12:00:00 7.325 C 7.1 g/m*3 7.33 C 3.86667 km/h
2135 07-11-2014 13:00:00 8.09167 C 7.22 g/m*3 8.09 C 3.46667 km/h
2136 07-11-2014 14:00:00 8.2 C 7.26 g/m*3 8.2 C 2 km/h
2137 07-11-2014 15:00:00 8.19167 C 7.3 g/m*3 8.19 C 1.73333 km/h
2138 07-11-2014 16:00:00 8.075 C 7.4 g/m*3 8.07 C 1.46667 km/h
2139 07-11-2014 17:00:00 8.15 C 7.53 g/m*3 8.15 C 2 km/h
2140 07-11-2014 18:00:00 8.1 C 7.82 g/m*3 8.1 C 0.8 km/h
2141 07-11-2014 19:00:00 8.13333 C 7.93 g/m*3 8.13 C 0 km/h
2142 07-11-2014 20:00:00 7.925 C 7.84 g/m*3 7.93 C 1.46667 km/h
2143 07-11-2014 21:00:00 7.60833 C 7.69 g/m*3 7.61 C 0.8 km/h
2144 07-11-2014 22:00:00 7.9 C 7.87 g/m*3 7.9 C 2.80833 km/h
2145 07-11-2014 23:00:00 7.99167 C 7.86 g/m*3 7.99 C 0.4 km/h
2146 08-11-2014 00:00:00 7.18333 C 7.56 g/m*3 7.18 C 0.53333 km/h
2147 08-11-2014 01:00:00 7.49167 C 7.78 g/m*3 7.49 C 0.93333 km/h
2148 08-11-2014 02:00:00 8.80833 C 8.42 g/m*3 8.81 C 1.6 km/h
2149 08-11-2014 03:00:00 9.19167 C 8.37 g/m*3 9.19 C 1.33333 km/h
2150 08-11-2014 04:00:00 8.90833 C 8.32 g/m*3 8.91 C 1.46667 km/h
Sensor: Nr:Datum:Temp:Abs-Feuchte:Windchill:Wind:
Aussen-T/F 2151 08-11-2014 05:00:00 9.66667 C 8.44 g/m*3 9.67 C 1.86667 km/h
2152 08-11-2014 06:00:00 9.125 C 8.13 g/m*3 9.13 C 1.46667 km/h
2153 08-11-2014 07:00:00 8.19167 C 7.87 g/m*3 8.19 C 1.33333 km/h
2154 08-11-2014 08:00:00 7.775 C 7.77 g/m*3 7.78 C 1.33333 km/h
2155 08-11-2014 09:00:00 8.55 C 8.03 g/m*3 8.55 C 2.13333 km/h
2156 08-11-2014 10:00:00 9.85 C 7.99 g/m*3 8.68 C 8.74167 km/h
2157 08-11-2014 11:00:00 11.03333 C 8.13 g/m*3 11.03 C 9 km/h
2158 08-11-2014 12:00:00 11.975 C 8.38 g/m*3 11.98 C 5.225 km/h
2159 08-11-2014 13:00:00 12.25833 C 8.84 g/m*3 12.26 C 2.68333 km/h
2160 08-11-2014 14:00:00 12.53333 C 8.93 g/m*3 12.53 C 1.875 km/h
2161 08-11-2014 15:00:00 11.79167 C 8.94 g/m*3 11.79 C 1.33333 km/h
2162 08-11-2014 16:00:00 10.43333 C 8.35 g/m*3 10.43 C 1.875 km/h
2163 08-11-2014 17:00:00 8.325 C 7.84 g/m*3 8.32 C 1.73333 km/h
2164 08-11-2014 18:00:00 7.64167 C 7.61 g/m*3 7.64 C 2.13333 km/h
2165 08-11-2014 19:00:00 6.975 C 7.37 g/m*3 6.98 C 1.6 km/h
2166 08-11-2014 20:00:00 6.75 C 7.32 g/m*3 6.75 C 0.26667 km/h
2167 08-11-2014 21:00:00 6.45833 C 7.25 g/m*3 6.46 C 0.53333 km/h
2168 08-11-2014 22:00:00 6.55 C 7.3 g/m*3 6.55 C 0.8 km/h
2169 08-11-2014 23:00:00 5.99167 C 7.04 g/m*3 5.99 C 0 km/h
2170 09-11-2014 00:00:00 5.69167 C 6.93 g/m*3 5.69 C 0.13333 km/h
2171 09-11-2014 01:00:00 5.34167 C 6.78 g/m*3 5.34 C 0 km/h
2172 09-11-2014 02:00:00 5.23333 C 6.76 g/m*3 5.23 C 0 km/h
2173 09-11-2014 03:00:00 5.06667 C 6.69 g/m*3 5.07 C 0.26667 km/h
2174 09-11-2014 04:00:00 4.675 C 6.52 g/m*3 4.68 C 0.53333 km/h
2175 09-11-2014 05:00:00 4.40833 C 6.4 g/m*3 4.41 C 0 km/h
Sensor: Nr:Datum:Temp:Abs-Feuchte:Windchill:Wind:
Aussen-T/F 2176 09-11-2014 06:00:00 4.125 C 6.28 g/m*3 4.13 C 0.13333 km/h
2177 09-11-2014 07:00:00 3.89167 C 6.19 g/m*3 3.89 C 0 km/h
2178 09-11-2014 08:00:00 4.25833 C 6.34 g/m*3 4.26 C 0 km/h
2179 09-11-2014 09:00:00 4.7 C 6.55 g/m*3 4.7 C 0 km/h
2180 09-11-2014 10:00:00 5.325 C 6.85 g/m*3 5.33 C 0.66667 km/h
2181 09-11-2014 11:00:00 6.075 C 7.22 g/m*3 6.08 C 0.13333 km/h
2182 09-11-2014 12:00:00 7.225 C 7.78 g/m*3 7.23 C 0.4 km/h
2183 09-11-2014 13:00:00 8.6 C 8.51 g/m*3 8.6 C 0.13333 km/h
2184 09-11-2014 14:00:00 9.55 C 8.88 g/m*3 9.55 C 0.53333 km/h
2185 09-11-2014 15:00:00 10.25833 C 8.64 g/m*3 10.26 C 2 km/h
2186 09-11-2014 16:00:00 9.875 C 8.25 g/m*3 9.88 C 1.86667 km/h
2187 09-11-2014 17:00:00 7.91667 C 7.72 g/m*3 7.92 C 0.93333 km/h
2188 09-11-2014 18:00:00 7.78333 C 7.73 g/m*3 7.78 C 1.6 km/h
2189 09-11-2014 19:00:00 7.45833 C 7.66 g/m*3 7.46 C 0.13333 km/h
2190 09-11-2014 20:00:00 7.83333 C 7.93 g/m*3 7.83 C 0.26667 km/h
2191 09-11-2014 21:00:00 7.875 C 7.93 g/m*3 7.88 C 0.13333 km/h
2192 09-11-2014 22:00:00 7.875 C 7.95 g/m*3 7.88 C 0 km/h
2193 09-11-2014 23:00:00 7.9 C 7.97 g/m*3 7.9 C 0 km/h
2194 10-11-2014 00:00:00 8.08333 C 8.06 g/m*3 8.08 C 0 km/h
2195 10-11-2014 01:00:00 8.05 C 8.05 g/m*3 8.05 C 0 km/h
2196 10-11-2014 02:00:00 7.9 C 8.03 g/m*3 7.9 C 0 km/h
2197 10-11-2014 03:00:00 7.99167 C 8.1 g/m*3 7.99 C 0 km/h
2198 10-11-2014 04:00:00 8.18333 C 8.2 g/m*3 8.18 C 0 km/h
2199 10-11-2014 05:00:00 8.26667 C 8.24 g/m*3 8.27 C 0.4 km/h
2200 10-11-2014 06:00:00 8.44167 C 8.34 g/m*3 8.44 C 0.4 km/h
Sensor: Nr:Datum:Temp:Abs-Feuchte:Windchill:Wind:
Aussen-T/F 2201 10-11-2014 07:00:00 8.56667 C 8.4 g/m*3 8.57 C 2.66667 km/h
2202 10-11-2014 08:00:00 8.775 C 8.52 g/m*3 8.78 C 0.4 km/h
2203 10-11-2014 09:00:00 9.3 C 8.81 g/m*3 9.3 C 0.53333 km/h
2204 10-11-2014 10:00:00 9.95833 C 9.17 g/m*3 9.96 C 1.33333 km/h
2205 10-11-2014 11:00:00 10.81667 C 9.39 g/m*3 10.82 C 1.06667 km/h
2206 10-11-2014 12:00:00 11.71667 C 9.54 g/m*3 11.72 C 0.66667 km/h
2207 10-11-2014 13:00:00 11.95833 C 9.48 g/m*3 11.96 C 0.93333 km/h
2208 10-11-2014 14:00:00 11.78333 C 9.64 g/m*3 11.78 C 0.26667 km/h
2209 10-11-2014 15:00:00 11.275 C 9.62 g/m*3 11.28 C 0 km/h
2210 10-11-2014 16:00:00 10.625 C 9.3 g/m*3 10.63 C 2.13333 km/h
2211 10-11-2014 17:00:00 8.90833 C 8.39 g/m*3 8.91 C 3.06667 km/h
2212 10-11-2014 18:00:00 7.925 C 7.94 g/m*3 7.93 C 1.06667 km/h
2213 10-11-2014 19:00:00 7.30833 C 7.67 g/m*3 7.31 C 0.8 km/h
2214 10-11-2014 20:00:00 6.825 C 7.48 g/m*3 6.83 C 0.8 km/h
2215 10-11-2014 21:00:00 6.50833 C 7.35 g/m*3 6.51 C 0 km/h
2216 10-11-2014 22:00:00 5.85 C 7.04 g/m*3 5.85 C 0 km/h
2217 10-11-2014 23:00:00 5.31667 C 6.8 g/m*3 5.32 C 1.06667 km/h
2218 11-11-2014 00:00:00 5.46667 C 6.87 g/m*3 5.47 C 0.26667 km/h
2219 11-11-2014 01:00:00 5.55833 C 6.92 g/m*3 5.56 C 0 km/h
2220 11-11-2014 02:00:00 6.04167 C 7.17 g/m*3 6.04 C 0 km/h
2221 11-11-2014 03:00:00 6.25 C 7.3 g/m*3 6.25 C 0 km/h
2222 11-11-2014 04:00:00 7.31667 C 7.83 g/m*3 7.32 C 0 km/h
2223 11-11-2014 05:00:00 7.225 C 7.78 g/m*3 7.23 C 0.4 km/h
2224 11-11-2014 06:00:00 7.275 C 7.81 g/m*3 7.28 C 1.2 km/h
2225 11-11-2014 07:00:00 7.725 C 8.04 g/m*3 7.73 C 0.8 km/h
Sensor: Nr:Datum:Temp:Abs-Feuchte:Windchill:Wind:
Aussen-T/F 2226 11-11-2014 08:00:00 7.85 C 8.11 g/m*3 7.85 C 0 km/h
2227 11-11-2014 09:00:00 8.54167 C 8.48 g/m*3 8.54 C 0.26667 km/h
2228 11-11-2014 10:00:00 8.81667 C 8.63 g/m*3 8.82 C 2.4 km/h
2229 11-11-2014 11:00:00 9.14286 C 8.86 g/m*3 9.14 C 2.05714 km/h
2230 11-11-2014 12:00:00 10.90909 C 9.12 g/m*3 10.91 C 4.52727 km/h
2231 11-11-2014 13:00:00 11.41667 C 9.08 g/m*3 11.42 C 5.08333 km/h
2232 11-11-2014 14:00:00 11.61667 C 8.95 g/m*3 11.62 C 5.35 km/h
2233 11-11-2014 15:00:00 10.83333 C 8.55 g/m*3 10.29 C 6.58333 km/h
2234 11-11-2014 16:00:00 9.80833 C 8.22 g/m*3 9.81 C 3.46667 km/h
2235 11-11-2014 17:00:00 9.2 C 8.13 g/m*3 9.2 C 0.66667 km/h
2236 11-11-2014 18:00:00 9.04167 C 8.15 g/m*3 9.04 C 0.66667 km/h
2237 11-11-2014 19:00:00 8.85833 C 8.17 g/m*3 8.86 C 0.26667 km/h
2238 11-11-2014 20:00:00 8.8 C 8.17 g/m*3 8.8 C 0.4 km/h
2239 11-11-2014 21:00:00 8.8 C 8.21 g/m*3 8.8 C 0 km/h
2240 11-11-2014 22:00:00 8.7 C 8.22 g/m*3 8.7 C 0 km/h
2241 11-11-2014 23:00:00 8.7 C 8.2 g/m*3 8.7 C 0 km/h
2242 12-11-2014 00:00:00 8.65 C 8.19 g/m*3 8.65 C 0 km/h
2243 12-11-2014 01:00:00 8.40833 C 8.11 g/m*3 8.41 C 0 km/h
2244 12-11-2014 02:00:00 8.39167 C 8.14 g/m*3 8.39 C 0.26667 km/h
2245 12-11-2014 03:00:00 8.49167 C 8.19 g/m*3 8.49 C 0 km/h
2246 12-11-2014 04:00:00 8.675 C 8.25 g/m*3 8.68 C 0.26667 km/h
2247 12-11-2014 05:00:00 8.7 C 8.22 g/m*3 8.7 C 0.53333 km/h
2248 12-11-2014 06:00:00 8.7 C 8.22 g/m*3 8.7 C 0.13333 km/h
2249 12-11-2014 07:00:00 8.7 C 8.22 g/m*3 8.7 C 0.13333 km/h
2250 12-11-2014 08:00:00 8.9 C 8.26 g/m*3 8.9 C 0.66667 km/h
Sensor: Nr:Datum:Temp:Abs-Feuchte:Windchill:Wind:
Aussen-T/F 2251 12-11-2014 09:00:00 9.275 C 8.37 g/m*3 9.28 C 1.33333 km/h
2252 12-11-2014 10:00:00 9.4 C 8.42 g/m*3 9.4 C 2 km/h
2253 12-11-2014 11:00:00 9.63333 C 8.54 g/m*3 9.63 C 0.4 km/h
2254 12-11-2014 12:00:00 10.20833 C 8.8 g/m*3 10.21 C 0.53333 km/h
2255 12-11-2014 13:00:00 10.91667 C 9.06 g/m*3 10.92 C 0.26667 km/h
2256 12-11-2014 14:00:00 11.16667 C 9.27 g/m*3 11.17 C 0 km/h
2257 12-11-2014 15:00:00 10.925 C 9.41 g/m*3 10.93 C 0 km/h
2258 12-11-2014 16:00:00 10.45833 C 9.33 g/m*3 10.46 C 0.13333 km/h
2259 12-11-2014 17:00:00 10.15833 C 9.21 g/m*3 10.16 C 1.33333 km/h
2260 12-11-2014 18:00:00 10.03333 C 9.15 g/m*3 10.03 C 1.06667 km/h
2261 12-11-2014 19:00:00 9.88333 C 9.1 g/m*3 9.88 C 0.13333 km/h
2262 12-11-2014 20:00:00 9.78333 C 9.05 g/m*3 9.78 C 0.53333 km/h
2263 12-11-2014 21:00:00 9.68333 C 9.02 g/m*3 9.68 C 0 km/h
2264 12-11-2014 22:00:00 9.575 C 8.96 g/m*3 9.57 C 0.26667 km/h
2265 12-11-2014 23:00:00 9.30833 C 8.81 g/m*3 9.31 C 0.26667 km/h
2266 13-11-2014 00:00:00 9.36667 C 8.84 g/m*3 9.37 C 0 km/h
2267 13-11-2014 01:00:00 9.28333 C 8.8 g/m*3 9.28 C 0 km/h
2268 13-11-2014 02:00:00 9.20833 C 8.76 g/m*3 9.21 C 0 km/h
2269 13-11-2014 03:00:00 9.3 C 8.81 g/m*3 9.3 C 0 km/h
2270 13-11-2014 04:00:00 9.10833 C 8.7 g/m*3 9.11 C 0 km/h
2271 13-11-2014 05:00:00 9.00833 C 8.65 g/m*3 9.01 C 1.46667 km/h
2272 13-11-2014 06:00:00 8.975 C 8.64 g/m*3 8.98 C 4.40833 km/h
2273 13-11-2014 07:00:00 8.75 C 8.5 g/m*3 8.75 C 1.46667 km/h
2274 13-11-2014 08:00:00 8.28333 C 8.25 g/m*3 8.28 C 3.06667 km/h
2275 13-11-2014 09:00:00 8.46667 C 8.35 g/m*3 8.47 C 3.88333 km/h
Sensor: Nr:Datum:Temp:Abs-Feuchte:Windchill:Wind:
Aussen-T/F 2276 13-11-2014 10:00:00 8.44167 C 8.34 g/m*3 7.32 C 7.4 km/h
2277 13-11-2014 11:00:00 8.88333 C 8.56 g/m*3 8.88 C 3.74167 km/h
2278 13-11-2014 12:00:00 9.79167 C 8.95 g/m*3 9.79 C 2.53333 km/h
2279 13-11-2014 13:00:00 10.36667 C 9.15 g/m*3 10.37 C 0.8 km/h
2280 13-11-2014 14:00:00 10.775 C 9.29 g/m*3 10.78 C 1.6 km/h
2281 13-11-2014 15:00:00 10.8 C 9.29 g/m*3 10.8 C 1.2 km/h
2282 13-11-2014 16:00:00 10.63333 C 9.26 g/m*3 10.63 C 0 km/h
2283 13-11-2014 17:00:00 10.31667 C 9.23 g/m*3 10.32 C 0.8 km/h
2284 13-11-2014 18:00:00 10.3 C 9.28 g/m*3 10.3 C 0.26667 km/h
2285 13-11-2014 19:00:00 10.3 C 9.29 g/m*3 10.3 C 0 km/h
2286 13-11-2014 20:00:00 10.4 C 9.26 g/m*3 10.4 C 0.53333 km/h
2287 13-11-2014 21:00:00 10.525 C 9.19 g/m*3 10.53 C 1.73333 km/h
2288 13-11-2014 22:00:00 10.54167 C 9.1 g/m*3 10.54 C 0.8 km/h
2289 13-11-2014 23:00:00 10.19167 C 9.07 g/m*3 10.19 C 0.4 km/h
2290 14-11-2014 00:00:00 10.09167 C 9.03 g/m*3 10.09 C 1.06667 km/h
2291 14-11-2014 01:00:00 10.13333 C 8.89 g/m*3 10.13 C 0.93333 km/h
2292 14-11-2014 02:00:00 9.925 C 8.78 g/m*3 9.93 C 1.06667 km/h
2293 14-11-2014 03:00:00 9.9 C 8.7 g/m*3 9.9 C 1.46667 km/h
2294 14-11-2014 04:00:00 9.85833 C 8.58 g/m*3 9.86 C 0.66667 km/h
2295 14-11-2014 05:00:00 9.59167 C 8.6 g/m*3 9.59 C 0 km/h
2296 14-11-2014 06:00:00 9.41667 C 8.54 g/m*3 9.42 C 0 km/h
2297 14-11-2014 07:00:00 9.39167 C 8.59 g/m*3 9.39 C 0.66667 km/h
2298 14-11-2014 08:00:00 9.68333 C 8.78 g/m*3 9.68 C 0 km/h
2299 14-11-2014 09:00:00 10.10833 C 8.96 g/m*3 10.11 C 0 km/h
2300 14-11-2014 10:00:00 10.975 C 9.05 g/m*3 10.98 C 0.4 km/h
Sensor: Nr:Datum:Temp:Abs-Feuchte:Windchill:Wind:
Aussen-T/F 2301 14-11-2014 11:00:00 11.925 C 9.1 g/m*3 11.93 C 3.475 km/h
2302 14-11-2014 12:00:00 12.4 C 8.88 g/m*3 12.4 C 6.45 km/h
2303 14-11-2014 13:00:00 12.675 C 8.88 g/m*3 12.68 C 6.30833 km/h
2304 14-11-2014 14:00:00 12.55 C 8.99 g/m*3 12.55 C 3.74167 km/h
2305 14-11-2014 15:00:00 12.08333 C 8.87 g/m*3 12.08 C 2.93333 km/h
2306 14-11-2014 16:00:00 11.11667 C 8.78 g/m*3 11.12 C 2.40833 km/h
2307 14-11-2014 17:00:00 10.225 C 8.59 g/m*3 10.23 C 2.40833 km/h
2308 14-11-2014 18:00:00 10.175 C 8.62 g/m*3 10.18 C 3.20833 km/h
2309 14-11-2014 19:00:00 10.76667 C 8.7 g/m*3 10.6 C 5.08333 km/h
2310 14-11-2014 20:00:00 10.63333 C 8.62 g/m*3 10.45 C 5.09167 km/h
2311 14-11-2014 21:00:00 10.40833 C 8.6 g/m*3 10.41 C 4.68333 km/h
2312 14-11-2014 22:00:00 10.50833 C 8.72 g/m*3 10.16 C 5.6 km/h
2313 14-11-2014 23:00:00 9.9 C 8.75 g/m*3 9.9 C 1.06667 km/h
2314 15-11-2014 00:00:00 9.38333 C 8.67 g/m*3 9.38 C 0.4 km/h
2315 15-11-2014 01:00:00 8.75 C 8.39 g/m*3 8.75 C 2.4 km/h
2316 15-11-2014 02:00:00 8.10833 C 8.08 g/m*3 8.11 C 1.73333 km/h
2317 15-11-2014 03:00:00 7.86667 C 7.99 g/m*3 7.87 C 0.66667 km/h
2318 15-11-2014 04:00:00 8.1 C 8.15 g/m*3 8.1 C 1.06667 km/h
2319 15-11-2014 05:00:00 8.19167 C 8.2 g/m*3 8.19 C 1.86667 km/h
2320 15-11-2014 06:00:00 8.3 C 8.26 g/m*3 8.3 C 2 km/h
2321 15-11-2014 07:00:00 8.575 C 8.32 g/m*3 8.57 C 1.73333 km/h
2322 15-11-2014 08:00:00 8.75 C 8.42 g/m*3 8.75 C 0.93333 km/h
2323 15-11-2014 09:00:00 9.24167 C 8.57 g/m*3 9.24 C 1.73333 km/h
2324 15-11-2014 10:00:00 10.06667 C 8.59 g/m*3 9.69 C 5.48333 km/h
2325 15-11-2014 11:00:00 10.35 C 8.87 g/m*3 10.35 C 3.06667 km/h
Sensor: Nr:Datum:Temp:Abs-Feuchte:Windchill:Wind:
Aussen-T/F 2326 15-11-2014 12:00:00 10.75833 C 8.93 g/m*3 10.76 C 3.74167 km/h
2327 15-11-2014 13:00:00 11.30833 C 9.11 g/m*3 11.31 C 3.46667 km/h
2328 15-11-2014 14:00:00 11.65 C 9.25 g/m*3 11.65 C 3.34167 km/h
2329 15-11-2014 15:00:00 11.50833 C 9.26 g/m*3 11.51 C 2.13333 km/h
2330 15-11-2014 16:00:00 11.1 C 9.28 g/m*3 11.1 C 0.53333 km/h
2331 15-11-2014 17:00:00 10.95 C 9.13 g/m*3 10.95 C 2.13333 km/h
2332 15-11-2014 18:00:00 10.775 C 9.17 g/m*3 10.78 C 0.8 km/h
2333 15-11-2014 19:00:00 10.35833 C 9.13 g/m*3 10.36 C 0.26667 km/h
2334 15-11-2014 20:00:00 10.325 C 9.11 g/m*3 10.33 C 0.13333 km/h
2335 15-11-2014 21:00:00 10.26667 C 9.17 g/m*3 10.27 C 0.26667 km/h
2336 15-11-2014 22:00:00 9.99167 C 9.11 g/m*3 9.99 C 0.8 km/h
2337 15-11-2014 23:00:00 9.55 C 8.86 g/m*3 9.55 C 0.93333 km/h
2338 16-11-2014 00:00:00 9.325 C 8.8 g/m*3 9.32 C 0.13333 km/h
2339 16-11-2014 01:00:00 9.28333 C 8.8 g/m*3 9.28 C 0.13333 km/h
2340 16-11-2014 02:00:00 9.18333 C 8.74 g/m*3 9.18 C 0.13333 km/h
2341 16-11-2014 03:00:00 8.9 C 8.58 g/m*3 8.9 C 0.13333 km/h
2342 16-11-2014 04:00:00 8.8 C 8.53 g/m*3 8.8 C 2.13333 km/h
2343 16-11-2014 05:00:00 8.725 C 8.42 g/m*3 8.73 C 2.53333 km/h
2344 16-11-2014 06:00:00 8.65833 C 8.37 g/m*3 8.66 C 2.26667 km/h
2345 16-11-2014 07:00:00 8.46667 C 8.26 g/m*3 8.47 C 2.53333 km/h
2346 16-11-2014 08:00:00 8.25 C 8.15 g/m*3 8.25 C 1.06667 km/h
2347 16-11-2014 09:00:00 8.3 C 8.18 g/m*3 8.3 C 0.66667 km/h
2348 16-11-2014 10:00:00 8.43333 C 8.25 g/m*3 8.43 C 0.4 km/h
2349 16-11-2014 11:00:00 8.8 C 8.44 g/m*3 8.8 C 0.13333 km/h
2350 16-11-2014 12:00:00 9.14167 C 8.63 g/m*3 9.14 C 0 km/h
Sensor: Nr:Datum:Temp:Abs-Feuchte:Windchill:Wind:
Aussen-T/F 2351 16-11-2014 13:00:00 9.34167 C 8.74 g/m*3 9.34 C 0.53333 km/h
2352 16-11-2014 14:00:00 9.73333 C 8.89 g/m*3 9.73 C 0 km/h
2353 16-11-2014 15:00:00 9.9875 C 9.07 g/m*3 9.99 C 0 km/h
2354 16-11-2014 16:00:00 9.21 C 8.67 g/m*3 9.21 C 0 km/h
2355 16-11-2014 17:00:00 8.60833 C 8.39 g/m*3 8.61 C 0 km/h
2356 16-11-2014 18:00:00 8.775 C 8.52 g/m*3 8.78 C 0 km/h
2357 16-11-2014 19:00:00 8.7 C 8.48 g/m*3 8.7 C 0 km/h
2358 16-11-2014 20:00:00 8.56667 C 8.4 g/m*3 8.57 C 0 km/h
2359 16-11-2014 21:00:00 8.28333 C 8.25 g/m*3 8.28 C 0 km/h
2360 16-11-2014 22:00:00 8.075 C 8.14 g/m*3 8.07 C 0 km/h
2361 16-11-2014 23:00:00 7.1 C 7.64 g/m*3 7.1 C 0 km/h
2362 17-11-2014 00:00:00 7.6 C 7.94 g/m*3 7.6 C 0 km/h
2363 17-11-2014 01:00:00 7.80833 C 8.02 g/m*3 7.81 C 1.2 km/h
2364 17-11-2014 02:00:00 8.08333 C 8.15 g/m*3 8.08 C 2.93333 km/h
2365 17-11-2014 03:00:00 8.39167 C 8.36 g/m*3 8.39 C 1.06667 km/h
2366 17-11-2014 04:00:00 8.45 C 8.34 g/m*3 8.45 C 1.6 km/h
2367 17-11-2014 05:00:00 8.225 C 8.22 g/m*3 8.23 C 2 km/h
2368 17-11-2014 06:00:00 8.21667 C 8.22 g/m*3 8.22 C 1.73333 km/h
2369 17-11-2014 07:00:00 8.19167 C 8.2 g/m*3 8.19 C 0.93333 km/h
2370 17-11-2014 08:00:00 8.06667 C 8.14 g/m*3 8.07 C 1.06667 km/h
2371 17-11-2014 09:00:00 8.25833 C 8.24 g/m*3 8.26 C 0.66667 km/h
2372 17-11-2014 10:00:00 8.8 C 8.53 g/m*3 8.8 C 0.4 km/h
2373 17-11-2014 11:00:00 9.43333 C 8.84 g/m*3 9.43 C 0.8 km/h
2374 17-11-2014 12:00:00 10.025 C 9.05 g/m*3 10.03 C 0.8 km/h
2375 17-11-2014 13:00:00 9.93333 C 8.97 g/m*3 9.93 C 0.13333 km/h
Sensor: Nr:Datum:Temp:Abs-Feuchte:Windchill:Wind:
Aussen-T/F 2376 17-11-2014 14:00:00 10.43333 C 9.12 g/m*3 10.43 C 0.13333 km/h
2377 17-11-2014 15:00:00 10.175 C 9.14 g/m*3 10.18 C 0.26667 km/h
2378 17-11-2014 16:00:00 9.50833 C 8.83 g/m*3 9.51 C 3.6 km/h
2379 17-11-2014 17:00:00 8.75 C 8.44 g/m*3 8.75 C 4.53333 km/h
2380 17-11-2014 18:00:00 8.66667 C 8.46 g/m*3 8.67 C 3.06667 km/h
2381 17-11-2014 19:00:00 8.30833 C 8.26 g/m*3 8.31 C 2.53333 km/h
2382 17-11-2014 20:00:00 8.44167 C 8.34 g/m*3 8.44 C 2.26667 km/h
2383 17-11-2014 21:00:00 8.48333 C 8.36 g/m*3 8.48 C 0.93333 km/h
2384 17-11-2014 22:00:00 8.50833 C 8.37 g/m*3 8.51 C 0.26667 km/h
2385 17-11-2014 23:00:00 8.31667 C 8.27 g/m*3 8.32 C 1.06667 km/h
2386 18-11-2014 00:00:00 8.15 C 8.18 g/m*3 8.15 C 1.46667 km/h
2387 18-11-2014 01:00:00 7.95833 C 8.08 g/m*3 7.96 C 1.2 km/h
2388 18-11-2014 02:00:00 7.6 C 7.9 g/m*3 7.6 C 1.73333 km/h
2389 18-11-2014 03:00:00 7.75833 C 7.98 g/m*3 7.76 C 0 km/h
2390 18-11-2014 04:00:00 7.8 C 8 g/m*3 7.8 C 0 km/h
2391 18-11-2014 05:00:00 7.775 C 7.99 g/m*3 7.78 C 0 km/h
2392 18-11-2014 06:00:00 7.71667 C 7.95 g/m*3 7.72 C 0 km/h
2393 18-11-2014 07:00:00 7.76667 C 7.98 g/m*3 7.77 C 0 km/h
2394 18-11-2014 08:00:00 7.90833 C 8.05 g/m*3 7.91 C 0 km/h
2395 18-11-2014 09:00:00 8.19167 C 8.2 g/m*3 8.19 C 0 km/h
2396 18-11-2014 10:00:00 8.40833 C 8.32 g/m*3 8.41 C 0 km/h
2397 18-11-2014 11:00:00 8.675 C 8.45 g/m*3 8.68 C 0 km/h
2398 18-11-2014 12:00:00 9.275 C 8.64 g/m*3 9.28 C 0.26667 km/h
2399 18-11-2014 13:00:00 9.74167 C 8.63 g/m*3 9.74 C 0.26667 km/h
2400 18-11-2014 14:00:00 10.07143 C 8.67 g/m*3 10.07 C 0.22857 km/h
Sensor: Nr:Datum:Temp:Abs-Feuchte:Windchill:Wind:
Aussen-T/F 2401 18-11-2014 15:00:00 9.8 C 8.67 g/m*3 9.8 C 0.96 km/h
2402 18-11-2014 16:00:00 9.75 C 8.59 g/m*3 9.75 C 3.06667 km/h
2403 18-11-2014 17:00:00 9.6 C 8.53 g/m*3 9.6 C 3.46667 km/h
2404 18-11-2014 18:00:00 9.35 C 8.53 g/m*3 9.35 C 2.53333 km/h
2405 18-11-2014 19:00:00 9.05 C 8.56 g/m*3 9.05 C 0.93333 km/h
2406 18-11-2014 20:00:00 8.925 C 8.52 g/m*3 8.93 C 1.46667 km/h
2407 18-11-2014 21:00:00 8.9 C 8.58 g/m*3 8.9 C 0 km/h
2408 18-11-2014 22:00:00 8.83333 C 8.55 g/m*3 8.83 C 0 km/h
2409 18-11-2014 23:00:00 8.79167 C 8.53 g/m*3 8.79 C 0 km/h
2410 19-11-2014 00:00:00 8.64167 C 8.44 g/m*3 8.64 C 0 km/h
2411 19-11-2014 01:00:00 8.525 C 8.38 g/m*3 8.53 C 0.26667 km/h
2412 19-11-2014 02:00:00 8.4 C 8.31 g/m*3 8.4 C 0 km/h
2413 19-11-2014 03:00:00 8.31667 C 8.27 g/m*3 8.32 C 0 km/h
2414 19-11-2014 04:00:00 8.26667 C 8.24 g/m*3 8.27 C 0.26667 km/h
2415 19-11-2014 05:00:00 8.25 C 8.23 g/m*3 8.25 C 0.13333 km/h
2416 19-11-2014 06:00:00 8.05 C 8.14 g/m*3 8.05 C 1.6 km/h
2417 19-11-2014 07:00:00 8.1 C 8.2 g/m*3 8.1 C 0.26667 km/h
2418 19-11-2014 08:00:00 8.11667 C 8.18 g/m*3 8.12 C 0.13333 km/h
2419 19-11-2014 09:00:00 8.45833 C 8.41 g/m*3 8.46 C 0 km/h
2420 19-11-2014 10:00:00 8.7 C 8.35 g/m*3 8.7 C 0.26667 km/h
2421 19-11-2014 11:00:00 9.46667 C 8.19 g/m*3 9.47 C 0.13333 km/h
2422 19-11-2014 12:00:00 9.99167 C 8.37 g/m*3 9.99 C 3.73333 km/h
2423 19-11-2014 13:00:00 10.175 C 8.28 g/m*3 10.18 C 2.13333 km/h
2424 19-11-2014 14:00:00 10.1 C 8.41 g/m*3 10.1 C 2.13333 km/h
2425 19-11-2014 15:00:00 8.95833 C 8.28 g/m*3 8.96 C 2.93333 km/h
Sensor: Nr:Datum:Temp:Abs-Feuchte:Windchill:Wind:
Aussen-T/F 2426 19-11-2014 16:00:00 8.36667 C 8.04 g/m*3 8.37 C 4.4 km/h
2427 19-11-2014 17:00:00 7.45833 C 7.66 g/m*3 7.46 C 4 km/h
2428 19-11-2014 18:00:00 6.76667 C 7.36 g/m*3 6.77 C 0.4 km/h
2429 19-11-2014 19:00:00 6.525 C 7.31 g/m*3 6.53 C 0 km/h
2430 19-11-2014 20:00:00 6.8 C 7.49 g/m*3 6.8 C 0 km/h
2431 19-11-2014 21:00:00 6.41667 C 7.26 g/m*3 6.42 C 0 km/h
2432 19-11-2014 22:00:00 5.575 C 6.87 g/m*3 5.58 C 0 km/h
2433 19-11-2014 23:00:00 5.36667 C 6.82 g/m*3 5.37 C 0 km/h
2434 20-11-2014 00:00:00 5.70833 C 6.98 g/m*3 5.71 C 0.26667 km/h
2435 20-11-2014 01:00:00 5.625 C 6.94 g/m*3 5.63 C 1.2 km/h
2436 20-11-2014 02:00:00 5.21667 C 6.76 g/m*3 5.22 C 0.26667 km/h
2437 20-11-2014 03:00:00 5.05 C 6.68 g/m*3 5.05 C 0.4 km/h
2438 20-11-2014 04:00:00 5.225 C 6.76 g/m*3 5.23 C 0.13333 km/h
2439 20-11-2014 05:00:00 5.3 C 6.79 g/m*3 5.3 C 0 km/h
2440 20-11-2014 06:00:00 5.38333 C 6.84 g/m*3 5.38 C 0.26667 km/h
2441 20-11-2014 07:00:00 5.31667 C 6.8 g/m*3 5.32 C 0.53333 km/h
2442 20-11-2014 08:00:00 5.40833 C 6.84 g/m*3 5.41 C 0.4 km/h
2443 20-11-2014 09:00:00 5.56667 C 6.92 g/m*3 5.57 C 2.66667 km/h
2444 20-11-2014 10:00:00 6.1 C 7.2 g/m*3 6.1 C 0.93333 km/h
2445 20-11-2014 11:00:00 6.95833 C 7.51 g/m*3 6.96 C 1.73333 km/h
2446 20-11-2014 12:00:00 8.08333 C 7.67 g/m*3 8.08 C 2.93333 km/h
2447 20-11-2014 13:00:00 8.325 C 7.47 g/m*3 8.32 C 4.69167 km/h
2448 20-11-2014 14:00:00 8.14167 C 7.31 g/m*3 8.14 C 2.93333 km/h
2449 20-11-2014 15:00:00 7.95 C 7.19 g/m*3 7.95 C 3.2 km/h
2450 20-11-2014 16:00:00 7.74167 C 7.26 g/m*3 7.74 C 0.93333 km/h
Sensor: Nr:Datum:Temp:Abs-Feuchte:Windchill:Wind:
Aussen-T/F 2451 20-11-2014 17:00:00 7.31667 C 7.2 g/m*3 7.32 C 0.8 km/h
2452 20-11-2014 18:00:00 6.85833 C 7.15 g/m*3 6.86 C 0.53333 km/h
2453 20-11-2014 19:00:00 6.96667 C 7.2 g/m*3 6.97 C 0.13333 km/h
2454 20-11-2014 20:00:00 6.99167 C 7.13 g/m*3 6.99 C 0.13333 km/h
2455 20-11-2014 21:00:00 7 C 7.06 g/m*3 7 C 0.8 km/h
2456 20-11-2014 22:00:00 6.36667 C 6.89 g/m*3 6.37 C 1.6 km/h
2457 20-11-2014 23:00:00 6.31667 C 6.93 g/m*3 6.32 C 0.4 km/h
2458 21-11-2014 00:00:00 6.23333 C 6.92 g/m*3 6.23 C 0 km/h
2459 21-11-2014 01:00:00 6.075 C 6.83 g/m*3 6.08 C 0.26667 km/h
2460 21-11-2014 02:00:00 6.06667 C 6.85 g/m*3 6.07 C 0 km/h
2461 21-11-2014 03:00:00 5.55833 C 6.62 g/m*3 5.56 C 0.8 km/h
2462 21-11-2014 04:00:00 4.81667 C 6.35 g/m*3 4.82 C 3.73333 km/h
2463 21-11-2014 05:00:00 3.925 C 6.06 g/m*3 3.93 C 3.6 km/h
2464 21-11-2014 06:00:00 3.39167 C 5.89 g/m*3 3.39 C 2.13333 km/h
2465 21-11-2014 07:00:00 3.05833 C 5.79 g/m*3 3.06 C 2.26667 km/h
2466 21-11-2014 08:00:00 2.81667 C 5.7 g/m*3 2.82 C 0.26667 km/h
2467 21-11-2014 09:00:00 3.05 C 5.84 g/m*3 3.05 C 0 km/h
2468 21-11-2014 10:00:00 3.56667 C 6.05 g/m*3 3.57 C 2.53333 km/h
2469 21-11-2014 11:00:00 4.38333 C 6.39 g/m*3 4.38 C 3.33333 km/h
2470 21-11-2014 12:00:00 5.44167 C 6.86 g/m*3 5.44 C 2.8 km/h
2471 21-11-2014 13:00:00 6.16667 C 7.07 g/m*3 6.17 C 3.6 km/h
2472 21-11-2014 14:00:00 6.70833 C 7.23 g/m*3 6.71 C 4.8 km/h
2473 21-11-2014 15:00:00 6.725 C 7.21 g/m*3 6.73 C 4.4 km/h
2474 21-11-2014 16:00:00 7.25833 C 7.49 g/m*3 7.26 C 2.26667 km/h
2475 21-11-2014 17:00:00 7.4 C 7.48 g/m*3 7.4 C 0.8 km/h
Sensor: Nr:Datum:Temp:Abs-Feuchte:Windchill:Wind:
Aussen-T/F 2476 21-11-2014 18:00:00 7.55 C 7.35 g/m*3 7.55 C 2 km/h
2477 21-11-2014 19:00:00 7.76667 C 7.29 g/m*3 7.77 C 1.33333 km/h
2478 21-11-2014 20:00:00 6.35 C 6.83 g/m*3 6.35 C 2.4 km/h
2479 21-11-2014 21:00:00 5.275 C 6.53 g/m*3 5.28 C 3.2 km/h
2480 21-11-2014 22:00:00 4.775 C 6.38 g/m*3 4.78 C 2.8 km/h
2481 21-11-2014 23:00:00 4.39167 C 6.27 g/m*3 4.39 C 1.73333 km/h
2482 22-11-2014 00:00:00 3.98333 C 6.11 g/m*3 3.98 C 2 km/h
2483 22-11-2014 01:00:00 3.825 C 6.1 g/m*3 3.83 C 0.66667 km/h
2484 22-11-2014 02:00:00 3.49167 C 5.96 g/m*3 3.49 C 1.46667 km/h
2485 22-11-2014 03:00:00 3.14167 C 5.82 g/m*3 3.14 C 0.13333 km/h
2486 22-11-2014 04:00:00 3.05833 C 5.81 g/m*3 3.06 C 1.86667 km/h
2487 22-11-2014 05:00:00 3.11667 C 5.87 g/m*3 3.12 C 0.53333 km/h
2488 22-11-2014 06:00:00 3.475 C 6.02 g/m*3 3.48 C 0.53333 km/h
2489 22-11-2014 07:00:00 3.475 C 6.02 g/m*3 3.48 C 0.53333 km/h
2490 22-11-2014 08:00:00 4.23333 C 6.33 g/m*3 4.23 C 1.33333 km/h
2491 22-11-2014 09:00:00 5.36667 C 6.79 g/m*3 5.37 C 1.86667 km/h
2492 22-11-2014 10:00:00 6.525 C 7.18 g/m*3 6.53 C 0.26667 km/h
2493 22-11-2014 11:00:00 6.96667 C 7.33 g/m*3 6.97 C 1.2 km/h
2494 22-11-2014 12:00:00 7.68333 C 7.78 g/m*3 7.68 C 2.13333 km/h
2495 22-11-2014 13:00:00 8.9 C 8.34 g/m*3 8.9 C 1.46667 km/h
2496 22-11-2014 14:00:00 10.44167 C 8.76 g/m*3 10.44 C 1.06667 km/h
2497 22-11-2014 15:00:00 10.25833 C 8.5 g/m*3 10.26 C 2.53333 km/h
2498 22-11-2014 16:00:00 8.8 C 7.91 g/m*3 8.8 C 3.34167 km/h
2499 22-11-2014 17:00:00 7.41667 C 7.52 g/m*3 7.42 C 2.13333 km/h
2500 22-11-2014 18:00:00 7.26667 C 7.46 g/m*3 7.27 C 2.675 km/h
Sensor: Nr:Datum:Temp:Abs-Feuchte:Windchill:Wind:
Aussen-T/F 2501 22-11-2014 19:00:00 6.53333 C 7.16 g/m*3 6.53 C 1.46667 km/h
2502 22-11-2014 20:00:00 5.96667 C 6.96 g/m*3 5.97 C 1.46667 km/h
2503 22-11-2014 21:00:00 5.53333 C 6.8 g/m*3 5.53 C 2.66667 km/h
2504 22-11-2014 22:00:00 5.30833 C 6.73 g/m*3 5.31 C 2 km/h
2505 22-11-2014 23:00:00 5.29167 C 6.77 g/m*3 5.29 C 2.26667 km/h
2506 23-11-2014 00:00:00 5.20833 C 6.73 g/m*3 5.21 C 0.93333 km/h
2507 23-11-2014 01:00:00 4.975 C 6.65 g/m*3 4.97 C 0.4 km/h
2508 23-11-2014 02:00:00 4.875 C 6.6 g/m*3 4.88 C 0 km/h
2509 23-11-2014 03:00:00 4.53333 C 6.46 g/m*3 4.53 C 0.4 km/h
2510 23-11-2014 04:00:00 4.31667 C 6.36 g/m*3 4.32 C 0 km/h
2511 23-11-2014 05:00:00 4.31667 C 6.36 g/m*3 4.32 C 0.4 km/h
2512 23-11-2014 06:00:00 4.50833 C 6.47 g/m*3 4.51 C 0 km/h
2513 23-11-2014 07:00:00 5.19167 C 6.79 g/m*3 5.19 C 1.2 km/h
2514 23-11-2014 08:00:00 5.325 C 6.86 g/m*3 5.33 C 0.66667 km/h
2515 23-11-2014 09:00:00 5.575 C 6.98 g/m*3 5.58 C 0.13333 km/h
2516 23-11-2014 10:00:00 6.45 C 7.4 g/m*3 6.45 C 1.06667 km/h
2517 23-11-2014 11:00:00 6.71667 C 7.45 g/m*3 6.72 C 1.6 km/h
2518 23-11-2014 12:00:00 7.18333 C 7.65 g/m*3 7.18 C 1.06667 km/h
2519 23-11-2014 13:00:00 8.08333 C 7.92 g/m*3 8.08 C 2.53333 km/h
2520 23-11-2014 14:00:00 8.34167 C 7.93 g/m*3 8.34 C 1.2 km/h
2521 23-11-2014 15:00:00 8.25833 C 7.94 g/m*3 8.26 C 0.93333 km/h
2522 23-11-2014 16:00:00 7.55 C 7.59 g/m*3 7.55 C 0.53333 km/h
2523 23-11-2014 17:00:00 6.48333 C 7.19 g/m*3 6.48 C 2.40833 km/h
2524 23-11-2014 18:00:00 7.08333 C 7.35 g/m*3 7.08 C 4.01667 km/h
2525 23-11-2014 19:00:00 6.725 C 7.28 g/m*3 6.73 C 1.73333 km/h
Sensor: Nr:Datum:Temp:Abs-Feuchte:Windchill:Wind:
Aussen-T/F 2526 23-11-2014 20:00:00 7.14167 C 7.53 g/m*3 7.14 C 0.53333 km/h
2527 23-11-2014 21:00:00 7.28333 C 7.61 g/m*3 7.28 C 1.6 km/h
2528 23-11-2014 22:00:00 7.49167 C 7.76 g/m*3 7.49 C 1.2 km/h
2529 23-11-2014 23:00:00 7.60833 C 7.82 g/m*3 7.61 C 0.53333 km/h
2530 24-11-2014 00:00:00 7.6 C 7.81 g/m*3 7.6 C 0 km/h
2531 24-11-2014 01:00:00 7.63333 C 7.83 g/m*3 7.63 C 0.8 km/h
2532 24-11-2014 02:00:00 7.93333 C 7.98 g/m*3 7.93 C 0.4 km/h
2533 24-11-2014 03:00:00 7.90833 C 7.97 g/m*3 7.91 C 0 km/h
2534 24-11-2014 04:00:00 7.95 C 7.99 g/m*3 7.95 C 1.06667 km/h
2535 24-11-2014 05:00:00 8.19167 C 8.05 g/m*3 8.19 C 2.8 km/h
2536 24-11-2014 06:00:00 9.36667 C 8.75 g/m*3 9.37 C 2.93333 km/h
2537 24-11-2014 07:00:00 9.775 C 8.94 g/m*3 9.78 C 4.41667 km/h
2538 24-11-2014 08:00:00 9.85 C 8.78 g/m*3 9.4 C 5.64167 km/h
2539 24-11-2014 09:00:00 9.675 C 8.76 g/m*3 9.68 C 3.2 km/h
2540 24-11-2014 10:00:00 9.70833 C 8.76 g/m*3 9.71 C 3.35833 km/h
2541 24-11-2014 11:00:00 9.83333 C 8.69 g/m*3 9.83 C 2.80833 km/h
2542 24-11-2014 12:00:00 10.025 C 8.49 g/m*3 9.76 C 5.09167 km/h
2543 24-11-2014 13:00:00 9.99167 C 8.03 g/m*3 8.9 C 8.46667 km/h
2544 24-11-2014 14:00:00 10.2 C 7.87 g/m*3 9 C 9.275 km/h
2545 24-11-2014 15:00:00 9.6 C 7.58 g/m*3 9.6 C 3.54 km/h
2546 24-11-2014 16:00:00 6.35 C 6.98 g/m*3 5.4 C 5.6 km/h
2547 24-11-2014 17:00:00 5.85 C 6.82 g/m*3 5.85 C 3.6 km/h
2548 24-11-2014 18:00:00 5.04167 C 6.53 g/m*3 5.04 C 0.66667 km/h
2549 24-11-2014 19:00:00 4.16667 C 6.2 g/m*3 4.17 C 0 km/h
2550 24-11-2014 20:00:00 3.53333 C 5.98 g/m*3 3.53 C 0 km/h
Sensor: Nr:Datum:Temp:Abs-Feuchte:Windchill:Wind:
Aussen-T/F 2551 24-11-2014 21:00:00 2.81667 C 5.7 g/m*3 2.82 C 0 km/h
2552 24-11-2014 22:00:00 2.29167 C 5.5 g/m*3 2.29 C 0.13333 km/h
2553 24-11-2014 23:00:00 1.96667 C 5.41 g/m*3 1.97 C 0.26667 km/h
2554 25-11-2014 00:00:00 1.86667 C 5.4 g/m*3 1.87 C 0.4 km/h
2555 25-11-2014 01:00:00 2.06667 C 5.47 g/m*3 2.07 C 0 km/h
2556 25-11-2014 02:00:00 1.86667 C 5.4 g/m*3 1.87 C 0.26667 km/h
2557 25-11-2014 03:00:00 1.76667 C 5.36 g/m*3 1.77 C 1.2 km/h
2558 25-11-2014 04:00:00 1.55833 C 5.29 g/m*3 1.56 C 0.13333 km/h
2559 25-11-2014 05:00:00 2.1 C 5.5 g/m*3 2.1 C 0.66667 km/h
2560 25-11-2014 06:00:00 2.25 C 5.55 g/m*3 2.25 C 0.66667 km/h
2561 25-11-2014 07:00:00 2.21667 C 5.56 g/m*3 2.22 C 0.4 km/h
2562 25-11-2014 08:00:00 2.175 C 5.53 g/m*3 2.17 C 0 km/h
2563 25-11-2014 09:00:00 2.475 C 5.68 g/m*3 2.48 C 1.33333 km/h
2564 25-11-2014 10:00:00 2.875 C 5.84 g/m*3 2.88 C 2.2 km/h
2565 25-11-2014 11:00:00 3.45833 C 6.05 g/m*3 3.46 C 1.33333 km/h
2566 25-11-2014 12:00:00 3.53333 C 6.04 g/m*3 3.53 C 1.06667 km/h
2567 25-11-2014 13:00:00 3.54167 C 6.04 g/m*3 3.54 C 0.26667 km/h
2568 25-11-2014 14:00:00 3.95556 C 6.21 g/m*3 3.96 C 3.02222 km/h
2569 25-11-2014 15:00:00 4.2 C 6.31 g/m*3 4.2 C 3.2 km/h
2570 25-11-2014 17:00:00 3.4 C 5.92 g/m*3 3.4 C 4.4 km/h
2571 25-11-2014 18:00:00 3.25 C 5.86 g/m*3 3.25 C 4 km/h
2572 25-11-2014 19:00:00 3.35 C 5.96 g/m*3 3.35 C 2.66667 km/h
2573 25-11-2014 20:00:00 4.14167 C 6.29 g/m*3 4.14 C 1.2 km/h
2574 25-11-2014 21:00:00 4.825 C 6.53 g/m*3 4.83 C 1.2 km/h
2575 25-11-2014 22:00:00 5.2 C 6.64 g/m*3 5.2 C 0.53333 km/h
Sensor: Nr:Datum:Temp:Abs-Feuchte:Windchill:Wind:
Aussen-T/F 2576 25-11-2014 23:00:00 5.39167 C 6.49 g/m*3 5.39 C 4.68333 km/h
2577 26-11-2014 00:00:00 5.36667 C 6.33 g/m*3 5.37 C 4 km/h
2578 26-11-2014 01:00:00 5.21667 C 6.27 g/m*3 5.22 C 2.93333 km/h
2579 26-11-2014 02:00:00 4.88333 C 6.14 g/m*3 4.88 C 2 km/h
2580 26-11-2014 03:00:00 4.73333 C 6.04 g/m*3 4.73 C 2.4 km/h
2581 26-11-2014 04:00:00 4.6 C 5.96 g/m*3 3.6 C 5.08333 km/h
2582 26-11-2014 05:00:00 4.40833 C 5.89 g/m*3 4.41 C 1.73333 km/h
2583 26-11-2014 06:00:00 4.35833 C 5.9 g/m*3 4.36 C 0.53333 km/h
2584 26-11-2014 07:00:00 4.35833 C 5.88 g/m*3 4.36 C 0.93333 km/h
2585 26-11-2014 08:00:00 4.4 C 5.88 g/m*3 4.4 C 2 km/h
2586 26-11-2014 09:00:00 4.57143 C 5.87 g/m*3 4.57 C 3.42857 km/h
2587 26-11-2014 11:00:00 5.7 C 6.03 g/m*3 5.7 C 2.88 km/h
2588 26-11-2014 12:00:00 5.66667 C 6.22 g/m*3 5.67 C 2.53333 km/h
2589 26-11-2014 13:00:00 5.875 C 6.41 g/m*3 5.88 C 3.6 km/h
2590 26-11-2014 14:00:00 5.96667 C 6.42 g/m*3 5.97 C 2.53333 km/h
2591 26-11-2014 15:00:00 6.15 C 6.46 g/m*3 6.15 C 3.46667 km/h
2592 26-11-2014 16:00:00 5.94167 C 6.4 g/m*3 5.94 C 1.73333 km/h
2593 26-11-2014 17:00:00 5.85833 C 6.34 g/m*3 5.86 C 2 km/h
2594 26-11-2014 18:00:00 5.75833 C 6.3 g/m*3 5.76 C 0.93333 km/h
2595 26-11-2014 19:00:00 5.7 C 6.35 g/m*3 5.7 C 0.13333 km/h
2596 26-11-2014 20:00:00 5.60833 C 6.35 g/m*3 5.61 C 0 km/h
2597 26-11-2014 21:00:00 5.75 C 6.41 g/m*3 5.75 C 0.26667 km/h
2598 26-11-2014 22:00:00 5.625 C 6.54 g/m*3 5.63 C 0 km/h
2599 26-11-2014 23:00:00 5.3 C 6.58 g/m*3 5.3 C 0 km/h
2600 27-11-2014 00:00:00 5.225 C 6.54 g/m*3 5.23 C 0.26667 km/h
Sensor: Nr:Datum:Temp:Abs-Feuchte:Windchill:Wind:
Aussen-T/F 2601 27-11-2014 01:00:00 5.28333 C 6.51 g/m*3 5.28 C 0 km/h
2602 27-11-2014 02:00:00 5.30833 C 6.52 g/m*3 5.31 C 0 km/h
2603 27-11-2014 03:00:00 5.33333 C 6.53 g/m*3 5.33 C 0 km/h
2604 27-11-2014 04:00:00 5.33333 C 6.51 g/m*3 5.33 C 0 km/h
2605 27-11-2014 05:00:00 5.3 C 6.45 g/m*3 5.3 C 0 km/h
2606 27-11-2014 06:00:00 5.3 C 6.45 g/m*3 5.3 C 0 km/h
2607 27-11-2014 07:00:00 5.14167 C 6.4 g/m*3 5.14 C 0 km/h
2608 27-11-2014 08:00:00 5.26667 C 6.39 g/m*3 5.27 C 0.93333 km/h
2609 27-11-2014 09:00:00 5.71667 C 6.42 g/m*3 5.72 C 2.93333 km/h
2610 27-11-2014 10:00:00 6.08889 C 6.55 g/m*3 6.09 C 1.24444 km/h
2611 27-11-2014 13:00:00 7.4625 C 6.98 g/m*3 7.46 C 1 km/h
2612 27-11-2014 14:00:00 7.50833 C 6.98 g/m*3 7.51 C 3.46667 km/h
2613 27-11-2014 15:00:00 7.275 C 6.95 g/m*3 7.28 C 2.53333 km/h
2614 27-11-2014 16:00:00 6.775 C 7.05 g/m*3 6.78 C 0.8 km/h
2615 27-11-2014 17:00:00 6.3 C 7 g/m*3 6.3 C 1.2 km/h
2616 27-11-2014 18:00:00 6.05 C 6.91 g/m*3 6.05 C 0.8 km/h
2617 27-11-2014 19:00:00 5.825 C 6.82 g/m*3 5.83 C 0.4 km/h
2618 27-11-2014 20:00:00 5.74167 C 6.78 g/m*3 5.74 C 1.06667 km/h
2619 27-11-2014 21:00:00 5.7 C 6.76 g/m*3 5.7 C 0.4 km/h
2620 27-11-2014 22:00:00 5.7 C 6.77 g/m*3 5.7 C 0 km/h
2621 27-11-2014 23:00:00 5.75833 C 6.79 g/m*3 5.76 C 0 km/h
2622 28-11-2014 00:00:00 5.80833 C 6.81 g/m*3 5.81 C 0.13333 km/h
2623 28-11-2014 01:00:00 5.9 C 6.83 g/m*3 5.9 C 0.66667 km/h
2624 28-11-2014 02:00:00 5.675 C 6.61 g/m*3 5.68 C 1.33333 km/h
2625 28-11-2014 03:00:00 4.98333 C 6.37 g/m*3 4.98 C 0.4 km/h
Sensor: Nr:Datum:Temp:Abs-Feuchte:Windchill:Wind:
Aussen-T/F 2626 28-11-2014 04:00:00 4.98333 C 6.36 g/m*3 4.98 C 0.93333 km/h
2627 28-11-2014 05:00:00 4.875 C 6.31 g/m*3 4.88 C 0.53333 km/h
2628 28-11-2014 06:00:00 4.75 C 6.27 g/m*3 4.75 C 0.93333 km/h
2629 28-11-2014 07:00:00 4.86667 C 6.25 g/m*3 4.87 C 1.86667 km/h
2630 28-11-2014 08:00:00 4.96667 C 6.29 g/m*3 4.97 C 2 km/h
2631 28-11-2014 09:00:00 5.6 C 6.46 g/m*3 5.6 C 4.27778 km/h
2632 28-11-2014 10:00:00 6.1 C 6.61 g/m*3 5.3 C 5.09167 km/h
2633 28-11-2014 11:00:00 6.2 C 6.61 g/m*3 6.2 C 4.37273 km/h
2634 28-11-2014 12:00:00 6.5 C 7.5 g/m*3 5.58 C 5.6 km/h
2635 28-11-2014 16:00:00 5.53 C 6.34 g/m*3 5.53 C 4.99 km/h
2636 28-11-2014 17:00:00 5.5 C 6.33 g/m*3 5.5 C 4.675 km/h
2637 28-11-2014 18:00:00 5.45 C 6.32 g/m*3 5.45 C 3.33333 km/h
2638 28-11-2014 19:00:00 5.40833 C 6.29 g/m*3 5.41 C 4 km/h
2639 28-11-2014 20:00:00 5.56667 C 6.35 g/m*3 5.57 C 3.33333 km/h
2640 28-11-2014 21:00:00 5.56667 C 6.35 g/m*3 5.57 C 3.2 km/h
2641 28-11-2014 22:00:00 5.38333 C 6.27 g/m*3 5.38 C 4.4 km/h
2642 28-11-2014 23:00:00 5.275 C 6.21 g/m*3 4.21 C 5.50833 km/h
2643 29-11-2014 00:00:00 5.11667 C 6.16 g/m*3 5.12 C 4.55 km/h
2644 29-11-2014 01:00:00 4.94167 C 6.09 g/m*3 4.94 C 4.95 km/h
2645 29-11-2014 02:00:00 4.75833 C 5.97 g/m*3 3.78 C 5.075 km/h
2646 29-11-2014 03:00:00 4.55 C 5.9 g/m*3 4.55 C 4.675 km/h
2647 29-11-2014 04:00:00 4.43333 C 5.88 g/m*3 4.43 C 1.73333 km/h
2648 29-11-2014 05:00:00 4.375 C 5.8 g/m*3 4.38 C 2.8 km/h
2649 29-11-2014 06:00:00 4.28333 C 5.81 g/m*3 4.28 C 3.06667 km/h
2650 29-11-2014 07:00:00 4.18333 C 5.79 g/m*3 4.18 C 2.53333 km/h
Sensor: Nr:Datum:Temp:Abs-Feuchte:Windchill:Wind:
Aussen-T/F 2651 29-11-2014 08:00:00 4.13333 C 5.77 g/m*3 4.13 C 3.55556 km/h
2652 29-11-2014 09:00:00 4.2 C 5.78 g/m*3 4.2 C 4.14167 km/h
2653 29-11-2014 10:00:00 4.23333 C 5.75 g/m*3 3.18 C 5.075 km/h
2654 29-11-2014 11:00:00 4.41667 C 5.81 g/m*3 4.42 C 4.8 km/h
2655 29-11-2014 12:00:00 4.66667 C 5.86 g/m*3 4.67 C 3.34167 km/h
2656 29-11-2014 13:00:00 4.78333 C 5.89 g/m*3 4.78 C 3.86667 km/h
2657 29-11-2014 14:00:00 4.79167 C 5.9 g/m*3 4.79 C 4.14167 km/h
2658 29-11-2014 15:00:00 4.7 C 5.92 g/m*3 4.7 C 2.66667 km/h
2659 29-11-2014 16:00:00 4.61667 C 5.93 g/m*3 4.62 C 2.13333 km/h
2660 29-11-2014 17:00:00 4.58333 C 5.94 g/m*3 4.58 C 0.8 km/h
2661 29-11-2014 18:00:00 4.45 C 5.84 g/m*3 4.45 C 2.4 km/h
2662 29-11-2014 19:00:00 4.3 C 5.8 g/m*3 4.3 C 2.13333 km/h
2663 29-11-2014 20:00:00 4.25833 C 5.82 g/m*3 4.26 C 3.20833 km/h
2664 29-11-2014 21:00:00 4.175 C 5.79 g/m*3 4.18 C 2.66667 km/h
2665 29-11-2014 22:00:00 4.1 C 5.76 g/m*3 4.1 C 1.86667 km/h
2666 29-11-2014 23:00:00 4.05 C 5.74 g/m*3 4.05 C 2.53333 km/h
2667 30-11-2014 00:00:00 3.9 C 5.68 g/m*3 3.9 C 2 km/h
2668 30-11-2014 01:00:00 3.9 C 5.69 g/m*3 3.9 C 1.73333 km/h
2669 30-11-2014 02:00:00 3.94167 C 5.74 g/m*3 3.94 C 0.8 km/h
2670 30-11-2014 03:00:00 3.975 C 5.78 g/m*3 3.98 C 1.2 km/h
2671 30-11-2014 04:00:00 3.90833 C 5.75 g/m*3 3.91 C 0.4 km/h
2672 30-11-2014 05:00:00 3.9 C 5.75 g/m*3 3.9 C 0.8 km/h
2673 30-11-2014 06:00:00 3.85833 C 5.73 g/m*3 3.86 C 1.86667 km/h
2674 30-11-2014 07:00:00 3.8 C 5.73 g/m*3 3.8 C 2.55 km/h
2675 30-11-2014 08:00:00 3.8 C 5.76 g/m*3 3.8 C 2.26667 km/h
Sensor: Nr:Datum:Temp:Abs-Feuchte:Windchill:Wind:
Aussen-T/F 2676 30-11-2014 09:00:00 3.875 C 5.8 g/m*3 3.88 C 2.8 km/h
2677 30-11-2014 10:00:00 4.01667 C 5.85 g/m*3 4.02 C 2.94167 km/h
2678 30-11-2014 11:00:00 4.15 C 5.9 g/m*3 4.15 C 2.8 km/h
2679 30-11-2014 12:00:00 4.325 C 5.93 g/m*3 4.33 C 2.93333 km/h
2680 30-11-2014 13:00:00 4.30833 C 5.91 g/m*3 4.31 C 2 km/h
2681 30-11-2014 14:00:00 4.20833 C 5.89 g/m*3 4.21 C 2.13333 km/h
2682 30-11-2014 15:00:00 4.075 C 5.87 g/m*3 4.08 C 3.20833 km/h
2683 30-11-2014 16:00:00 3.85 C 5.8 g/m*3 3.85 C 2 km/h
2684 30-11-2014 17:00:00 3.8 C 5.81 g/m*3 3.8 C 0.93333 km/h
2685 30-11-2014 18:00:00 3.75 C 5.8 g/m*3 3.75 C 2.40833 km/h
2686 30-11-2014 19:00:00 3.69167 C 5.79 g/m*3 3.69 C 3.06667 km/h
2687 30-11-2014 20:00:00 3.66667 C 5.78 g/m*3 3.67 C 2.13333 km/h
2688 30-11-2014 21:00:00 3.65833 C 5.79 g/m*3 3.66 C 2 km/h
2689 30-11-2014 22:00:00 3.53333 C 5.79 g/m*3 3.53 C 2.26667 km/h
2690 30-11-2014 23:00:00 3.46667 C 5.77 g/m*3 3.47 C 2.4 km/h
2691 01-12-2014 00:00:00 3.375 C 5.73 g/m*3 3.38 C 3.75 km/h
2692 01-12-2014 01:00:00 3.3 C 5.73 g/m*3 3.3 C 3.2 km/h
2693 01-12-2014 02:00:00 3.3 C 5.76 g/m*3 3.3 C 0.4 km/h
2694 01-12-2014 03:00:00 3.39167 C 5.8 g/m*3 3.39 C 1.46667 km/h
2695 01-12-2014 04:00:00 3.63333 C 5.88 g/m*3 3.63 C 2.4 km/h
2696 01-12-2014 05:00:00 3.83333 C 5.91 g/m*3 3.83 C 1.06667 km/h
2697 01-12-2014 06:00:00 4.13333 C 5.95 g/m*3 4.13 C 4.675 km/h
2698 01-12-2014 07:00:00 4.175 C 5.92 g/m*3 2.42 C 7.11667 km/h
2699 01-12-2014 08:00:00 3.98333 C 5.82 g/m*3 2.55 C 6.025 km/h
2700 01-12-2014 09:00:00 3.73333 C 5.68 g/m*3 0.76 C 11.83333 km/h
Sensor: Nr:Datum:Temp:Abs-Feuchte:Windchill:Wind:
Aussen-T/F 2701 01-12-2014 10:00:00 3.78333 C 5.64 g/m*3 1.31 C 9.55 km/h
2702 01-12-2014 11:00:00 3.86667 C 5.62 g/m*3 0.97 C 11.56667 km/h
2703 01-12-2014 12:00:00 3.8 C 5.59 g/m*3 1.17 C 10.225 km/h
2704 01-12-2014 13:00:00 3.825 C 5.66 g/m*3 3.83 C 3.875 km/h
2705 01-12-2014 14:00:00 3.68333 C 5.62 g/m*3 1.98 C 6.69167 km/h
2706 01-12-2014 15:00:00 3.36667 C 5.48 g/m*3 1.39 C 7.39167 km/h
2707 01-12-2014 16:00:00 3.2 C 5.37 g/m*3 1.95 C 5.23333 km/h
2708 01-12-2014 17:00:00 3 C 5.29 g/m*3 1 C 7.25833 km/h
2709 01-12-2014 18:00:00 2.73333 C 5.21 g/m*3 2.73 C 3.06667 km/h
2710 01-12-2014 19:00:00 2.65833 C 5.22 g/m*3 2.66 C 2.53333 km/h
2711 01-12-2014 20:00:00 2.59167 C 5.21 g/m*3 2.59 C 1.2 km/h
2712 01-12-2014 21:00:00 2.4 C 5.12 g/m*3 2.4 C 2.26667 km/h
2713 01-12-2014 22:00:00 2.2 C 5.02 g/m*3 2.2 C 2 km/h
2714 01-12-2014 23:00:00 2.025 C 4.96 g/m*3 2.03 C 4.69167 km/h
2715 02-12-2014 00:00:00 1.825 C 4.94 g/m*3 1.83 C 1.86667 km/h
2716 02-12-2014 01:00:00 1.75833 C 4.98 g/m*3 1.76 C 0.13333 km/h
2717 02-12-2014 02:00:00 1.7 C 5.01 g/m*3 1.7 C 0.8 km/h
2718 02-12-2014 03:00:00 1.65833 C 5.06 g/m*3 1.66 C 3.2 km/h
2719 02-12-2014 04:00:00 1.5 C 5.03 g/m*3 1.5 C 3.73333 km/h
2720 02-12-2014 05:00:00 1.34167 C 4.97 g/m*3 1.34 C 1.2 km/h
2721 02-12-2014 06:00:00 1.2 C 4.98 g/m*3 1.2 C 0.4 km/h
2722 02-12-2014 07:00:00 1.21667 C 4.99 g/m*3 1.22 C 1.06667 km/h
2723 02-12-2014 08:00:00 1.2 C 4.95 g/m*3 1.2 C 0 km/h
2724 02-12-2014 09:00:00 1.28333 C 4.95 g/m*3 1.28 C 0.8 km/h
2725 02-12-2014 10:00:00 1.56667 C 4.96 g/m*3 1.57 C 2.13333 km/h
Sensor: Nr:Datum:Temp:Abs-Feuchte:Windchill:Wind:
Aussen-T/F 2726 02-12-2014 11:00:00 1.94167 C 4.93 g/m*3 1.94 C 4.26667 km/h
2727 02-12-2014 12:00:00 2.025 C 4.86 g/m*3 2.03 C 3.73333 km/h
2728 02-12-2014 13:00:00 2.14167 C 4.83 g/m*3 0.43 C 6.01667 km/h
2729 02-12-2014 14:00:00 2.1 C 4.79 g/m*3 0.48 C 5.76667 km/h
2730 02-12-2014 15:00:00 2.2 C 4.84 g/m*3 2.2 C 2.4 km/h
2731 02-12-2014 16:00:00 2.2 C 4.84 g/m*3 2.2 C 1.2 km/h
2732 02-12-2014 17:00:00 2.2 C 4.84 g/m*3 2.2 C 0 km/h
2733 02-12-2014 18:00:00 2 C 4.9 g/m*3 2 C 0.6 km/h
2734 02-12-2014 19:00:00 1.9 C 4.97 g/m*3 1.9 C 0 km/h
2735 02-12-2014 20:00:00 1.41667 C 4.95 g/m*3 1.42 C 0.26667 km/h
2736 02-12-2014 21:00:00 1.225 C 4.98 g/m*3 1.23 C 0 km/h
2737 02-12-2014 22:00:00 1.13333 C 5.01 g/m*3 1.13 C 0 km/h
2738 02-12-2014 23:00:00 1.21667 C 5.08 g/m*3 1.22 C 0.13333 km/h
2739 03-12-2014 00:00:00 1.275 C 5.13 g/m*3 1.27 C 0.4 km/h
2740 03-12-2014 01:00:00 1.33333 C 5.13 g/m*3 1.33 C 0.26667 km/h
2741 03-12-2014 02:00:00 1.425 C 5.13 g/m*3 1.43 C 0 km/h
2742 03-12-2014 03:00:00 1.56667 C 5.22 g/m*3 1.57 C 0 km/h
2743 03-12-2014 04:00:00 1.475 C 5.19 g/m*3 1.48 C 0 km/h
2744 03-12-2014 05:00:00 1.725 C 5.29 g/m*3 1.73 C 0 km/h
2745 03-12-2014 06:00:00 1.8 C 5.32 g/m*3 1.8 C 0 km/h
2746 03-12-2014 07:00:00 1.96667 C 5.38 g/m*3 1.97 C 0 km/h
2747 03-12-2014 08:00:00 2.01667 C 5.4 g/m*3 2.02 C 0 km/h
2748 03-12-2014 09:00:00 1.84167 C 5.33 g/m*3 1.84 C 0.13333 km/h
2749 03-12-2014 10:00:00 2 C 5.38 g/m*3 2 C 0.66667 km/h
2750 03-12-2014 11:00:00 2.22857 C 5.42 g/m*3 2.23 C 3.65714 km/h
Sensor: Nr:Datum:Temp:Abs-Feuchte:Windchill:Wind:
Aussen-T/F 2751 03-12-2014 12:00:00 2.5375 C 5.35 g/m*3 2.54 C 0.8 km/h
2752 03-12-2014 16:00:00 2.1 C 5.1 g/m*3 2.1 C 1.01818 km/h
2753 03-12-2014 17:00:00 1.94 C 5.07 g/m*3 1.94 C 0.64 km/h
2754 03-12-2014 18:00:00 1.85556 C 4.91 g/m*3 1.86 C 1.42222 km/h
2755 03-12-2014 19:00:00 1.725 C 4.87 g/m*3 1.73 C 1.46667 km/h
2756 03-12-2014 20:00:00 1.7 C 4.79 g/m*3 1.7 C 3.06667 km/h
2757 03-12-2014 21:00:00 1.575 C 4.84 g/m*3 1.58 C 0.13333 km/h
2758 03-12-2014 22:00:00 1.54167 C 4.85 g/m*3 1.54 C 0.13333 km/h
2759 03-12-2014 23:00:00 1.575 C 4.82 g/m*3 1.58 C 1.33333 km/h
2760 04-12-2014 00:00:00 1.6 C 4.85 g/m*3 1.6 C 0 km/h
2761 04-12-2014 01:00:00 1.6 C 4.88 g/m*3 1.6 C 0.4 km/h
2762 04-12-2014 02:00:00 1.6 C 4.87 g/m*3 1.6 C 0 km/h
2763 04-12-2014 03:00:00 1.6 C 4.88 g/m*3 1.6 C 0.13333 km/h
2764 04-12-2014 04:00:00 1.6 C 4.9 g/m*3 1.6 C 0.53333 km/h
2765 04-12-2014 05:00:00 1.6 C 4.93 g/m*3 1.6 C 0.13333 km/h
2766 04-12-2014 06:00:00 1.6 C 4.98 g/m*3 1.6 C 0.13333 km/h
2767 04-12-2014 07:00:00 1.6 C 5.03 g/m*3 1.6 C 0 km/h
2768 04-12-2014 08:00:00 1.6 C 5.08 g/m*3 1.6 C 0 km/h
2769 04-12-2014 09:00:00 1.70833 C 5.18 g/m*3 1.71 C 0.13333 km/h
2770 04-12-2014 10:00:00 2.025 C 5.26 g/m*3 2.03 C 3.46667 km/h
2771 04-12-2014 11:00:00 2.275 C 5.26 g/m*3 2.28 C 1.06667 km/h
2772 04-12-2014 12:00:00 2.63333 C 5.34 g/m*3 2.63 C 1.6 km/h
2773 04-12-2014 13:00:00 2.90833 C 5.43 g/m*3 2.91 C 0.8 km/h
2774 04-12-2014 14:00:00 3.16667 C 5.51 g/m*3 3.17 C 1.6 km/h
2775 04-12-2014 15:00:00 3.2 C 5.54 g/m*3 3.2 C 2.26667 km/h
Sensor: Nr:Datum:Temp:Abs-Feuchte:Windchill:Wind:
Aussen-T/F 2776 04-12-2014 16:00:00 3.08333 C 5.55 g/m*3 3.08 C 0.53333 km/h
2777 04-12-2014 17:00:00 2.91667 C 5.55 g/m*3 2.92 C 0 km/h
2778 04-12-2014 18:00:00 2.8 C 5.55 g/m*3 2.8 C 0 km/h
2779 04-12-2014 19:00:00 2.84167 C 5.59 g/m*3 2.84 C 0 km/h
2780 04-12-2014 20:00:00 2.975 C 5.59 g/m*3 2.98 C 0.53333 km/h
2781 04-12-2014 21:00:00 3.1 C 5.63 g/m*3 3.1 C 0 km/h
2782 04-12-2014 22:00:00 2.925 C 5.59 g/m*3 2.93 C 0 km/h
2783 04-12-2014 23:00:00 2.94167 C 5.6 g/m*3 2.94 C 0.53333 km/h
2784 05-12-2014 00:00:00 2.94167 C 5.63 g/m*3 2.94 C 0 km/h
2785 05-12-2014 01:00:00 3.15 C 5.71 g/m*3 3.15 C 0.26667 km/h
2786 05-12-2014 02:00:00 3.24167 C 5.74 g/m*3 3.24 C 0 km/h
2787 05-12-2014 03:00:00 3.3 C 5.69 g/m*3 3.3 C 1.86667 km/h
2788 05-12-2014 04:00:00 3.2 C 5.6 g/m*3 3.2 C 1.86667 km/h
2789 05-12-2014 05:00:00 3.11667 C 5.57 g/m*3 3.12 C 0.93333 km/h
2790 05-12-2014 06:00:00 3.1 C 5.59 g/m*3 3.1 C 0.13333 km/h
2791 05-12-2014 07:00:00 3.15833 C 5.65 g/m*3 3.16 C 0.26667 km/h
2792 05-12-2014 08:00:00 3.20833 C 5.67 g/m*3 3.21 C 0 km/h
2793 05-12-2014 09:00:00 3.50833 C 5.75 g/m*3 3.51 C 0.13333 km/h
2794 05-12-2014 10:00:00 4.11667 C 5.86 g/m*3 4.12 C 3.46667 km/h
2795 05-12-2014 11:00:00 4.51667 C 5.97 g/m*3 4.52 C 1.73333 km/h
2796 05-12-2014 12:00:00 4.85 C 6.06 g/m*3 4.85 C 4.26667 km/h
2797 05-12-2014 13:00:00 5.08333 C 6.14 g/m*3 5.08 C 4.93333 km/h
2798 05-12-2014 14:00:00 5.33333 C 6.23 g/m*3 5.33 C 2.26667 km/h
2799 05-12-2014 15:00:00 5.375 C 6.25 g/m*3 5.38 C 0.13333 km/h
2800 05-12-2014 16:00:00 5.10833 C 6.27 g/m*3 5.11 C 0 km/h
Sensor: Nr:Datum:Temp:Abs-Feuchte:Windchill:Wind:
Aussen-T/F 2801 05-12-2014 17:00:00 4.81667 C 6.24 g/m*3 4.82 C 0 km/h
2802 05-12-2014 18:00:00 4.74167 C 6.26 g/m*3 4.74 C 0 km/h
2803 05-12-2014 19:00:00 4.70833 C 6.27 g/m*3 4.71 C 0.4 km/h
2804 05-12-2014 20:00:00 4.8 C 6.3 g/m*3 4.8 C 0.8 km/h
2805 05-12-2014 21:00:00 4.8 C 6.27 g/m*3 4.8 C 0.93333 km/h
2806 05-12-2014 22:00:00 4.75 C 6.24 g/m*3 4.75 C 0.26667 km/h
2807 05-12-2014 23:00:00 4.74167 C 6.11 g/m*3 4.74 C 1.73333 km/h
2808 06-12-2014 00:00:00 3.93333 C 5.84 g/m*3 3.93 C 1.06667 km/h
2809 06-12-2014 01:00:00 2.78333 C 5.57 g/m*3 2.78 C 1.33333 km/h
2810 06-12-2014 02:00:00 3.13333 C 5.76 g/m*3 3.13 C 0 km/h
2811 06-12-2014 03:00:00 3.46667 C 5.85 g/m*3 3.47 C 2.26667 km/h
2812 06-12-2014 04:00:00 3.61667 C 5.89 g/m*3 3.62 C 2 km/h
2813 06-12-2014 05:00:00 3.71667 C 5.93 g/m*3 3.72 C 1.73333 km/h
2814 06-12-2014 06:00:00 3.80833 C 5.91 g/m*3 3.81 C 1.73333 km/h
2815 06-12-2014 07:00:00 3.9 C 5.94 g/m*3 3.9 C 0.66667 km/h
2816 06-12-2014 08:00:00 4.04167 C 6.04 g/m*3 4.04 C 1.6 km/h
2817 06-12-2014 09:00:00 4.19167 C 6.12 g/m*3 4.19 C 2.4 km/h
2818 06-12-2014 10:00:00 4.35 C 6.2 g/m*3 4.35 C 1.33333 km/h
2819 06-12-2014 11:00:00 4.60833 C 6.29 g/m*3 4.61 C 1.33333 km/h
2820 06-12-2014 12:00:00 4.80833 C 6.42 g/m*3 4.81 C 0.53333 km/h
2821 06-12-2014 13:00:00 5.125 C 6.57 g/m*3 5.13 C 0.13333 km/h
2822 06-12-2014 14:00:00 5.35 C 6.61 g/m*3 5.35 C 0.8 km/h
2823 06-12-2014 15:00:00 5.4 C 6.63 g/m*3 5.4 C 0 km/h
2824 06-12-2014 16:00:00 5.4 C 6.63 g/m*3 5.4 C 0.13333 km/h
2825 06-12-2014 17:00:00 5.275 C 6.59 g/m*3 5.28 C 0 km/h
Sensor: Nr:Datum:Temp:Abs-Feuchte:Windchill:Wind:
Aussen-T/F 2826 06-12-2014 18:00:00 5.33333 C 6.67 g/m*3 5.33 C 0.13333 km/h
2827 06-12-2014 19:00:00 5.4 C 6.7 g/m*3 5.4 C 0.26667 km/h
2828 06-12-2014 20:00:00 5.36667 C 6.63 g/m*3 5.37 C 2.13333 km/h
2829 06-12-2014 21:00:00 5.30833 C 6.54 g/m*3 5.31 C 2 km/h
2830 06-12-2014 22:00:00 5.10833 C 6.5 g/m*3 5.11 C 0.93333 km/h
2831 06-12-2014 23:00:00 4.90833 C 6.42 g/m*3 4.91 C 0 km/h
2832 07-12-2014 00:00:00 4.8 C 6.37 g/m*3 4.8 C 0.66667 km/h
2833 07-12-2014 01:00:00 4.125 C 6.07 g/m*3 4.13 C 1.06667 km/h
2834 07-12-2014 02:00:00 3 C 5.71 g/m*3 3 C 2.26667 km/h
2835 07-12-2014 03:00:00 3.43333 C 5.94 g/m*3 3.43 C 0.13333 km/h
2836 07-12-2014 04:00:00 3.51667 C 5.97 g/m*3 3.52 C 0 km/h
2837 07-12-2014 05:00:00 3.59167 C 6 g/m*3 3.59 C 0.26667 km/h
2838 07-12-2014 06:00:00 3.63333 C 6.02 g/m*3 3.63 C 0.4 km/h
2839 07-12-2014 07:00:00 3.775 C 6.07 g/m*3 3.78 C 0 km/h
2840 07-12-2014 08:00:00 3.75833 C 6.02 g/m*3 3.76 C 1.86667 km/h
2841 07-12-2014 09:00:00 3.875 C 6.04 g/m*3 3.88 C 3.20833 km/h
2842 07-12-2014 10:00:00 4.3 C 6.09 g/m*3 4.3 C 3.89167 km/h
2843 07-12-2014 11:00:00 3.74167 C 5.93 g/m*3 3.74 C 3.06667 km/h
2844 07-12-2014 12:00:00 4.50833 C 6.09 g/m*3 4.51 C 4.81667 km/h
2845 07-12-2014 13:00:00 5.6 C 5.96 g/m*3 3.04 C 11.675 km/h
2846 07-12-2014 14:00:00 5.70833 C 5.87 g/m*3 2.25 C 17.7 km/h
2847 07-12-2014 15:00:00 5.38333 C 5.87 g/m*3 2.2 C 15.16667 km/h
2848 07-12-2014 16:00:00 5.375 C 5.9 g/m*3 2.19 C 15.16667 km/h
2849 07-12-2014 17:00:00 5.4 C 5.91 g/m*3 2.1 C 15.96667 km/h
2850 07-12-2014 18:00:00 4.45833 C 5.97 g/m*3 2.31 C 8.725 km/h
Sensor: Nr:Datum:Temp:Abs-Feuchte:Windchill:Wind:
Aussen-T/F 2851 07-12-2014 19:00:00 4.26667 C 5.93 g/m*3 2.52 C 7.11667 km/h
2852 07-12-2014 20:00:00 4.2 C 5.91 g/m*3 1.27 C 12.08333 km/h
2853 07-12-2014 21:00:00 4.35 C 5.93 g/m*3 1.12 C 13.96667 km/h
2854 07-12-2014 22:00:00 4.40833 C 5.95 g/m*3 0.93 C 15.56667 km/h
2855 07-12-2014 23:00:00 4.48333 C 5.98 g/m*3 1.44 C 13.03333 km/h
2856 08-12-2014 00:00:00 4.725 C 6.08 g/m*3 2.28 C 10.21667 km/h
2857 08-12-2014 01:00:00 4.60833 C 6.2 g/m*3 2.53 C 8.575 km/h
2858 08-12-2014 02:00:00 3.80833 C 5.91 g/m*3 3.81 C 4.4 km/h
2859 08-12-2014 03:00:00 3.34167 C 5.85 g/m*3 3.34 C 2.8 km/h
2860 08-12-2014 04:00:00 3.94167 C 6.03 g/m*3 2.85 C 5.09167 km/h
2861 08-12-2014 05:00:00 4.1 C 6.01 g/m*3 4.1 C 4.55 km/h
2862 08-12-2014 06:00:00 2.68333 C 5.51 g/m*3 2.68 C 2.4 km/h
2863 08-12-2014 07:00:00 2.24167 C 5.43 g/m*3 2.24 C 3.06667 km/h
2864 08-12-2014 08:00:00 1.86667 C 5.3 g/m*3 1.87 C 2.53333 km/h
2865 08-12-2014 09:00:00 2.08333 C 5.38 g/m*3 2.08 C 2 km/h
2866 08-12-2014 10:00:00 3.01667 C 5.64 g/m*3 1.11 C 6.975 km/h
2867 08-12-2014 11:00:00 3.75833 C 5.72 g/m*3 1.01 C 10.76667 km/h
2868 08-12-2014 12:00:00 3.85 C 5.55 g/m*3 1.03 C 11.15833 km/h
2869 08-12-2014 13:00:00 3.91667 C 5.5 g/m*3 1.53 C 9.275 km/h
2870 08-12-2014 14:00:00 4.11667 C 5.49 g/m*3 1.52 C 10.35833 km/h
2871 08-12-2014 15:00:00 3.99167 C 5.51 g/m*3 2.05 C 7.63333 km/h
2872 08-12-2014 16:00:00 3.58333 C 5.37 g/m*3 2.23 C 5.63333 km/h
2873 08-12-2014 17:00:00 2.26667 C 5.29 g/m*3 2.27 C 2.4 km/h
2874 08-12-2014 18:00:00 2.09167 C 5.29 g/m*3 2.09 C 2.53333 km/h
2875 08-12-2014 19:00:00 1.93333 C 5.26 g/m*3 1.93 C 0.66667 km/h
Sensor: Nr:Datum:Temp:Abs-Feuchte:Windchill:Wind:
Aussen-T/F 2876 08-12-2014 20:00:00 1.875 C 5.23 g/m*3 1.88 C 0 km/h
2877 08-12-2014 21:00:00 2.05833 C 5.36 g/m*3 2.06 C 0 km/h
2878 08-12-2014 22:00:00 2.3 C 5.44 g/m*3 2.3 C 0 km/h
2879 08-12-2014 23:00:00 2.39167 C 5.53 g/m*3 2.39 C 0 km/h
2880 09-12-2014 00:00:00 2.275 C 5.49 g/m*3 2.28 C 0 km/h
2881 09-12-2014 01:00:00 2.2 C 5.46 g/m*3 2.2 C 1.06667 km/h
2882 09-12-2014 02:00:00 2.24167 C 5.48 g/m*3 2.24 C 1.33333 km/h
2883 09-12-2014 03:00:00 2.275 C 5.49 g/m*3 2.28 C 1.06667 km/h
2884 09-12-2014 04:00:00 1.825 C 5.33 g/m*3 1.83 C 0.4 km/h
2885 09-12-2014 05:00:00 1.69167 C 5.31 g/m*3 1.69 C 0.13333 km/h
2886 09-12-2014 06:00:00 1.18333 C 5.1 g/m*3 1.18 C 0.53333 km/h
2887 09-12-2014 07:00:00 1.05833 C 5.1 g/m*3 1.06 C 0.66667 km/h
2888 09-12-2014 08:00:00 1.35833 C 5.21 g/m*3 1.36 C 0.4 km/h
2889 09-12-2014 09:00:00 1.84167 C 5.39 g/m*3 1.84 C 0.4 km/h
2890 09-12-2014 10:00:00 2.51667 C 5.64 g/m*3 2.52 C 0.66667 km/h
2891 09-12-2014 11:00:00 3.08333 C 5.86 g/m*3 3.08 C 0.53333 km/h
2892 09-12-2014 12:00:00 3.76667 C 6.04 g/m*3 3.77 C 4.4 km/h
2893 09-12-2014 13:00:00 4.125 C 6.09 g/m*3 4.13 C 1.86667 km/h
2894 09-12-2014 14:00:00 4.49167 C 6.14 g/m*3 4.49 C 4.4 km/h
2895 09-12-2014 15:00:00 4.26667 C 6 g/m*3 2.96 C 5.75833 km/h
2896 09-12-2014 16:00:00 3.86667 C 5.9 g/m*3 3.87 C 0.8 km/h
2897 09-12-2014 17:00:00 3.58333 C 5.89 g/m*3 3.58 C 0.26667 km/h
2898 09-12-2014 18:00:00 3.25 C 5.8 g/m*3 3.25 C 0.4 km/h
2899 09-12-2014 19:00:00 2.79167 C 5.63 g/m*3 2.79 C 0.93333 km/h
2900 09-12-2014 20:00:00 2.15 C 5.42 g/m*3 2.15 C 2 km/h
Sensor: Nr:Datum:Temp:Abs-Feuchte:Windchill:Wind:
Aussen-T/F 2901 09-12-2014 21:00:00 2.28333 C 5.45 g/m*3 2.28 C 1.86667 km/h
2902 09-12-2014 22:00:00 2.01667 C 5.33 g/m*3 2.02 C 2.13333 km/h
2903 09-12-2014 23:00:00 1.675 C 5.21 g/m*3 1.68 C 1.46667 km/h
2904 10-12-2014 00:00:00 2.025 C 5.36 g/m*3 2.03 C 2.13333 km/h
2905 10-12-2014 01:00:00 2.525 C 5.47 g/m*3 2.53 C 3.61667 km/h
2906 10-12-2014 02:00:00 3.55833 C 5.53 g/m*3 1.66 C 7.24167 km/h
2907 10-12-2014 03:00:00 3.81667 C 5.56 g/m*3 2.09 C 6.83333 km/h
2908 10-12-2014 04:00:00 4.23333 C 5.54 g/m*3 1.41 C 11.55833 km/h
2909 10-12-2014 05:00:00 4.19167 C 5.39 g/m*3 2.28 C 7.64167 km/h
2910 10-12-2014 06:00:00 4 C 5.14 g/m*3 2.56 C 6.03333 km/h
2911 10-12-2014 07:00:00 4.01667 C 5.14 g/m*3 4.02 C 4.94167 km/h
2912 10-12-2014 08:00:00 3.725 C 5.41 g/m*3 2.07 C 6.56667 km/h
2913 10-12-2014 09:00:00 4.23333 C 5.69 g/m*3 1.69 C 10.225 km/h
2914 10-12-2014 10:00:00 4.65833 C 5.92 g/m*3 1.26 C 15.425 km/h
2915 10-12-2014 11:00:00 4.91667 C 5.95 g/m*3 0.79 C 21.44167 km/h
2916 10-12-2014 12:00:00 5.16667 C 6.05 g/m*3 1.3 C 19.84167 km/h
2917 10-12-2014 13:00:00 5.63333 C 6.23 g/m*3 2.22 C 17.16667 km/h
2918 10-12-2014 14:00:00 5.5 C 6.32 g/m*3 2.77 C 12.5 km/h
2919 10-12-2014 15:00:00 5.54167 C 6.37 g/m*3 3.1 C 11.025 km/h
2920 10-12-2014 16:00:00 5.1 C 6.21 g/m*3 3.2 C 8.18333 km/h
2921 10-12-2014 17:00:00 4.23333 C 6.04 g/m*3 4.23 C 2.4 km/h
2922 10-12-2014 18:00:00 3.90833 C 6.01 g/m*3 3.91 C 1.73333 km/h
2923 10-12-2014 19:00:00 4.14167 C 6.13 g/m*3 4.14 C 2.4 km/h
2924 10-12-2014 20:00:00 4.675 C 6.28 g/m*3 3.63 C 5.21667 km/h
2925 10-12-2014 21:00:00 5.24167 C 6.42 g/m*3 5.24 C 3.74167 km/h
Sensor: Nr:Datum:Temp:Abs-Feuchte:Windchill:Wind:
Aussen-T/F 2926 10-12-2014 22:00:00 5.30833 C 6.57 g/m*3 5.31 C 3.46667 km/h
2927 10-12-2014 23:00:00 5.75833 C 6.54 g/m*3 4.8 C 5.38333 km/h
2928 11-12-2014 00:00:00 5.23333 C 6.53 g/m*3 5.23 C 3.06667 km/h
2929 11-12-2014 01:00:00 5.50833 C 6.65 g/m*3 4.39 C 5.76667 km/h
2930 11-12-2014 02:00:00 5.19167 C 6.53 g/m*3 5.19 C 4.54167 km/h
2931 11-12-2014 03:00:00 5.34167 C 6.5 g/m*3 3.94 C 6.55833 km/h
2932 11-12-2014 04:00:00 6.06667 C 6.52 g/m*3 3.63 C 11.56667 km/h
2933 11-12-2014 05:00:00 6.31667 C 6.5 g/m*3 3.55 C 13.825 km/h
2934 11-12-2014 06:00:00 6.58333 C 6.57 g/m*3 4.02 C 12.89167 km/h
2935 11-12-2014 07:00:00 6.36667 C 6.71 g/m*3 3.85 C 12.35833 km/h
2936 11-12-2014 08:00:00 6.775 C 6.66 g/m*3 3.86 C 15.56667 km/h
2937 11-12-2014 09:00:00 6.83333 C 6.71 g/m*3 4.06 C 14.63333 km/h
2938 11-12-2014 10:00:00 6.81667 C 6.79 g/m*3 3.89 C 15.7 km/h
2939 11-12-2014 11:00:00 7.05833 C 6.8 g/m*3 4.03 C 16.9 km/h
2940 11-12-2014 12:00:00 7.15 C 6.82 g/m*3 4.11 C 17.16667 km/h
2941 11-12-2014 13:00:00 6.98333 C 6.91 g/m*3 4.15 C 15.3 km/h
2942 11-12-2014 14:00:00 5.94167 C 6.79 g/m*3 4.37 C 7.50833 km/h
2943 11-12-2014 15:00:00 6.21667 C 6.63 g/m*3 2.98 C 16.9 km/h
2944 11-12-2014 16:00:00 6.06667 C 6.4 g/m*3 2.43 C 19.85 km/h
2945 11-12-2014 17:00:00 5.35833 C 6.38 g/m*3 2.91 C 10.85833 km/h
2946 11-12-2014 18:00:00 5.15 C 6.43 g/m*3 3.52 C 7.24167 km/h
2947 11-12-2014 19:00:00 6.04167 C 6.48 g/m*3 3.34 C 13.03333 km/h
2948 11-12-2014 20:00:00 6.25833 C 6.59 g/m*3 3.11 C 16.38333 km/h
2949 11-12-2014 21:00:00 6.66667 C 6.65 g/m*3 4.35 C 11.56667 km/h
2950 11-12-2014 22:00:00 7.01667 C 6.79 g/m*3 5.03 C 10.20833 km/h
Sensor: Nr:Datum:Temp:Abs-Feuchte:Windchill:Wind:
Aussen-T/F 2951 11-12-2014 23:00:00 7.475 C 6.85 g/m*3 4.6 C 16.5 km/h
2952 12-12-2014 00:00:00 7.325 C 6.92 g/m*3 4.97 C 12.625 km/h
2953 12-12-2014 01:00:00 7.8 C 7.18 g/m*3 4.96 C 16.89167 km/h
2954 12-12-2014 02:00:00 8.28333 C 7.33 g/m*3 4.92 C 22.90833 km/h
2955 12-12-2014 03:00:00 8.15 C 7.37 g/m*3 5.06 C 19.85 km/h
2956 12-12-2014 04:00:00 8.24167 C 7.32 g/m*3 5.33 C 18.36667 km/h
2957 12-12-2014 05:00:00 8.4 C 7.24 g/m*3 5.8 C 16.1 km/h
2958 12-12-2014 06:00:00 8.69167 C 7.12 g/m*3 6.25 C 15.43333 km/h
2959 12-12-2014 07:00:00 8.925 C 7.14 g/m*3 6.28 C 17.575 km/h
2960 12-12-2014 08:00:00 8.65833 C 7.22 g/m*3 6.02 C 16.9 km/h
2961 12-12-2014 09:00:00 8.51667 C 7.31 g/m*3 5.74 C 17.83333 km/h
2962 12-12-2014 10:00:00 8.975 C 7.34 g/m*3 5.83 C 22.64167 km/h
2963 12-12-2014 11:00:00 9.50833 C 7.43 g/m*3 6.39 C 24 km/h
2964 12-12-2014 12:00:00 9.6 C 7.55 g/m*3 6.76 C 21.175 km/h
2965 12-12-2014 13:00:00 9.75833 C 7.62 g/m*3 6.78 C 23.19167 km/h
2966 12-12-2014 14:00:00 10.21667 C 7.72 g/m*3 7.63 C 20.23333 km/h
2967 12-12-2014 15:00:00 10.4 C 7.85 g/m*3 7.52 C 24.125 km/h
2968 12-12-2014 16:00:00 10.45833 C 8.03 g/m*3 8.05 C 19.03333 km/h
2969 12-12-2014 17:00:00 10.34167 C 8.15 g/m*3 7.85 C 19.575 km/h
2970 12-12-2014 18:00:00 10.14167 C 8.11 g/m*3 7.81 C 17.43333 km/h
2971 12-12-2014 19:00:00 10 C 8.13 g/m*3 6.99 C 24.39167 km/h
2972 12-12-2014 20:00:00 9.925 C 8.27 g/m*3 7.63 C 16.625 km/h
2973 12-12-2014 21:00:00 9.04167 C 8.33 g/m*3 8.09 C 7.1 km/h
2974 12-12-2014 22:00:00 8.675 C 8.24 g/m*3 8.22 C 5.09167 km/h
2975 12-12-2014 23:00:00 7.875 C 7.71 g/m*3 7.88 C 4.80833 km/h
Sensor: Nr:Datum:Temp:Abs-Feuchte:Windchill:Wind:
Aussen-T/F 2976 13-12-2014 00:00:00 7.175 C 7.41 g/m*3 7.18 C 3.46667 km/h
2977 13-12-2014 01:00:00 6.80833 C 7.26 g/m*3 6.81 C 4.8 km/h
2978 13-12-2014 02:00:00 6.53333 C 7.2 g/m*3 6.53 C 2.4 km/h
2979 13-12-2014 03:00:00 6.34167 C 7.13 g/m*3 6.34 C 2.26667 km/h
2980 13-12-2014 04:00:00 6.125 C 7.09 g/m*3 6.13 C 0 km/h
2981 13-12-2014 05:00:00 5.93333 C 7.01 g/m*3 5.93 C 0 km/h
2982 13-12-2014 06:00:00 5.86667 C 6.98 g/m*3 5.87 C 0.93333 km/h
2983 13-12-2014 07:00:00 5.675 C 6.95 g/m*3 5.68 C 0.66667 km/h
2984 13-12-2014 08:00:00 5.25 C 6.7 g/m*3 5.25 C 3.075 km/h
2985 13-12-2014 09:00:00 4.68333 C 6.45 g/m*3 4.68 C 1.46667 km/h
2986 13-12-2014 10:00:00 4.55 C 6.4 g/m*3 4.55 C 1.06667 km/h
2987 13-12-2014 11:00:00 4.475 C 6.34 g/m*3 4.47 C 1.86667 km/h
2988 13-12-2014 12:00:00 4.31667 C 6.23 g/m*3 4.32 C 1.06667 km/h
2989 13-12-2014 13:00:00 4.2 C 6.16 g/m*3 4.2 C 0.13333 km/h
2990 13-12-2014 14:00:00 3.975 C 6.04 g/m*3 3.98 C 2.66667 km/h
2991 13-12-2014 15:00:00 3.675 C 5.96 g/m*3 3.68 C 4.40833 km/h
2992 13-12-2014 16:00:00 3.29167 C 5.82 g/m*3 2 C 5.35 km/h
2993 13-12-2014 17:00:00 2.83333 C 5.67 g/m*3 2.83 C 0.8 km/h
2994 13-12-2014 18:00:00 2.7 C 5.62 g/m*3 2.7 C 0.13333 km/h
2995 13-12-2014 19:00:00 2.60833 C 5.62 g/m*3 2.61 C 0.13333 km/h
2996 13-12-2014 20:00:00 2.43333 C 5.55 g/m*3 2.43 C 0 km/h
2997 13-12-2014 21:00:00 2.44167 C 5.55 g/m*3 2.44 C 0 km/h
2998 13-12-2014 22:00:00 2.48333 C 5.57 g/m*3 2.48 C 0 km/h
2999 13-12-2014 23:00:00 2.575 C 5.66 g/m*3 2.58 C 0.26667 km/h
3000 14-12-2014 00:00:00 2.66667 C 5.65 g/m*3 2.67 C 0 km/h
Sensor: Nr:Datum:Temp:Abs-Feuchte:Windchill:Wind:
Aussen-T/F 3001 14-12-2014 01:00:00 2.73333 C 5.66 g/m*3 2.73 C 0 km/h
3002 14-12-2014 02:00:00 2.65 C 5.64 g/m*3 2.65 C 0.13333 km/h
3003 14-12-2014 03:00:00 2.36667 C 5.53 g/m*3 2.37 C 0 km/h
3004 14-12-2014 04:00:00 2.19167 C 5.49 g/m*3 2.19 C 0 km/h
3005 14-12-2014 05:00:00 2.05833 C 5.46 g/m*3 2.06 C 0.13333 km/h
3006 14-12-2014 06:00:00 2.23333 C 5.53 g/m*3 2.23 C 0 km/h
3007 14-12-2014 07:00:00 2.40833 C 5.6 g/m*3 2.41 C 0 km/h
3008 14-12-2014 08:00:00 2.51667 C 5.64 g/m*3 2.52 C 0 km/h
3009 14-12-2014 09:00:00 2.80833 C 5.75 g/m*3 2.81 C 0.8 km/h
3010 14-12-2014 10:00:00 3.21667 C 5.91 g/m*3 3.22 C 0.4 km/h
3011 14-12-2014 11:00:00 3.73333 C 6.05 g/m*3 3.73 C 2.53333 km/h
3012 14-12-2014 12:00:00 4.2 C 6.1 g/m*3 4.2 C 2.13333 km/h
3013 14-12-2014 13:00:00 4.63333 C 6.16 g/m*3 4.63 C 0.93333 km/h
3014 14-12-2014 14:00:00 4.88333 C 6.06 g/m*3 4.88 C 0.4 km/h
3015 14-12-2014 15:00:00 4.25 C 6 g/m*3 4.25 C 2 km/h
3016 14-12-2014 16:00:00 2.76667 C 5.6 g/m*3 2.77 C 3.6 km/h
3017 14-12-2014 17:00:00 1.81667 C 5.3 g/m*3 1.82 C 3.73333 km/h
3018 14-12-2014 18:00:00 1.75833 C 5.3 g/m*3 1.76 C 3.46667 km/h
3019 14-12-2014 19:00:00 1.21667 C 5.11 g/m*3 1.22 C 1.06667 km/h
3020 14-12-2014 20:00:00 0.66667 C 4.92 g/m*3 0.67 C 0.8 km/h
3021 14-12-2014 21:00:00 0.76667 C 5 g/m*3 0.77 C 3.2 km/h
3022 14-12-2014 22:00:00 1.61667 C 5.31 g/m*3 1.62 C 2 km/h
3023 14-12-2014 23:00:00 2.01667 C 5.45 g/m*3 2.02 C 0.66667 km/h
3024 15-12-2014 00:00:00 2.11667 C 5.42 g/m*3 2.12 C 1.6 km/h
3025 15-12-2014 01:00:00 2.05 C 5.33 g/m*3 2.05 C 1.6 km/h
Sensor: Nr:Datum:Temp:Abs-Feuchte:Windchill:Wind:
Aussen-T/F 3026 15-12-2014 02:00:00 1.55833 C 5.21 g/m*3 1.56 C 2.93333 km/h
3027 15-12-2014 03:00:00 1.93333 C 5.37 g/m*3 1.93 C 2.26667 km/h
3028 15-12-2014 04:00:00 2.2 C 5.43 g/m*3 2.2 C 2.8 km/h
3029 15-12-2014 05:00:00 1.60833 C 5.19 g/m*3 1.61 C 3.46667 km/h
3030 15-12-2014 06:00:00 0.98333 C 4.97 g/m*3 0.98 C 2.26667 km/h
3031 15-12-2014 07:00:00 1.16667 C 5.08 g/m*3 1.17 C 1.6 km/h
3032 15-12-2014 08:00:00 1.575 C 5.18 g/m*3 1.58 C 3.075 km/h
3033 15-12-2014 09:00:00 2.38333 C 5.28 g/m*3 2.38 C 4.825 km/h
3034 15-12-2014 10:00:00 3.45 C 5.48 g/m*3 2.29 C 5.08333 km/h
3035 15-12-2014 11:00:00 4.51667 C 5.8 g/m*3 1.9 C 10.86667 km/h
3036 15-12-2014 12:00:00 4.575 C 5.85 g/m*3 0.92 C 17.03333 km/h
3037 15-12-2014 13:00:00 4.30833 C 5.94 g/m*3 1.35 C 12.35 km/h
3038 15-12-2014 14:00:00 4.30833 C 5.98 g/m*3 1.2 C 13.16667 km/h
3039 15-12-2014 15:00:00 4.59167 C 6.02 g/m*3 1.5 C 13.43333 km/h
3040 15-12-2014 16:00:00 4.70833 C 6.09 g/m*3 3.61 C 5.375 km/h
3041 15-12-2014 17:00:00 4.70833 C 6.2 g/m*3 4.71 C 2.53333 km/h
3042 15-12-2014 18:00:00 4.825 C 6.27 g/m*3 4.83 C 3.075 km/h
3043 15-12-2014 19:00:00 4.98333 C 6.32 g/m*3 4.98 C 2.13333 km/h
3044 15-12-2014 20:00:00 5.06667 C 6.39 g/m*3 5.07 C 2 km/h
3045 15-12-2014 21:00:00 4.9 C 6.42 g/m*3 4.9 C 0 km/h
3046 15-12-2014 22:00:00 4.925 C 6.49 g/m*3 4.93 C 0 km/h
3047 15-12-2014 23:00:00 4.875 C 6.52 g/m*3 4.88 C 0 km/h
3048 16-12-2014 00:00:00 4.9 C 6.55 g/m*3 4.9 C 0.26667 km/h
3049 16-12-2014 01:00:00 4.99167 C 6.63 g/m*3 4.99 C 0 km/h
3050 16-12-2014 02:00:00 5.26667 C 6.78 g/m*3 5.27 C 0.93333 km/h
Sensor: Nr:Datum:Temp:Abs-Feuchte:Windchill:Wind:
Aussen-T/F 3051 16-12-2014 03:00:00 5.63333 C 6.9 g/m*3 5.63 C 4.01667 km/h
3052 16-12-2014 04:00:00 5.75 C 6.9 g/m*3 5.75 C 3.075 km/h
3053 16-12-2014 05:00:00 6.125 C 6.99 g/m*3 6.13 C 3.6 km/h
3054 16-12-2014 06:00:00 6.19167 C 7.03 g/m*3 6.19 C 2.93333 km/h
3055 16-12-2014 07:00:00 6.44167 C 7.03 g/m*3 5.06 C 7.1 km/h
3056 16-12-2014 08:00:00 6.44167 C 6.99 g/m*3 6.44 C 3.2 km/h
3057 16-12-2014 09:00:00 6.875 C 7.1 g/m*3 5.52 C 7.25 km/h
3058 16-12-2014 10:00:00 7.3 C 7.14 g/m*3 5.31 C 10.49167 km/h
3059 16-12-2014 11:00:00 7.66667 C 7.2 g/m*3 5.96 C 9.40833 km/h
3060 16-12-2014 12:00:00 7.65833 C 7.36 g/m*3 6.69 C 6.30833 km/h
3061 16-12-2014 13:00:00 7.46667 C 7.51 g/m*3 7.47 C 2.26667 km/h
3062 16-12-2014 14:00:00 7.55833 C 7.24 g/m*3 7.56 C 3.2 km/h
3063 16-12-2014 15:00:00 7.53333 C 6.74 g/m*3 6.55 C 6.3 km/h
3064 16-12-2014 16:00:00 6.16667 C 6.27 g/m*3 6.17 C 3.46667 km/h
3065 16-12-2014 17:00:00 5.91667 C 6.29 g/m*3 4.95 C 5.49167 km/h
3066 16-12-2014 18:00:00 5.84167 C 6.21 g/m*3 5.84 C 4.81667 km/h
3067 16-12-2014 19:00:00 5.825 C 6.18 g/m*3 4.58 C 6.29167 km/h
3068 16-12-2014 20:00:00 5.43333 C 6.15 g/m*3 4.39 C 5.49167 km/h
3069 16-12-2014 21:00:00 4.775 C 6.12 g/m*3 4.78 C 3.06667 km/h
3070 16-12-2014 22:00:00 4.58333 C 6.08 g/m*3 4.58 C 4.28333 km/h
3071 16-12-2014 23:00:00 4.55 C 6.03 g/m*3 4.55 C 3.35 km/h
3072 17-12-2014 00:00:00 4.7 C 6.15 g/m*3 4.7 C 2.40833 km/h
3073 17-12-2014 01:00:00 4.59167 C 5.99 g/m*3 3.2 C 6.175 km/h
3074 17-12-2014 02:00:00 3.8 C 5.78 g/m*3 3.8 C 4.80833 km/h
3075 17-12-2014 03:00:00 3.06667 C 5.62 g/m*3 3.07 C 1.73333 km/h
Sensor: Nr:Datum:Temp:Abs-Feuchte:Windchill:Wind:
Aussen-T/F 3076 17-12-2014 04:00:00 2.86667 C 5.61 g/m*3 2.87 C 1.33333 km/h
3077 17-12-2014 05:00:00 3.45 C 5.88 g/m*3 3.45 C 0.53333 km/h
3078 17-12-2014 06:00:00 4.4 C 6.18 g/m*3 4.4 C 2.55 km/h
3079 17-12-2014 07:00:00 4.875 C 6.17 g/m*3 4.88 C 2.54167 km/h
3080 17-12-2014 08:00:00 5.1 C 6.18 g/m*3 5.1 C 2.54167 km/h
3081 17-12-2014 09:00:00 5.69167 C 6.24 g/m*3 4.07 C 7.51667 km/h
3082 17-12-2014 10:00:00 5.91667 C 6.36 g/m*3 3.66 C 10.46667 km/h
3083 17-12-2014 11:00:00 6.125 C 6.45 g/m*3 2.72 C 18.1 km/h
3084 17-12-2014 12:00:00 5.90833 C 6.59 g/m*3 2.06 C 21.325 km/h
3085 17-12-2014 13:00:00 6.23333 C 6.82 g/m*3 2.82 C 18.36667 km/h
3086 17-12-2014 14:00:00 6.65 C 7.01 g/m*3 3.7 C 15.56667 km/h
3087 17-12-2014 15:00:00 6.95 C 7.13 g/m*3 4.34 C 13.7 km/h
3088 17-12-2014 16:00:00 7.125 C 7.32 g/m*3 4.66 C 13.03333 km/h
3089 17-12-2014 17:00:00 7.64167 C 7.5 g/m*3 5.4 C 12.36667 km/h
3090 17-12-2014 18:00:00 7.85 C 7.59 g/m*3 5.9 C 10.9 km/h
3091 17-12-2014 19:00:00 7.96667 C 7.74 g/m*3 5.97 C 11.3 km/h
3092 17-12-2014 20:00:00 8.29167 C 7.92 g/m*3 6.27 C 11.83333 km/h
3093 17-12-2014 21:00:00 8.65833 C 8.11 g/m*3 6.96 C 10.35833 km/h
3094 17-12-2014 22:00:00 8.89167 C 8.19 g/m*3 7.47 C 9.14167 km/h
3095 17-12-2014 23:00:00 9.175 C 8.36 g/m*3 8.02 C 8.06667 km/h
3096 18-12-2014 00:00:00 9.7 C 8.58 g/m*3 8.79 C 7.375 km/h
3097 18-12-2014 01:00:00 9.45833 C 8.62 g/m*3 8.91 C 5.76667 km/h
3098 18-12-2014 02:00:00 9.44167 C 8.69 g/m*3 9.44 C 3.34167 km/h
3099 18-12-2014 03:00:00 9.81667 C 8.85 g/m*3 9.82 C 3.74167 km/h
3100 18-12-2014 04:00:00 9.925 C 8.86 g/m*3 9.93 C 1.2 km/h
Sensor: Nr:Datum:Temp:Abs-Feuchte:Windchill:Wind:
Aussen-T/F 3101 18-12-2014 05:00:00 9.925 C 8.92 g/m*3 9.93 C 1.46667 km/h
3102 18-12-2014 06:00:00 10 C 9.1 g/m*3 10 C 3.06667 km/h
3103 18-12-2014 07:00:00 10.33333 C 9.29 g/m*3 10.33 C 3.875 km/h
3104 18-12-2014 08:00:00 11.125 C 9.45 g/m*3 11.13 C 8.85 km/h
3105 18-12-2014 09:00:00 11.65833 C 9.56 g/m*3 11.66 C 11.95833 km/h
3106 18-12-2014 10:00:00 12.15 C 9.79 g/m*3 12.15 C 10.61667 km/h
3107 18-12-2014 11:00:00 12.34167 C 9.94 g/m*3 12.34 C 8.33333 km/h
3108 18-12-2014 12:00:00 12.63333 C 10.17 g/m*3 12.63 C 6.575 km/h
3109 18-12-2014 13:00:00 13.43333 C 10.28 g/m*3 13.43 C 9.55833 km/h
3110 18-12-2014 14:00:00 13.60833 C 10.22 g/m*3 13.61 C 9.40833 km/h
3111 18-12-2014 15:00:00 13.45833 C 10.18 g/m*3 13.46 C 8.475 km/h
3112 18-12-2014 16:00:00 13.575 C 10.31 g/m*3 13.58 C 12.1 km/h
3113 18-12-2014 17:00:00 13.65 C 10.44 g/m*3 13.65 C 19.43333 km/h
3114 18-12-2014 18:00:00 13.83333 C 10.47 g/m*3 13.83 C 21.98333 km/h
3115 18-12-2014 19:00:00 13.85 C 10.36 g/m*3 13.85 C 26.29167 km/h
3116 18-12-2014 20:00:00 13.55 C 9.52 g/m*3 13.55 C 27.21667 km/h
3117 18-12-2014 21:00:00 13.13333 C 9.35 g/m*3 13.13 C 21.98333 km/h
3118 18-12-2014 22:00:00 12.80833 C 9.36 g/m*3 12.81 C 21.44167 km/h
3119 18-12-2014 23:00:00 12.575 C 9.46 g/m*3 12.58 C 23.325 km/h
3120 19-12-2014 00:00:00 12.30833 C 9.36 g/m*3 12.31 C 27.475 km/h
3121 19-12-2014 01:00:00 12.1 C 9.34 g/m*3 12.1 C 23.86667 km/h
3122 19-12-2014 02:00:00 11.74167 C 9.29 g/m*3 11.74 C 18.23333 km/h
3123 19-12-2014 03:00:00 11.99167 C 9.15 g/m*3 11.99 C 18.64167 km/h
3124 19-12-2014 04:00:00 12.03333 C 9.12 g/m*3 12.03 C 18.375 km/h
3125 19-12-2014 05:00:00 11.8 C 8.96 g/m*3 11.8 C 20.64167 km/h
Sensor: Nr:Datum:Temp:Abs-Feuchte:Windchill:Wind:
Aussen-T/F 3126 19-12-2014 06:00:00 11.50833 C 8.91 g/m*3 11.51 C 26.95 km/h
3127 19-12-2014 07:00:00 11.275 C 8.9 g/m*3 11.28 C 29.775 km/h
3128 19-12-2014 08:00:00 11.3 C 8.93 g/m*3 11.3 C 26.675 km/h
3129 19-12-2014 09:00:00 11.64167 C 8.95 g/m*3 11.64 C 25.33333 km/h
3130 19-12-2014 10:00:00 11.8 C 9.02 g/m*3 11.8 C 22.64167 km/h
3131 19-12-2014 11:00:00 11.625 C 9.18 g/m*3 11.63 C 22.50833 km/h
3132 19-12-2014 12:00:00 11.775 C 9.22 g/m*3 11.78 C 21.56667 km/h
3133 19-12-2014 13:00:00 11.9 C 9.25 g/m*3 11.9 C 19.96667 km/h
3134 19-12-2014 14:00:00 12 C 9.35 g/m*3 12 C 19.3 km/h
3135 19-12-2014 15:00:00 12 C 9.4 g/m*3 12 C 17.43333 km/h
3136 19-12-2014 16:00:00 10.54167 C 8.8 g/m*3 8.4 C 16.63333 km/h
3137 19-12-2014 17:00:00 8.90833 C 7.78 g/m*3 6.98 C 12.1 km/h
3138 19-12-2014 18:00:00 8.375 C 7.47 g/m*3 7.31 C 7.1 km/h
3139 19-12-2014 19:00:00 8.38333 C 7.12 g/m*3 7.07 C 8.19167 km/h
3140 19-12-2014 20:00:00 7.025 C 6.66 g/m*3 7.03 C 4.55833 km/h
3141 19-12-2014 21:00:00 6.7 C 6.45 g/m*3 5.25 C 7.525 km/h
3142 19-12-2014 22:00:00 6.58333 C 6.28 g/m*3 5.18 C 7.25 km/h
3143 19-12-2014 23:00:00 5.54167 C 6.2 g/m*3 5.54 C 4.93333 km/h
3144 20-12-2014 00:00:00 4.85 C 6.07 g/m*3 4.85 C 3.2 km/h
3145 20-12-2014 01:00:00 4.825 C 6.08 g/m*3 3.81 C 5.2 km/h
3146 20-12-2014 02:00:00 4.85833 C 6 g/m*3 3.26 C 6.96667 km/h
3147 20-12-2014 03:00:00 4.61667 C 5.91 g/m*3 2.46 C 8.86667 km/h
3148 20-12-2014 04:00:00 4.61667 C 5.85 g/m*3 2.24 C 9.825 km/h
3149 20-12-2014 05:00:00 4.325 C 5.79 g/m*3 1.92 C 9.69167 km/h
</